[[{"header":{"parameterUnit":"m.s-1","parameterCategory":1,"la1":30.6,"la2":29.2853,"lo1":-89.7004,"lo2":-87.6739,"dy":0.0162,"dx":0.0183,"nx":112,"ny":82,"refTime":"2024-09-13T18:00:00:Z","depth":0,"parameterNumber":2,"parameterNumberName":"U-component_of_WINDS"},"data":[0.0,0.0,0.0,0.0,0.0,0.0,0.0,0.0,0.0,0.0,0.0,0.0,0.0,0.0,0.0,0.0,0.0,0.0,0.0,0.0,0.0,0.0,0.0,0.0,0.0,0.0,0.0,0.0,0.0,0.0,0.0,0.0,0.0,0.0,0.0,0.0,0.0,0.0,0.0,0.0,0.0,0.0,0.0,0.0,0.0,0.0,0.0,0.0,0.0,0.0,0.0,0.0,0.0,0.0,0.0,0.0,0.0,0.0,0.0,0.0,0.0,0.0,0.0,0.0,0.0,0.0,0.0,0.0,0.0,0.0,0.0,0.0,0.0,0.0,0.0,0.0,0.0,0.0,0.0,0.0,0.0,0.0,0.0,0.0,0.0,0.0,0.0,0.0,0.0,0.0,-1.4262,-1.6054,-1.8085,-1.9297,-1.9297,-1.9187,-1.7826,-1.4775,0.0,0.0,0.0,0.0,0.0,0.0,0.0,0.0,0.0,0.0,0.0,0.0,0.0,0.0,0.0,0.0,0.0,0.0,0.0,0.0,0.0,0.0,0.0,0.0,0.0,0.0,0.0,0.0,0.0,0.0,0.0,0.0,0.0,0.0,0.0,0.0,0.0,0.0,0.0,0.0,0.0,0.0,0.0,0.0,0.0,0.0,0.0,0.0,0.0,0.0,0.0,0.0,0.0,0.0,0.0,0.0,0.0,0.0,0.0,0.0,0.0,0.0,0.0,0.0,0.0,0.0,0.0,0.0,0.0,0.0,0.0,0.0,0.0,0.0,0.0,0.0,0.0,0.0,0.0,0.0,0.0,0.0,0.0,0.0,0.0,0.0,0.0,0.0,0.0,0.0,0.0,0.0,0.0,0.0,0.0,0.0,0.0,0.0,0.0,0.0,0.0,0.0,0.0,0.0,-1.5466,-1.8434,-1.9077,-1.9297,-1.9297,-1.8665,-1.7197,-1.4663,0.0,0.0,0.0,0.0,0.0,0.0,0.0,0.0,0.0,0.0,0.0,0.0,0.0,0.0,0.0,0.0,0.0,0.0,0.0,0.0,0.0,0.0,0.0,0.0,0.0,0.0,0.0,0.0,0.0,0.0,0.0,0.0,0.0,0.0,0.0,0.0,0.0,0.0,0.0,0.0,0.0,0.0,0.0,0.0,0.0,0.0,0.0,0.0,0.0,0.0,0.0,0.0,0.0,0.0,0.0,0.0,0.0,0.0,0.0,0.0,0.0,0.0,0.0,0.0,0.0,0.0,0.0,0.0,0.0,0.0,0.0,0.0,0.0,0.0,0.0,0.0,0.0,0.0,0.0,0.0,0.0,0.0,0.0,0.0,0.0,0.0,0.0,0.0,0.0,0.0,0.0,0.0,0.0,0.0,0.0,0.0,0.0,0.0,0.0,0.0,0.0,0.0,0.0,-1.4755,-1.6224,-1.9003,-1.9297,-1.9297,-1.9297,-1.8555,-1.7062,-1.4658,-1.4127,0.0,0.0,0.0,0.0,0.0,0.0,0.0,0.0,0.0,0.0,0.0,0.0,0.0,0.0,0.0,0.0,0.0,0.0,0.0,0.0,0.0,0.0,0.0,0.0,0.0,0.0,0.0,0.0,0.0,0.0,0.0,0.0,0.0,0.0,0.0,0.0,0.0,0.0,0.0,0.0,0.0,0.0,0.0,0.0,0.0,0.0,0.0,0.0,0.0,0.0,0.0,0.0,0.0,0.0,0.0,0.0,0.0,0.0,0.0,0.0,0.0,0.0,0.0,0.0,0.0,0.0,0.0,0.0,0.0,0.0,0.0,0.0,0.0,0.0,0.0,0.0,0.0,0.0,0.0,0.0,0.0,0.0,0.0,0.0,0.0,0.0,0.0,0.0,0.0,0.0,0.0,0.0,0.0,0.0,0.0,0.0,0.0,0.0,0.0,0.0,0.0,0.0,-1.5514,-1.6561,-1.8783,-1.8856,-1.8812,-1.9003,-1.7931,-1.6383,-1.4352,-1.3275,0.0,0.0,0.0,0.0,0.0,0.0,0.0,0.0,0.0,0.0,0.0,0.0,0.0,0.0,0.0,0.0,0.0,0.0,0.0,0.0,0.0,0.0,0.0,0.0,0.0,0.0,0.0,0.0,0.0,0.0,0.0,0.0,0.0,0.0,0.0,0.0,0.0,0.0,0.0,0.0,0.0,0.0,0.0,0.0,0.0,0.0,0.0,0.0,0.0,0.0,0.0,0.0,0.0,0.0,0.0,0.0,0.0,0.0,0.0,0.0,0.0,0.0,0.0,0.0,0.0,0.0,0.0,0.0,0.0,0.0,0.0,0.0,0.0,0.0,0.0,0.0,0.0,0.0,0.0,0.0,0.0,0.0,0.0,0.0,0.0,0.0,0.0,0.0,0.0,0.0,0.0,0.0,0.0,0.0,0.0,0.0,0.0,0.0,0.0,0.0,0.0,0.0,-1.4819,-1.6334,-1.8005,-1.752,-1.7367,-1.8108,-1.6071,-1.4371,-1.3445,-1.193,0.0,0.0,0.0,0.0,0.0,0.0,0.0,0.0,0.0,0.0,0.0,0.0,0.0,0.0,0.0,0.0,0.0,0.0,0.0,0.0,0.0,0.0,0.0,0.0,0.0,0.0,0.0,0.0,0.0,0.0,0.0,0.0,0.0,0.0,0.0,0.0,0.0,0.0,0.0,0.0,0.0,0.0,0.0,0.0,0.0,0.0,0.0,0.0,0.0,0.0,0.0,0.0,0.0,0.0,0.0,0.0,0.0,0.0,0.0,0.0,0.0,0.0,0.0,0.0,0.0,0.0,0.0,0.0,0.0,0.0,0.0,0.0,0.0,0.0,0.0,0.0,0.0,0.0,0.0,0.0,0.0,0.0,0.0,0.0,0.0,0.0,0.0,0.0,0.0,0.0,0.0,0.0,0.0,0.0,0.0,0.0,0.0,0.0,0.0,0.0,0.0,0.0,-1.4336,-1.5576,0.0,-1.7073,-1.7018,-1.733,-1.6053,-1.4688,-1.3372,0.0,0.0,0.0,0.0,0.0,0.0,0.0,0.0,0.0,0.0,0.0,0.0,0.0,0.0,0.0,0.0,0.0,0.0,0.0,0.0,0.0,0.0,0.0,0.0,0.0,0.0,0.0,0.0,0.0,0.0,0.0,0.0,0.0,0.0,0.0,0.0,0.0,0.0,0.0,0.0,0.0,0.0,0.0,0.0,0.0,0.0,0.0,0.0,0.0,0.0,0.0,0.0,0.0,0.0,0.0,0.0,0.0,0.0,0.0,0.0,0.0,0.0,0.0,0.0,0.0,0.0,0.0,0.0,0.0,0.0,0.0,0.0,0.0,0.0,0.0,0.0,0.0,0.0,0.0,0.0,0.0,0.0,0.0,0.0,0.0,0.0,0.0,0.0,0.0,0.0,0.0,0.0,0.0,0.0,0.0,0.0,0.0,0.0,0.0,0.0,0.0,0.0,-1.2976,-1.3937,-1.5025,0.0,-1.6285,-1.6248,-1.6511,-1.5307,-1.4083,-1.2986,0.0,0.0,0.0,0.0,0.0,0.0,0.0,0.0,0.0,0.0,0.0,0.0,0.0,0.0,0.0,0.0,0.0,0.0,0.0,0.0,0.0,0.0,0.0,0.0,0.0,0.0,0.0,0.0,0.0,0.0,0.0,0.0,0.0,0.0,0.0,0.0,0.0,0.0,0.0,0.0,0.0,0.0,0.0,0.0,0.0,0.0,0.0,0.0,0.0,0.0,0.0,0.0,0.0,0.0,0.0,0.0,0.0,0.0,0.0,0.0,0.0,0.0,0.0,0.0,0.0,0.0,0.0,0.0,0.0,0.0,0.0,0.0,0.0,0.0,0.0,0.0,0.0,0.0,0.0,0.0,0.0,0.0,0.0,0.0,0.0,0.0,0.0,0.0,0.0,0.0,0.0,0.0,0.0,0.0,0.0,0.0,0.0,0.0,0.0,0.0,0.0,0.0,-1.2305,-1.3595,-1.4805,-1.5607,-1.497,-1.4824,-1.5625,-1.349,-1.2113,0.0,0.0,0.0,0.0,0.0,0.0,0.0,0.0,0.0,0.0,0.0,0.0,0.0,0.0,0.0,0.0,0.0,0.0,0.0,0.0,0.0,0.0,0.0,0.0,0.0,0.0,0.0,0.0,0.0,0.0,0.0,0.0,0.0,0.0,0.0,0.0,0.0,0.0,0.0,0.0,0.0,0.0,0.0,0.0,0.0,0.0,0.0,0.0,0.0,0.0,0.0,0.0,0.0,0.0,0.0,0.0,0.0,0.0,0.0,0.0,0.0,0.0,0.0,0.0,0.0,0.0,0.0,0.0,0.0,0.0,0.0,0.0,0.0,0.0,0.0,0.0,0.0,0.0,0.0,0.0,0.0,0.0,0.0,0.0,0.0,0.0,0.0,0.0,0.0,0.0,0.0,0.0,0.0,0.0,0.0,0.0,0.0,0.0,0.0,0.0,0.0,0.0,0.0,-1.2305,-1.3595,-1.4585,-1.4824,-1.464,-1.4603,-1.4824,-1.3679,-1.2706,-1.2132,0.0,0.0,0.0,0.0,0.0,0.0,0.0,0.0,0.0,0.0,0.0,0.0,0.0,0.0,0.0,0.0,0.0,0.0,0.0,0.0,0.0,0.0,0.0,0.0,0.0,0.0,0.0,0.0,0.0,0.0,0.0,0.0,0.0,0.0,0.0,0.0,0.0,0.0,0.0,0.0,0.0,0.0,0.0,0.0,0.0,0.0,0.0,0.0,0.0,0.0,0.0,0.0,0.0,0.0,0.0,0.0,0.0,0.0,0.0,0.0,0.0,0.0,0.0,0.0,0.0,0.0,0.0,0.0,0.0,0.0,0.0,0.0,0.0,0.0,0.0,0.0,0.0,0.0,0.0,0.0,0.0,0.0,0.0,0.0,0.0,0.0,0.0,0.0,0.0,0.0,0.0,0.0,0.0,0.0,0.0,0.0,0.0,0.0,0.0,0.0,0.0,0.0,-1.274,-1.4071,-1.4976,-1.4976,-1.4976,-1.4842,-1.453,-1.3752,-1.2968,-1.215,0.0,0.0,0.0,0.0,0.0,0.0,0.0,0.0,0.0,0.0,0.0,0.0,0.0,0.0,0.0,0.0,0.0,0.0,0.0,0.0,0.0,0.0,0.0,0.0,0.0,0.0,0.0,0.0,0.0,0.0,0.0,0.0,0.0,0.0,0.0,0.0,0.0,0.0,0.0,0.0,0.0,0.0,0.0,0.0,0.0,0.0,0.0,0.0,0.0,0.0,0.0,0.0,0.0,0.0,0.0,0.0,0.0,0.0,0.0,0.0,0.0,0.0,0.0,0.0,0.0,0.0,0.0,0.0,0.0,0.0,0.0,0.0,0.0,0.0,0.0,0.0,0.0,0.0,0.0,0.0,0.0,0.0,0.0,0.0,0.0,0.0,0.0,0.0,0.0,0.0,0.0,0.0,0.0,0.0,0.0,0.0,0.0,0.0,0.0,0.0,0.0,0.0,-1.3394,-1.4783,-1.5735,-1.5802,-1.5802,-1.549,-1.4677,-1.3881,-1.3078,-1.2265,0.0,0.0,0.0,0.0,0.0,0.0,0.0,0.0,0.0,0.0,0.0,0.0,0.0,0.0,0.0,0.0,0.0,0.0,0.0,0.0,0.0,0.0,0.0,0.0,0.0,0.0,0.0,0.0,0.0,0.0,0.0,0.0,0.0,0.0,0.0,0.0,0.0,0.0,0.0,0.0,0.0,0.0,0.0,0.0,0.0,0.0,0.0,0.0,0.0,0.0,0.0,0.0,0.0,0.0,0.0,0.0,0.0,0.0,0.0,0.0,-1.4036,0.0,0.0,0.0,0.0,0.0,0.0,0.0,0.0,0.0,0.0,0.0,0.0,0.0,0.0,0.0,0.0,0.0,0.0,0.0,0.0,0.0,0.0,0.0,0.0,0.0,0.0,0.0,0.0,0.0,0.0,0.0,0.0,0.0,0.0,0.0,0.0,0.0,0.0,0.0,0.0,0.0,-1.3394,-1.4783,-1.5931,-1.6585,-1.6633,-1.6328,-1.5509,-1.4719,-1.3893,-1.3096,-1.2462,0.0,0.0,0.0,0.0,0.0,0.0,0.0,0.0,0.0,0.0,0.0,0.0,0.0,0.0,0.0,0.0,0.0,0.0,0.0,0.0,0.0,0.0,0.0,0.0,0.0,0.0,0.0,0.0,0.0,0.0,0.0,0.0,0.0,0.0,0.0,0.0,0.0,0.0,0.0,0.0,0.0,0.0,0.0,0.0,0.0,0.0,0.0,0.0,0.0,0.0,0.0,0.0,0.0,0.0,0.0,0.0,0.0,0.0,0.0,0.0,-1.5138,0.0,0.0,0.0,0.0,0.0,0.0,0.0,0.0,0.0,0.0,0.0,0.0,0.0,0.0,0.0,0.0,0.0,0.0,0.0,0.0,0.0,0.0,0.0,0.0,0.0,0.0,0.0,0.0,0.0,0.0,0.0,0.0,0.0,0.0,0.0,0.0,0.0,0.0,0.0,0.0,-1.4532,-1.596,-1.7014,-1.7429,-1.7484,-1.7154,-1.6346,-1.5881,-1.5343,-1.4595,-1.3928,0.0,0.0,0.0,0.0,0.0,0.0,0.0,0.0,0.0,0.0,0.0,0.0,0.0,0.0,0.0,0.0,0.0,0.0,0.0,0.0,0.0,0.0,0.0,0.0,0.0,0.0,0.0,0.0,0.0,0.0,0.0,0.0,0.0,0.0,0.0,0.0,0.0,0.0,0.0,0.0,0.0,0.0,0.0,0.0,0.0,0.0,0.0,0.0,0.0,0.0,0.0,0.0,0.0,-2.0136,-2.0561,-2.0911,-2.0282,-2.0395,-2.0953,-1.88,-1.797,-1.8049,-1.6526,0.0,0.0,0.0,0.0,0.0,0.0,0.0,0.0,0.0,0.0,0.0,0.0,0.0,0.0,0.0,0.0,0.0,0.0,0.0,0.0,0.0,0.0,0.0,0.0,-1.6765,-1.6913,-1.5173,0.0,0.0,0.0,0.0,0.0,0.0,0.0,0.0,0.0,0.0,0.0,-1.5773,-1.7256,-1.8187,-1.8298,-1.8317,-1.7993,-1.7238,-1.7164,-1.6879,-1.6196,-1.5607,-1.4974,0.0,0.0,0.0,0.0,0.0,0.0,0.0,0.0,0.0,0.0,0.0,0.0,0.0,0.0,0.0,0.0,0.0,0.0,0.0,0.0,0.0,0.0,0.0,0.0,0.0,0.0,0.0,0.0,0.0,0.0,0.0,0.0,-1.2475,-1.3257,0.0,0.0,0.0,0.0,0.0,0.0,0.0,0.0,0.0,0.0,0.0,0.0,0.0,-1.8918,-1.9804,-2.1537,-2.2061,-2.1409,-2.3564,-2.3919,-2.2695,-2.327,-2.3628,-2.3776,-2.3422,0.0,-1.9884,-1.9031,0.0,0.0,0.0,0.0,0.0,0.0,0.0,0.0,0.0,0.0,0.0,0.0,0.0,0.0,0.0,0.0,0.0,0.0,0.0,0.0,0.0,0.0,-2.172,-2.0108,-2.0338,-2.045,0.0,-1.667,-1.5096,-1.4769,-1.417,0.0,0.0,0.0,0.0,0.0,0.0,0.0,-1.5731,-1.7312,-1.8549,-1.9092,-1.915,-1.8893,-1.8254,-1.8193,-1.7917,-1.7249,-1.722,-1.6852,-1.6006,-1.5146,0.0,0.0,0.0,0.0,0.0,0.0,0.0,0.0,0.0,0.0,0.0,0.0,0.0,0.0,0.0,0.0,0.0,0.0,0.0,0.0,0.0,0.0,0.0,0.0,0.0,0.0,0.0,0.0,0.0,-1.1782,-1.3447,-1.4023,-1.4435,-1.4494,0.0,0.0,0.0,0.0,0.0,0.0,0.0,0.0,0.0,-2.0082,-2.0661,-2.1405,-2.2304,-2.3635,-2.4148,-2.3845,-2.4949,-2.5086,-2.4418,-2.474,-2.4883,-2.4921,-2.4921,-2.4226,-2.3012,-2.1838,-2.0821,-1.993,0.0,0.0,0.0,0.0,-1.8749,-1.8457,-1.9401,-1.9389,-1.8925,-1.8809,0.0,0.0,0.0,0.0,0.0,0.0,0.0,0.0,0.0,0.0,-2.2816,-2.2034,-2.2108,-2.212,-2.1362,-2.0283,-1.8773,0.0,-1.5984,-1.5577,-1.4148,0.0,0.0,0.0,0.0,-1.6673,-1.739,-1.8476,-1.9295,-1.9549,-1.9573,-1.9463,-1.9206,-1.9194,-1.91,-1.8878,-1.8483,-1.813,-1.7834,-1.664,-1.5419,0.0,0.0,0.0,0.0,0.0,0.0,0.0,0.0,0.0,0.0,0.0,0.0,0.0,0.0,0.0,0.0,0.0,0.0,0.0,0.0,0.0,0.0,0.0,0.0,0.0,0.0,0.0,0.0,-1.287,-1.4398,-1.4951,-1.5848,-1.6221,0.0,0.0,0.0,0.0,0.0,0.0,-1.8624,-1.9733,-2.0871,-2.1965,-2.2819,-2.3701,-2.4578,-2.544,-2.5787,-2.5627,-2.5885,-2.5796,-2.542,-2.5622,-2.5614,-2.5431,-2.5431,-2.5407,-2.5249,-2.3863,-2.2941,-2.2302,-2.1465,-2.117,-2.1282,-2.1946,-2.177,-2.1381,-2.2637,-2.2616,-2.1961,-2.1512,-2.0756,-1.9745,-1.8266,0.0,0.0,0.0,0.0,-2.2421,-2.2439,-2.3055,-2.3606,-2.341,-2.3314,-2.3212,-2.2979,-2.2865,-2.1891,0.0,-1.843,-1.8061,-1.617,0.0,0.0,0.0,0.0,-1.8433,-1.9012,-1.9725,-2.0081,-1.9834,-1.979,-1.9807,-1.9847,-1.9852,-1.9912,-2.0064,-1.9507,-1.9235,-1.9332,-1.7997,-1.6859,-1.5955,0.0,0.0,0.0,0.0,0.0,0.0,0.0,0.0,0.0,0.0,0.0,0.0,0.0,0.0,0.0,0.0,0.0,0.0,0.0,0.0,0.0,0.0,0.0,0.0,0.0,0.0,0.0,0.0,0.0,-1.66,-1.8176,0.0,0.0,0.0,0.0,-1.8186,-1.8672,-1.9527,-2.0855,-2.1726,-2.294,-2.4654,-2.5125,-2.5706,-2.6451,-2.6894,-2.674,-2.5989,-2.6934,-2.6603,-2.5149,-2.616,-2.6217,-2.5496,-2.5496,-2.5498,-2.5422,-2.4505,-2.4087,-2.3902,-2.3155,-2.2875,-2.2875,-2.2933,-2.2914,-2.2894,-2.2974,-2.2974,-2.305,-2.3774,-2.3458,-2.2625,-2.1645,-2.1413,0.0,0.0,-2.2743,-2.4086,-2.4151,-2.4825,-2.5285,-2.4503,-2.4336,-2.4074,-2.3198,-2.2937,-2.281,0.0,-2.185,-2.1273,-2.1139,0.0,-1.9043,-1.9747,-2.0024,-2.008,-1.9866,-2.0646,-2.0861,-1.9902,-1.979,-1.9852,-1.9988,-1.9979,-2.0069,-2.0277,-2.0253,-2.0224,-2.0227,-1.9487,-1.8638,-1.7695,-1.6033,0.0,0.0,0.0,0.0,0.0,0.0,0.0,0.0,0.0,0.0,0.0,0.0,0.0,0.0,0.0,0.0,0.0,0.0,0.0,0.0,0.0,0.0,0.0,0.0,0.0,0.0,0.0,0.0,-1.7595,-1.8621,0.0,-1.8429,-1.878,-1.9139,-1.9355,-2.0503,-2.1555,-2.241,-2.3341,-2.4292,-2.526,-2.5511,-2.5747,-2.6027,-2.6287,-2.6289,-2.6002,-2.6626,-2.6357,-2.5326,-2.6493,-2.6356,-2.5216,-2.5731,-2.5721,-2.536,-2.5043,-2.4943,-2.4972,-2.4715,-2.4608,-2.4608,-2.4608,-2.4608,-2.4608,-2.4608,-2.4577,-2.45,-2.4219,-2.3945,-2.3659,-2.3366,-2.3295,-2.3417,-2.395,-2.4557,-2.5046,-2.5068,-2.5307,-2.5451,-2.5186,-2.5067,-2.496,-2.4663,-2.4559,-2.4512,-2.4541,-2.3342,-2.2164,-2.1642,-2.1502,-2.1346,-2.1043,-2.1526,-2.1867,-2.1776,-2.2063,-2.2125,-2.1775,-2.1732,-2.1522,-2.1003,-2.0993,-2.0811,-2.0321,-2.0341,-2.0359,-2.0359,-2.0106,-1.9547,-1.8652,-1.7498,-1.5758,0.0,0.0,0.0,0.0,0.0,0.0,0.0,0.0,0.0,0.0,0.0,0.0,0.0,0.0,0.0,0.0,0.0,0.0,0.0,0.0,0.0,0.0,0.0,0.0,0.0,0.0,-1.7017,-1.7676,-1.903,-1.9757,-1.9358,-2.0161,-2.0778,-2.0926,-2.184,-2.2589,-2.3106,-2.3758,-2.4392,-2.502,-2.5215,-2.5536,-2.5975,-2.6234,-2.6321,-2.6237,-2.6852,-2.6632,-2.5744,-2.6906,-2.6825,-2.5753,-2.6024,-2.592,-2.5516,-2.5241,-2.5187,-2.5286,-2.5388,-2.5431,-2.5431,-2.5431,-2.5431,-2.5431,-2.5431,-2.5409,-2.5277,-2.4687,-2.4509,-2.4504,-2.4563,-2.4567,-2.4695,-2.5259,-2.5431,-2.5438,-2.5468,-2.5477,-2.5463,-2.5486,-2.5461,-2.5453,-2.5494,-2.5449,-2.5426,-2.5499,-2.4533,-2.3533,-2.3015,-2.3131,-2.3191,-2.2863,-2.3103,-2.3292,-2.3234,-2.3259,-2.3168,-2.2879,-2.2836,-2.2605,-2.2042,-2.1778,-2.1388,-2.0772,-2.0529,-2.0381,-2.0371,-2.0137,-1.9716,-1.9103,-1.7886,-1.6526,-1.5034,0.0,0.0,0.0,0.0,0.0,0.0,0.0,0.0,0.0,0.0,0.0,0.0,0.0,0.0,0.0,0.0,0.0,0.0,0.0,0.0,0.0,0.0,0.0,-1.4219,-1.5812,-1.6961,-1.6955,-1.9542,-2.1051,-2.0387,-2.1491,-2.2447,-2.2921,-2.2537,-2.2496,-2.2988,-2.3022,-2.3376,-2.4119,-2.4444,-2.521,-2.6438,-2.6862,-2.6937,-2.6704,-2.7696,-2.7508,-2.6322,-2.7407,-2.7625,-2.7104,-2.636,-2.6029,-2.5943,-2.5171,-2.4865,-2.4882,-2.5168,-2.5274,-2.5274,-2.5274,-2.5298,-2.5279,-2.5279,-2.5284,-2.5308,-2.5308,-2.5308,-2.5308,-2.5308,-2.5308,-2.5308,-2.5308,-2.5308,-2.5317,-2.5379,-2.5406,-2.5411,-2.5488,-2.5486,-2.5486,-2.5508,-2.5453,-2.5413,-2.5483,-2.5508,-2.55,-2.5498,-2.4858,-2.4584,-2.5295,-2.4791,0.0,-2.415,-2.42,-2.3912,-2.3063,-2.2985,-2.3001,-2.3032,-2.2236,-2.1706,-2.1603,-2.0838,-2.0388,-2.0351,-1.9657,-1.9239,-1.9165,-1.7279,-1.6644,-1.7319,0.0,0.0,0.0,0.0,0.0,0.0,0.0,0.0,0.0,0.0,0.0,0.0,0.0,0.0,0.0,0.0,0.0,0.0,0.0,0.0,0.0,-1.242,-1.3784,-1.5349,-1.7177,-1.8346,-1.8341,-2.0265,-2.133,-2.0661,-2.0914,-2.1391,-2.2017,-2.1947,-2.2288,-2.3238,-2.3745,-2.43,-2.4875,-2.4995,-2.519,-2.5552,-2.6039,-2.6268,-2.6202,-2.7113,-2.7055,-2.6198,-2.7366,-2.7254,-2.6118,-2.6501,-2.6409,-2.5999,-2.608,-2.6105,-2.6028,-2.5229,-2.4948,-2.4948,-2.4948,-2.5006,-2.5088,-2.5088,-2.5173,-2.5308,-2.5308,-2.5308,-2.5308,-2.5308,-2.5308,-2.5308,-2.5308,-2.5308,-2.5293,-2.5312,-2.5321,-2.533,-2.5342,-2.535,-2.5371,-2.5427,-2.5405,-2.5415,-2.5486,-2.5501,-2.55,-2.5504,-2.5272,-2.5182,-2.5434,-2.5306,0.0,-2.5129,-2.5121,-2.5057,-2.4807,-2.4788,-2.4542,-2.3914,-2.3129,-2.2342,-2.1635,-2.0834,-2.0674,-2.1282,-2.1073,-2.0856,-2.0697,-1.9352,-1.8477,0.0,0.0,0.0,0.0,0.0,0.0,0.0,0.0,0.0,0.0,0.0,0.0,0.0,0.0,0.0,0.0,0.0,0.0,0.0,0.0,0.0,0.0,-1.2949,-1.4181,-1.5571,-1.7167,-1.8276,-1.8578,-2.0197,-2.1169,-2.0783,-2.1219,-2.1708,-2.2092,-2.2113,-2.2637,-2.3838,-2.3761,-2.4198,-2.5326,-2.5103,-2.5191,-2.5699,-2.6019,-2.6276,-2.6506,-2.6936,-2.6978,-2.6715,-2.7354,-2.7158,-2.6291,-2.6419,-2.6282,-2.5945,-2.5847,-2.5937,0.0,0.0,0.0,0.0,0.0,-2.4849,-2.4923,-2.4923,-2.4981,-2.5091,-2.5091,-2.5091,-2.5091,-2.5091,-2.5091,-2.5109,-2.5152,-2.5124,-2.5109,-2.5152,-2.5124,-2.509,-2.5152,-2.5124,-2.5118,-2.5216,-2.5187,-2.5158,-2.5191,-2.5204,0.0,-2.5207,-2.5343,-2.5449,-2.5459,-2.5482,-2.5482,-2.5421,-2.5449,-2.5456,-2.5456,-2.5456,-2.5269,-2.4783,-2.3975,0.0,0.0,0.0,-2.1343,-2.1409,-2.1366,0.0,0.0,0.0,0.0,0.0,0.0,0.0,0.0,-1.9462,-1.9091,0.0,0.0,0.0,0.0,0.0,0.0,0.0,0.0,0.0,0.0,0.0,0.0,0.0,0.0,0.0,0.0,-1.3657,-1.4777,-1.5231,-1.6303,-1.7345,-1.8085,-1.9709,-2.0776,-2.079,-2.1875,-2.2612,-2.2681,-2.2669,-2.3201,-2.4391,0.0,0.0,0.0,0.0,-2.51,-2.6182,-2.6332,-2.6642,-2.71,-2.6976,-2.7135,-2.7458,-2.7265,-2.7117,-2.6947,-2.6162,-2.5821,-2.5769,-2.5101,-2.5071,-2.5482,-2.5725,-2.5822,-2.571,-2.4917,-2.4655,-2.4719,-2.4719,0.0,0.0,-2.4756,-2.473,-2.473,-2.473,-2.473,-2.4773,-2.493,-2.4891,-2.4821,-2.4943,-2.4884,-2.4828,-2.4943,-2.4884,-2.4828,-2.4949,-2.4877,-2.4804,-2.4804,-2.4804,-2.4797,-2.4797,-2.5144,-2.5401,-2.5342,-2.5412,-2.5418,-2.5265,-2.5355,-2.5399,-2.5375,0.0,0.0,-2.5454,-2.4638,-2.406,-2.3861,-2.3132,-2.2266,-2.1272,-2.1306,-2.1286,-2.1153,-2.0747,-2.1234,-2.2619,-2.2289,-2.2499,-2.313,-1.9724,-1.9256,0.0,0.0,0.0,0.0,0.0,0.0,0.0,0.0,0.0,0.0,0.0,0.0,0.0,0.0,0.0,-1.1877,-1.3206,-1.4418,-1.5053,-1.5713,-1.6606,-1.782,-1.9527,-2.0689,-2.0782,-2.1414,-2.2038,-2.2568,-2.2522,-2.2796,-2.3596,-2.3398,-2.3439,-2.3828,-2.4279,-2.4621,-2.4883,-2.5872,-2.6444,-2.6554,0.0,0.0,-2.7239,-2.6668,-2.6406,-2.6357,-2.5629,-2.5338,-2.5359,-2.5521,-2.543,-2.5134,-2.4757,-2.4633,-2.4544,-2.3782,-2.3782,-2.4146,-2.4146,-2.4443,-2.4756,-2.4484,-2.4409,-2.4409,-2.4409,-2.4409,0.0,-2.4766,-2.4832,-2.4811,-2.4828,-2.4825,-2.4811,-2.4828,-2.4825,-2.4811,-2.4828,-2.4825,-2.4804,-2.4804,-2.4804,-2.4792,-2.4809,-2.4878,-2.4946,-2.4994,-2.5147,-2.5188,-2.5008,-2.5274,-2.5411,-2.5253,-2.5247,-2.521,-2.5187,-2.4289,-2.3684,-2.3581,-2.3429,-2.3114,-2.2621,-2.3135,-2.2987,-2.207,-2.241,-2.2462,-2.2131,-2.271,-2.3047,-2.3183,-2.2439,-2.2344,0.0,0.0,0.0,0.0,0.0,0.0,0.0,0.0,0.0,0.0,0.0,-0.8513,-0.922,0.0,-1.1645,-1.2261,-1.301,-1.3849,-1.4804,-1.5178,-1.5836,-1.7182,-1.8374,-1.9118,-1.9179,-1.9936,-2.0528,-2.0886,-2.1043,-2.1748,-2.3178,-2.2644,-2.2951,-2.4352,-2.4431,-2.4599,-2.4962,-2.5579,-2.608,-2.6454,-2.6657,-2.6938,-2.7281,-2.6889,-2.655,-2.6251,-2.5586,-2.5307,-2.5316,-2.5435,-2.5364,-2.5102,-2.4444,-2.4308,-2.4444,-2.3945,-2.3922,-2.4093,-2.3728,-2.3782,-2.3978,-2.3787,-2.3747,-2.3747,-2.3747,-2.3747,-2.3807,-2.4063,-2.4082,-2.4026,-2.4118,-2.4072,-2.4017,-2.4118,-2.4072,-2.4063,-2.4349,-2.4191,-2.4053,-2.421,-2.41,-2.3997,-2.3997,-2.3999,-2.4184,-2.4765,-2.4935,-2.4957,-2.4858,-2.502,-2.512,-2.5009,-2.5004,-2.499,-2.4953,-2.4402,-2.3953,-2.376,-2.3661,-2.3447,-2.3107,-2.3412,-2.3322,-2.2765,-2.2876,-2.2755,-2.235,-2.262,-2.2639,-2.2398,-2.2398,-2.26,0.0,0.0,0.0,0.0,0.0,0.0,0.0,-0.689,-0.7122,-0.7712,-0.8697,-0.9522,-0.9753,-1.0919,-1.2102,-1.2725,-1.3157,-1.3747,-1.4769,-1.4902,-1.5303,-1.6396,-1.7033,-1.744,-1.7578,-1.8563,-1.9195,-1.9195,-1.9709,-2.0799,-2.2525,-2.1654,-2.221,-2.4629,-2.4311,-2.4477,-2.5175,-2.5315,-2.5701,-2.6283,-2.6316,-2.6662,-2.7222,-2.7119,-2.6845,-2.6412,-2.5736,-2.5367,-2.5241,-2.5132,-2.5017,-2.4847,-2.4347,-2.435,-2.4591,-2.4198,-2.4079,-2.4042,-2.3441,-2.319,-2.316,-2.3177,-2.3035,-2.287,-2.2949,-2.2925,-2.2926,-2.3242,-2.3216,-2.3141,-2.3378,-2.3314,-2.3241,-2.34,-2.332,-2.331,-2.3751,-2.3505,-2.3288,-2.3555,-2.338,-2.3177,-2.31,-2.3153,-2.3494,-2.4358,-2.4524,-2.4532,-2.4492,-2.4556,-2.4595,-2.4556,-2.4548,-2.4532,-2.4492,-2.4335,-2.4118,-2.3862,-2.3691,-2.3448,-2.3117,-2.3028,-2.2954,-2.2893,-2.2561,-2.2374,-2.2374,-2.2155,-2.1855,-2.1476,-2.1514,-2.1912,-0.3841,-0.4374,-0.4899,-0.5375,-0.5727,-0.6228,0.0,-0.7892,-0.8368,-0.8898,-0.9361,-0.9689,-0.9716,-1.1226,-1.253,-1.2617,-1.4026,-1.5168,-1.5303,-1.5342,-1.54,-1.5534,-1.6195,-1.6866,-1.755,-1.8531,-1.91,-1.91,-1.9978,-2.0624,-2.0859,-2.0751,-2.1163,-2.2255,-2.2842,-2.3554,-2.4394,-2.5063,-2.5425,-2.5536,-2.6171,-2.6512,-2.6602,-2.6653,-2.6636,-2.6534,-2.5873,-2.5235,-2.468,-2.4672,-2.4309,-2.3822,-2.421,-2.4385,-2.4347,-2.3472,-2.3306,-2.3489,-2.3407,-2.3177,-2.2951,-2.3069,-2.2473,-2.1761,-2.2121,-2.1978,-2.1831,-2.2505,-2.2688,-2.2743,-2.313,-2.3224,-2.32,-2.3218,-2.3224,-2.3212,-2.3282,-2.3247,-2.32,-2.3247,-2.3242,-2.3088,-2.2718,-2.2968,-2.3247,-2.3367,-2.3537,-2.3575,-2.3406,-2.3691,-2.3831,-2.3652,-2.365,-2.3565,-2.3395,-2.3356,-2.334,-2.3287,-2.3271,-2.3105,-2.2772,-2.2411,-2.2082,-2.1788,-2.1398,-2.1181,-2.1181,-2.115,-2.1134,-2.1071,-2.1245,-2.1599,-0.401,-0.425,-0.4617,-0.5649,-0.6125,-0.6709,-0.8024,-0.8625,-0.8998,-0.9412,-0.9733,-0.9933,-0.9933,-1.0767,-1.1737,0.0,-1.3481,-1.4323,-1.5264,-1.541,-1.541,-1.541,-1.5671,-1.608,-1.6674,-1.7325,-1.7833,-1.8103,-1.8714,-1.9299,-1.9814,-1.9846,-2.0236,-2.1101,-2.1444,-2.2034,-2.2907,-2.3212,-2.3833,-2.4766,-2.5063,-2.5425,-2.5864,-2.5891,-2.5917,-2.5985,-2.6119,-2.5809,-2.5143,-2.4769,-2.4425,-2.4163,-2.4003,-2.3927,-2.3905,-2.3705,-2.3697,-2.3761,-2.3323,-2.3089,-2.2899,-2.2573,-2.2151,-2.1746,-2.1527,-2.1335,-2.1273,-2.1573,-2.1676,-2.1705,-2.1881,-2.1924,-2.1924,-2.1924,-2.1924,-2.1964,-2.217,-2.2062,-2.1978,-2.217,-2.2046,-2.1881,-2.1705,-2.1807,-2.1924,-2.1924,-2.2718,-2.3298,-2.3212,-2.3336,-2.3411,-2.3336,-2.3343,-2.32,-2.2877,-2.2853,-2.2672,-2.2238,-2.2211,-2.2062,-2.1709,-2.1547,-2.1397,-2.1244,-2.1086,-2.0991,-2.0991,-2.139,-2.1432,-2.1178,-2.1296,-2.1525,-0.4021,-0.4078,-0.4357,-0.5645,-0.6123,-0.6637,-0.791,-0.862,-0.9101,-0.9343,-0.9765,-1.014,-1.0221,-1.0526,-1.1188,-1.2465,-1.3031,-1.3726,-1.4903,-1.5264,-1.541,-1.541,-1.541,-1.5635,-1.6222,-1.6543,-1.6882,-1.7344,-1.7773,-1.8269,-1.8911,-1.8944,-1.9332,-2.0204,-2.0236,-2.0655,-2.1522,-2.1522,-2.2255,-2.3623,-2.3846,-2.4211,-2.4727,-2.4953,-2.5204,-2.5491,-2.6036,-2.6012,-2.5509,-2.4849,-2.4571,-2.4522,-2.3688,-2.3465,-2.3599,-2.3691,-2.3803,-2.3892,-2.3349,-2.3048,-2.2851,-2.2481,-2.2037,-2.1574,-2.1207,-2.0889,-2.0665,-2.078,-2.0813,-2.0797,-2.0781,-2.0781,-2.0733,-2.0602,-2.0684,-2.0846,-2.11,-2.107,-2.107,-2.1302,-2.1165,-2.0926,-2.0666,-2.0699,-2.0684,-2.0436,-2.1398,-2.2261,-2.2561,-2.2591,-2.2591,-2.2591,-2.2591,-2.2483,-2.2177,-2.215,-2.193,-2.1409,-2.1363,-2.1241,-2.1007,-2.0878,-2.0813,-2.0813,-2.0698,-2.0644,-2.0631,-2.1128,-2.12,-2.0895,-2.1122,-2.1318,-0.3843,-0.3994,-0.4371,-0.515,-0.5438,-0.5733,-0.6502,-0.7689,-0.8627,-0.8639,-0.9424,-1.0207,-1.0526,-1.097,-1.1391,-1.1781,-1.3144,-1.4183,-1.4243,-1.4903,-1.541,-1.541,-1.541,-1.5722,-1.6599,-1.6697,-1.6882,-1.7344,-1.7773,-1.8008,-1.8042,-1.8042,-1.8428,-1.9299,-1.9332,-1.9748,-2.0623,-2.0655,-2.1101,-2.197,-2.2694,-2.3059,-2.3089,-2.3803,-2.4603,-2.5398,-2.5425,-2.5444,-2.5445,-2.4786,-2.4542,-2.4485,-2.3204,-2.3076,-2.353,-2.295,-2.3113,-2.3608,-2.3593,-2.3188,-2.2766,-2.315,-2.2121,-2.0805,-2.1178,-2.0556,-1.9836,-2.021,-2.0331,-2.0316,-2.0238,-2.0223,-2.0088,-1.9562,-1.9852,-2.0239,-2.0239,-2.0635,-2.0991,-2.1007,-2.1023,-2.0715,-1.9798,-1.998,-1.9917,-1.9001,-1.9235,-1.989,-2.0927,-2.1071,-2.1071,-2.1071,-2.1071,-2.1071,-2.1055,-2.1055,-2.1039,-2.1007,-2.1007,-2.1007,-2.0991,-2.0566,-2.0331,-2.0331,-1.9945,-1.9738,-1.9726,-1.9755,-1.98,-1.9863,-2.0514,-2.0826,-0.4194,-0.4243,-0.4398,-0.5237,-0.5468,-0.5873,-0.7328,-0.7998,-0.8522,-0.9198,-0.9607,-0.986,-0.999,-1.0287,-1.0732,-1.1361,-1.2103,-1.2779,-1.3334,-1.4348,-1.5067,-1.5067,-1.5789,-1.6482,-1.7109,-1.6872,0.0,-1.7744,-1.7357,-1.707,-1.707,-1.707,-1.7198,-1.7487,-1.8104,-1.8987,-2.011,-2.0143,-2.073,-2.1922,-2.2411,-2.2214,-2.1463,-2.2765,-2.3521,-2.3826,-2.4332,-2.4887,-2.5391,-2.4694,-2.4247,-2.3854,-2.2961,-2.2513,-2.2317,-2.2109,-2.2156,-2.2455,-2.3319,-2.346,-2.3263,-2.2994,-2.2511,-2.1974,-2.165,-2.099,-2.0318,-2.0106,-1.9715,-1.9276,-1.8903,-1.8806,-1.8769,-1.8584,-1.8693,-1.8698,-1.8298,-1.8341,-1.8365,-1.7968,-1.7882,-1.7779,-1.7464,-1.7517,-1.7629,-1.7725,-1.8691,-1.9665,-2.0373,-2.0471,-2.0619,-2.0959,-2.0991,-2.0878,-2.0566,-2.0533,-2.0265,-1.9654,-1.9618,-1.9459,-1.91,-1.8914,-1.8835,-1.8835,-1.9068,-1.9162,-1.9169,-2.0026,-2.044,-2.0474,-2.0199,-2.0072,-0.4307,-0.4291,-0.4373,-0.5037,-0.5202,-0.5526,-0.6755,-0.7467,-0.8057,-0.8714,-0.9211,-0.9559,-0.9666,-0.9753,-1.0014,-1.0743,-1.1403,-1.1996,-1.2617,-1.3756,-1.4542,-1.4542,-1.5218,-1.5998,-1.6779,-1.6309,0.0,-1.7419,-1.6957,-1.6454,-1.6105,-1.6562,-1.6819,-1.6819,-1.7872,-1.8864,-1.9675,-1.9685,-2.0275,-2.1424,-2.1543,-2.1315,-2.0837,-2.1396,-2.1832,-2.2183,-2.265,-2.3306,-2.4021,-2.3345,-2.3096,-2.3065,-2.2121,-2.1756,-2.1673,-2.1448,-2.152,-2.1815,-2.2651,-2.2913,-2.2863,-2.2462,-2.2351,-2.2229,-2.1572,-2.1064,-2.0589,-2.0017,-1.9552,-1.905,-1.8317,-1.8133,-1.8038,-1.7618,-1.7666,-1.7653,-1.7047,-1.7055,-1.7029,-1.6422,-1.6304,-1.6253,-1.6052,-1.5849,-1.5852,-1.6255,-1.7114,-1.8142,-1.9301,-1.9456,-1.9581,-1.9926,-1.9961,-1.9838,-1.9534,-1.9516,-1.9259,-1.865,-1.8612,-1.8458,-1.8125,-1.8279,-1.8383,-1.8383,-1.8948,-1.9076,-1.8826,-1.9651,-1.9917,-1.9653,-1.9177,-1.8958,-0.4204,-0.421,-0.4311,-0.4619,-0.4697,-0.4738,-0.4904,-0.6122,-0.724,-0.7318,-0.8274,-0.9243,-0.9586,-0.9432,-0.9417,-0.9997,-1.1034,-1.1844,-1.2106,-1.3157,-1.3883,0.0,0.0,-1.4497,-1.5755,-1.5095,0.0,-1.642,0.0,-1.6079,-1.5213,-1.6383,-1.7063,-1.7063,-1.8474,-1.9224,-1.9243,-1.9346,-1.9763,-2.0563,-2.0149,-2.0354,-2.103,-1.9852,-1.977,-2.0526,-2.0526,-2.0948,-2.1583,-2.0958,-2.1276,-2.2044,-2.0778,-2.0811,-2.1541,-2.0959,-2.1129,-2.1643,-2.1615,-2.1649,-2.1697,-2.1697,-2.1707,-2.159,-2.1009,-2.0792,-2.0578,-1.9976,-1.9778,-1.951,-1.8473,-1.8197,-1.7935,-1.6831,-1.6956,-1.7107,-1.6522,-1.6761,-1.6899,-1.632,-1.62,-1.6019,-1.5531,-1.5028,-1.4707,-1.4707,-1.4753,-1.5545,-1.7679,-1.7993,-1.8013,-1.8052,-1.8072,-1.8106,-1.8106,-1.8106,-1.81,-1.8108,-1.8108,-1.8082,-1.8049,-1.8536,-1.878,-1.8759,-1.9328,-1.9295,-1.861,-1.8635,-1.8297,-1.7605,-1.755,-1.755,-0.4379,-0.449,-0.4596,-0.467,-0.4775,-0.4989,-0.5459,-0.5901,-0.6458,-0.7395,-0.7864,-0.828,-0.8903,-0.9325,-0.9686,-1.003,-1.073,0.0,-1.1566,-1.2684,0.0,-1.3443,-1.4473,-1.5284,-1.5627,-1.5622,0.0,0.0,-1.4911,-1.4805,-1.4759,-1.5079,-1.524,-1.524,-1.7116,-1.8257,-1.856,-1.9678,-2.0182,-2.0071,-2.0627,-2.0287,-1.9267,-1.9592,-1.9681,-1.9628,-1.9628,-2.0096,-2.0864,-2.0708,-2.053,-2.0326,-1.9971,-2.0151,-2.052,-1.9949,-2.0282,-2.0901,-2.0437,-2.0915,-2.1697,-2.1697,-2.1694,-2.1676,-2.1513,-2.1134,-2.0647,-2.01,-1.9585,-1.9054,-1.8374,-1.8187,-1.8126,-1.7838,-1.7449,-1.699,-1.6393,-1.5945,-1.543,-1.4795,-1.4668,-1.4628,-1.4471,-1.4756,-1.5005,-1.5005,-1.5386,-1.5782,-1.6126,-1.6566,-1.6977,-1.7396,-1.784,-1.8106,-1.8106,-1.8106,-1.8119,-1.8158,-1.8163,-1.7926,-1.7375,-1.75,-1.7301,-1.6763,-1.727,-1.7484,-1.7289,-1.7694,-1.7786,-1.7578,-1.7034,-1.6793,-0.4549,-0.4655,-0.4721,-0.485,-0.4901,-0.5002,-0.5393,-0.5655,-0.6058,-0.6954,-0.7423,-0.788,-0.8508,-0.8991,-0.9439,-0.986,-1.0421,-1.0949,-1.1335,-1.2242,-1.2928,-1.3063,-1.3859,-1.4576,-1.5098,-1.4912,-1.4777,0.0,-1.4519,-1.4269,-1.3992,-1.4553,-1.4902,-1.4902,-1.6602,-1.7847,-1.8584,-1.9926,-2.0478,-2.0195,-2.0316,-1.9839,-1.8906,-1.9028,-1.8954,-1.8721,0.0,-1.9011,-1.9464,-1.9464,-1.934,-1.9186,-1.9186,-1.9354,-1.9598,-1.9281,-1.9504,-1.9841,-1.9332,-1.9613,-2.0232,-2.0358,-2.058,-2.0703,-2.0104,-2.0092,-2.0192,-1.961,-1.9384,-1.9158,-1.8302,-1.8069,-1.7922,-1.7363,-1.6924,-1.6441,-1.5858,-1.5382,-1.4793,-1.3773,-1.3295,-1.3041,-1.3041,-1.3358,-1.36,-1.36,-1.4205,-1.4579,-1.437,-1.5459,-1.6345,-1.6628,-1.6978,-1.7178,-1.7178,-1.7178,-1.7195,-1.7222,-1.7223,-1.7051,-1.6617,-1.6848,-1.676,-1.6362,-1.6893,-1.6976,-1.6662,-1.696,-1.695,-1.6602,-1.6197,-1.6007,-0.4653,-0.4718,-0.4809,-0.5036,-0.5009,-0.4941,-0.5049,-0.5408,-0.5858,-0.6319,-0.7074,-0.7802,-0.8343,-0.8671,-0.9058,-0.9646,-1.0231,-1.0807,-1.1362,-1.1924,-1.2371,-1.2744,-1.2817,-1.326,-1.4372,-1.3763,-1.3782,-1.4867,-1.4706,-1.4166,-1.3367,-1.447,-1.5204,-1.5358,-1.6483,-1.7617,-1.8758,-1.9835,-2.0372,-2.0304,-1.9689,-1.9307,-1.918,-1.8428,-1.8057,-1.8008,-1.8008,-1.8008,-1.8008,-1.8008,-1.8175,-1.8422,-1.8422,-1.8638,-1.8948,-1.8882,-1.892,-1.8944,-1.8525,-1.8342,-1.8322,-1.8503,-1.8955,-1.9193,-1.7965,-1.8466,-1.9297,-1.8729,-1.9006,-1.9261,-1.8156,-1.7857,-1.7585,-1.6482,-1.6126,-1.5931,-1.539,-1.5216,-1.4717,-1.3351,-1.2612,-1.2127,-1.1902,-1.1958,-1.2015,-1.1902,-1.2481,-1.2908,-1.2908,-1.4645,-1.5887,-1.5887,-1.5938,-1.5989,-1.5989,-1.5989,-1.6036,-1.6103,-1.6114,-1.6085,-1.6074,-1.6508,-1.6702,-1.6622,-1.6972,-1.6817,-1.6197,-1.6083,-1.5767,-1.5235,-1.5138,-1.5196,-0.4684,-0.4867,-0.5036,-0.5086,-0.5079,-0.5036,-0.4945,-0.518,-0.5616,-0.6404,-0.6997,-0.7645,-0.856,-0.8944,-0.9331,-0.9947,-1.0365,-1.0881,-1.1712,-1.1913,-1.2181,-1.2723,-1.3012,-1.328,-1.373,-1.387,0.0,0.0,-1.4205,-1.4136,-1.3935,-1.4184,-1.4691,-1.5614,-1.5872,-1.6519,-1.7585,-1.8709,-1.907,-1.8693,-1.9449,-1.9434,-1.8705,-1.8559,-1.8305,-1.8008,-1.8008,0.0,-1.8008,-1.8008,-1.8027,-1.8093,-1.8093,-1.8558,-1.9167,-1.8723,-1.9004,-1.9474,-1.8955,-1.8592,-1.8237,-1.79,-1.7868,-1.7911,-1.7677,-1.7759,-1.795,-1.7813,-1.7868,-1.7938,-1.7711,-1.7635,-1.7585,-1.7371,-1.6868,-1.6381,-1.628,-1.5784,-1.509,-1.4152,-1.4386,-1.4357,-1.299,-1.3318,-1.3525,-1.287,-1.2879,-1.2969,-1.2969,-1.4311,-1.5263,-1.5263,-1.5694,-1.5989,-1.5989,-1.5989,-1.6192,-1.6643,-1.6666,-1.6589,-1.6426,-1.6493,-1.6282,-1.5657,-1.5071,-1.4728,-1.459,-1.3927,-1.3867,-1.4392,-1.3734,-1.4124,-0.4789,-0.4935,-0.5117,-0.523,-0.5135,-0.4972,-0.4904,-0.5164,-0.5598,-0.6243,-0.7001,-0.7724,-0.8455,-0.8818,-0.9131,-0.9564,-0.9913,-1.0439,-1.1323,-1.1543,-1.1977,-1.2918,-1.312,-1.3387,-1.3834,-1.4001,-1.4088,-1.4088,-1.4088,-1.4088,-1.4088,-1.4088,-1.4328,-1.4852,-1.5421,-1.5944,-1.6478,-1.7416,-1.7783,-1.7562,-1.7694,-1.7569,-1.7153,-1.7424,-1.7429,-1.7285,-1.7794,-1.7716,-1.732,-1.7794,-1.7716,-1.732,-1.7794,-1.8269,-1.86,-1.8321,-1.8494,-1.8738,-1.828,-1.7989,-1.7718,-1.7038,-1.6928,-1.695,-1.6585,-1.6726,-1.7034,-1.7034,-1.7302,-1.7523,-1.7146,-1.7034,-1.6922,-1.6557,-1.6169,-1.5921,-1.5921,-1.4972,-1.4025,-1.3636,-1.3205,-1.2657,-1.188,-1.2058,-1.2212,-1.1818,-1.212,-1.2389,-1.2389,-1.3336,-1.4176,-1.458,-1.5265,-1.5529,-1.5097,-1.5069,-1.4982,-1.4839,-1.482,-1.4783,-1.468,-1.4689,-1.4512,-1.4154,-1.3756,-1.3575,-1.3575,-1.3191,-1.3191,-1.3584,-1.3191,-1.3394,-0.4877,-0.4992,-0.5137,-0.5354,-0.5138,-0.4887,-0.4887,-0.5277,-0.577,-0.6207,-0.7106,-0.7967,-0.8421,-0.8651,-0.8898,-0.9164,-0.9492,-0.9987,-1.0868,-1.1296,-1.1937,-1.308,-1.3267,-1.3507,-1.4035,-1.4088,0.0,-1.4088,-1.4088,-1.4088,-1.4088,-1.4088,-1.4088,-1.4088,-1.4936,-1.5379,-1.5379,-1.6195,-1.661,-1.6497,-1.6157,-1.5914,-1.5756,-1.6182,-1.636,-1.6349,-1.7079,-1.6966,-1.6358,-1.7113,-1.6966,-1.6358,-1.7113,-1.751,-1.7681,-1.7681,-1.7828,-1.7959,-1.7637,-1.7461,-1.7298,-1.6604,-1.6397,-1.6302,-1.5614,-1.5806,-1.6236,-1.6054,-1.6422,-1.6733,-1.6159,-1.6026,-1.5911,-1.5497,-1.541,-1.5352,-1.5167,-1.4273,-1.3373,-1.2848,-1.1996,-1.1202,-1.0688,-1.0744,-1.0807,-1.0624,-1.1139,-1.1531,-1.1531,-1.2235,-1.3,-1.3627,-1.4421,-1.4628,-1.3995,-1.3936,-1.3666,-1.3039,-1.3009,-1.3009,-1.3009,-1.3009,-1.3009,-1.3009,-1.2826,-1.2726,-1.2726,-1.2581,-1.2581,-1.2726,-1.2581,-1.2673,-0.4877,-0.4992,-0.5137,-0.5354,-0.5138,-0.4887,-0.4887,-0.555,-0.6219,-0.6518,-0.7497,-0.8433,-0.8724,-0.8791,-0.8898,-0.9164,-0.9492,-0.9987,-1.0868,-1.1476,-1.2171,-1.31,-1.34,-1.3686,-1.4055,-1.4088,-1.4088,-1.4088,-1.4088,-1.4088,-1.4088,-1.4088,-1.4088,-1.4088,-1.4208,-1.425,-1.425,-1.5309,-1.5624,-1.5298,-1.6166,-1.625,-1.5618,-1.5658,-1.5577,-1.534,-1.5411,-1.5411,0.0,-1.5411,-1.5411,-1.534,-1.5411,-1.5974,-1.674,-1.674,-1.7285,-1.8008,-1.7969,-1.7705,-1.7406,-1.7318,-1.6752,-1.6048,-1.5557,-1.5439,-1.5342,-1.4628,-1.4462,-1.4501,-1.4442,-1.4412,-1.4569,-1.5235,-1.541,-1.5196,-1.4481,-1.4785,-1.4531,-1.2351,-1.2962,-1.3174,-1.0989,-1.1202,-1.1437,-1.0713,-1.0649,-1.0713,-1.0713,-1.1413,-1.1958,-1.2012,-1.2757,-1.3183,-1.313,-1.31,-1.307,-1.3009,-1.3009,-1.3009,-1.3009,-1.3009,-1.3009,-1.3009,-1.2297,-1.1919,-1.1919,-1.117,-1.1202,-1.1888,-1.117,-1.16,-0.4877,-0.4992,-0.5137,-0.5354,-0.5138,-0.4887,-0.4887,-0.5709,-0.6473,-0.6568,-0.77,-0.8671,-0.8784,-0.8804,-0.8844,-0.8938,-0.9078,-0.9399,-1.0107,-1.0555,-1.1276,-1.2518,-1.2926,-1.3367,0.0,0.0,-1.4088,-1.4088,-1.4088,-1.4088,-1.4088,-1.4088,-1.4088,-1.4088,-1.4088,-1.4088,-1.4088,-1.431,-1.435,-1.4191,-1.4475,-1.4331,-1.3931,-1.4485,-1.4597,-1.4314,-1.495,-1.4843,0.0,-1.495,-1.4843,-1.4343,-1.495,-1.5755,-1.6602,-1.6602,-1.6853,-1.7173,-1.7173,-1.6684,-1.6032,-1.5767,-1.54,-1.5224,-1.5693,-1.5831,-1.5593,-1.4515,-1.4213,-1.4094,-1.3606,-1.3485,-1.3545,-1.3876,-1.3965,-1.3885,-1.3554,-1.3356,-1.2954,-1.1981,-1.1927,-1.1725,-1.0776,-1.0863,-1.0958,-1.0656,-1.0593,-1.0593,-1.0593,-1.0863,-1.1076,-1.1076,-1.2243,-1.2787,-1.2328,-1.2297,-1.2081,-1.1608,-1.1577,-1.1577,-1.1577,-1.1577,-1.132,-1.0766,-1.0458,-1.004,-0.9514,-0.9709,-0.997,-1.0307,-1.0485,-1.0926,-0.4799,-0.4925,-0.5036,-0.5192,-0.5223,-0.5176,-0.5176,-0.6067,-0.6912,-0.6912,-0.791,-0.8804,-0.8804,-0.8804,-0.8804,-0.8804,-0.8878,-0.9138,-0.9726,-1.0134,-1.0822,-1.2031,0.0,-1.2971,-1.3748,-1.3988,-1.4088,-1.4088,-1.4088,-1.4088,-1.4088,-1.4088,-1.4088,-1.4088,-1.4088,-1.4088,-1.4088,-1.3881,-1.3733,-1.3733,-1.3567,-1.3307,-1.3045,-1.3645,-1.3728,-1.3484,-1.4065,-1.3947,0.0,-1.4055,-1.3918,-1.3346,-1.4055,-1.4906,-1.5755,-1.5755,-1.593,-1.6184,-1.6184,-1.5755,-1.5157,-1.4823,-1.4714,-1.4831,-1.5455,-1.5467,-1.5053,-1.3931,-1.3562,-1.3356,-1.2787,-1.2818,-1.3009,-1.3009,-1.3009,-1.2917,-1.2704,-1.2389,-1.202,-1.1531,-1.1163,-1.0863,-1.0656,-1.0593,-1.0593,-1.0593,-1.0593,-1.0593,-1.0593,-1.0593,-1.0593,-1.0593,-1.1608,-1.2058,-1.15,-1.1437,-1.1195,-1.0656,-1.0593,-1.0466,-1.0238,-1.046,-1.0072,-0.8941,-0.9172,-0.8877,-0.7994,-0.8877,-0.9306,-0.9306,-0.9919,-1.0085,-0.4613,-0.4694,-0.4731,-0.4887,-0.5362,-0.5805,-0.5805,-0.6771,-0.7696,-0.7696,-0.8289,-0.8804,-0.8804,-0.8804,-0.8804,-0.8804,-0.9024,-0.9411,-0.9997,-1.0615,-1.1202,0.0,-1.2131,-1.2545,-1.316,-1.3748,-1.4088,-1.4088,-1.4088,0.0,-1.4088,-1.4088,-1.4088,-1.4088,-1.4088,-1.4088,-1.4088,-1.4082,-1.4082,-1.4082,-1.4082,-1.3921,-1.3586,-1.334,-1.3079,-1.2802,-1.2462,-1.2335,0.0,-1.2342,-1.2335,-1.2335,-1.2342,-1.2915,-1.3745,-1.3745,-1.4343,-1.5199,-1.5199,-1.5199,-1.5199,-1.519,-1.519,-1.5124,-1.4648,-1.4007,-1.3251,-1.2436,-1.2011,-1.1834,-1.1795,-1.2389,-1.3009,-1.3009,-1.3009,-1.2787,-1.1981,-1.242,-1.252,-1.0926,-1.1257,-1.1531,-1.0744,-1.0593,-1.0593,-1.0593,-1.0593,-1.0593,-1.0593,-1.0593,-1.0593,-1.0593,-1.0624,-1.0624,-1.0624,-1.0624,-1.0624,-1.0593,-1.0593,-1.0206,-0.9338,-1.0142,-0.9779,-0.8059,-0.8877,-0.8877,-0.7994,-0.8877,-0.9306,-0.9306,-0.9306,-0.8914,-0.6089,-0.6197,-0.6247,-0.636,-0.6463,-0.6563,-0.6563,-0.7158,-0.7696,-0.7696,-0.8289,-0.8804,-0.8804,-0.8804,-0.8871,-0.9044,-0.9151,-0.9351,-0.9766,-1.0494,-1.1209,-1.1832,-1.2846,-1.3601,0.0,0.0,-1.4088,-1.4088,-1.3901,-1.374,-1.374,-1.3594,-1.3667,-1.4075,-1.4088,-1.4088,-1.4088,-1.4088,-1.4088,-1.4088,-1.4088,-1.3928,-1.3593,-1.3307,-1.3039,-1.277,-1.2432,-1.2305,-1.2305,-1.2305,-1.2305,-1.2305,-1.2305,-1.2879,-1.3709,-1.3709,-1.389,-1.4171,-1.4171,-1.3738,-1.3237,-1.3237,-1.3237,-1.3179,-1.3042,-1.3553,-1.3873,-1.2573,-1.162,-1.0989,-1.0989,-1.117,-1.1358,-1.1358,-1.1358,-1.1296,-1.1021,-1.117,-1.1209,-1.0713,-1.0807,-1.0895,-1.0656,-1.0593,-1.0593,-1.0593,-1.0593,-1.0593,-1.0593,-1.0593,-1.0593,-1.0593,-1.0079,-0.9951,-1.0561,-1.0047,-0.9722,-0.9722,-0.9166,-0.871,-0.842,-0.8672,-0.828,-0.7144,-0.7479,-0.7223,-0.6358,-0.7327,-0.8108,-0.8685,-0.8685,-0.855,-0.664,-0.6719,-0.6819,-0.6902,-0.7059,-0.7201,-0.7201,-0.7672,-0.8103,-0.8103,-0.848,-0.8804,-0.8804,-0.8804,-0.8864,-0.9024,-0.9051,-0.9231,-0.9773,0.0,0.0,-1.1973,-1.2635,0.0,0.0,-1.3195,-1.3365,-1.3365,-1.3494,-1.36,-1.36,-1.3367,-1.338,-1.3748,-1.3754,-1.3808,-1.3915,-1.3921,-1.3975,-1.4088,-1.4088,-1.3928,-1.3593,-1.3307,-1.3039,-1.277,-1.2432,-1.2305,0.0,-1.2305,-1.2305,-1.2305,-1.2305,-1.2666,-1.3171,-1.3171,-1.3171,-1.3171,-1.3171,-1.2806,-1.2305,-1.2305,-1.2305,-1.2305,-1.2305,-1.287,-1.3275,-1.2091,-1.127,-1.0727,-1.062,-1.0593,-1.0593,-1.0593,-1.0593,-1.0593,-1.0593,-1.0593,-1.0593,-1.0593,-1.0593,-1.0593,-1.0593,-1.0593,-1.0593,-1.0593,-1.0593,-1.0593,-1.0593,-1.0593,-1.0593,-1.0593,-0.9872,-0.9604,-1.0128,-0.9353,-0.8941,-0.9268,-0.8484,-0.7859,-0.7535,-0.7832,-0.7447,-0.6301,-0.6679,-0.6498,-0.5671,-0.6639,-0.7393,-0.792,-0.7954,-0.7812,0.0,-0.6519,-0.673,-0.6745,-0.7262,-0.7777,-0.7777,-0.8315,0.0,-0.8804,-0.8804,-0.8811,-0.8831,-0.8824,-0.8824,-0.8864,-0.8871,-0.9158,-0.997,-1.0378,0.0,0.0,-1.1637,0.0,-1.1247,-1.1704,-1.1976,-1.2064,-1.2921,-1.3458,-1.354,-1.3267,-1.3146,-1.3146,-1.3146,-1.33,-1.3573,-1.3593,-1.374,-1.4055,-1.4055,-1.3908,-1.3593,-1.332,-1.3019,0.0,-1.2432,-1.2305,-1.2305,-1.2305,-1.2305,-1.2305,-1.2305,-1.2305,-1.2305,-1.2305,-1.2305,-1.2305,-1.2305,-1.2305,-1.2305,-1.2305,-1.2305,-1.2305,-1.2305,-1.2098,-1.1792,-1.1209,-1.1022,-1.0929,-1.0693,-1.0606,-1.0593,-1.0593,-1.0593,-1.0593,-1.0593,-1.0593,-1.0593,-1.0593,-1.0593,-1.06,-1.062,-1.0626,-1.0595,-1.0551,-1.0621,-1.0615,-1.0524,-1.0608,-1.0615,-1.0524,-0.9876,-0.9427,-0.9427,-0.8504,-0.8279,-0.9072,-0.8317,-0.7461,-0.6642,-0.741,-0.7147,-0.5638,-0.6429,-0.6514,-0.5833,-0.6658,-0.7048,-0.7052,-0.7175,-0.6812,-0.7511,0.0,-0.803,-0.8238,-0.8401,-0.8533,0.0,-0.8672,-0.8804,-0.8804,-0.8804,-0.8878,-0.9071,-0.8931,-0.8951,-0.9406,-0.9479,-0.9626,-1.0053,-1.0392,0.0,-1.3094,-1.1694,-1.0947,-1.1782,-1.1142,-1.0976,-1.1751,-1.1766,-1.2128,-1.2953,-1.2672,-1.2518,-1.2518,-1.2518,-1.2772,-1.3307,-1.3493,-1.3633,-1.3706,-1.3706,-1.3666,-1.3586,-1.31,-1.2851,-1.277,-1.2432,-1.2305,-1.2305,-1.2305,-1.2305,-1.2305,-1.2305,-1.2305,-1.2305,-1.2305,-1.2305,-1.2305,-1.2305,-1.2305,-1.2305,-1.2305,-1.2305,-1.2305,-1.2305,-1.2098,-1.1873,-1.1739,-1.1377,-1.0982,-1.0909,-1.076,-1.0593,-1.0593,-1.0593,-1.0593,-1.0593,-1.0593,-1.0593,-1.0593,-1.0593,-1.0667,-1.0888,-1.0928,-1.0699,-1.0153,-1.0704,-1.0868,-0.9877,-1.0603,-1.0828,-0.9871,-0.9196,-0.8786,-0.8677,-0.7723,-0.7241,-0.7443,-0.6645,-0.6075,-0.587,-0.6155,-0.6131,-0.5749,-0.6042,-0.6219,-0.619,-0.6381,-0.6491,-0.6491,-0.6527,-0.643,-0.7635,-0.806,-0.8469,-0.8738,-0.8804,-0.8804,-0.8804,-0.8804,-0.8804,-0.8804,-0.8804,-0.8851,-0.8984,-0.8998,-0.9084,-0.9432,-0.9593,-0.9927,0.0,0.0,-1.1883,-1.2631,-1.1144,-1.0141,0.0,-0.9671,-0.9527,-1.0046,-1.0763,-1.1465,-1.2049,-1.1778,-1.162,-1.162,-1.1174,-1.1342,-1.2277,-1.2428,-1.2327,-1.2038,-1.2038,-1.2221,-1.2498,-1.2188,-1.2247,-1.2569,-1.2371,-1.2305,-1.2305,-1.2305,-1.2305,-1.2305,-1.2305,-1.2305,-1.2305,-1.2305,-1.1996,-1.1694,-1.215,-1.1996,-1.1545,-1.1062,-1.1248,-1.162,-1.162,-1.1812,-1.2074,-1.194,-1.1672,-1.1363,-1.1229,-1.1076,-1.0955,-1.0955,-1.0955,-1.0955,-1.0955,-1.0955,-1.0955,-1.0955,-1.0955,-1.1009,-1.1169,-1.1189,-1.104,-1.0663,-1.1039,-1.0981,-0.9826,-1.0281,-1.0277,-0.9104,-0.8388,-0.7983,-0.7906,-0.7036,-0.6632,-0.6968,-0.6172,-0.5688,-0.5688,-0.5762,-0.5833,-0.5905,-0.6057,-0.6176,-0.63,-0.63,-0.63,-0.63,-0.63,-0.63,-0.7464,-0.7966,-0.8456,-0.8684,-0.8778,-0.8804,-0.8804,-0.8804,-0.8804,-0.8804,-0.8804,-0.8824,-0.8864,-0.9044,-0.9244,-0.9331,-0.9514,0.0,-1.0887,-1.1579,-1.1843,-1.1448,-1.0098,0.0,-0.8251,-0.8032,-0.7976,-0.8133,-0.973,-1.0821,-1.113,-1.0799,-1.0634,-1.0783,-0.982,-0.9731,-1.0661,-1.0861,-1.0673,-1.0109,-1.0109,-1.041,-1.0956,-1.0916,-1.1241,-1.1848,-1.1996,0.0,-1.207,-1.207,-1.207,-1.2077,-1.1885,-1.1848,-1.1848,-1.1848,-1.1316,-1.0677,-1.1545,-1.1279,-1.0415,-0.9561,-0.9965,-1.0783,-1.0783,-1.1502,-1.2251,-1.204,-1.194,-1.1846,-1.1557,-1.1422,-1.1389,-1.1389,-1.1389,-1.1389,-1.1389,-1.1389,-1.1389,-1.1389,-1.1389,-1.1368,-1.1276,-1.1242,-1.1158,-1.0877,-1.0994,-1.069,-0.9659,-0.9687,-0.9411,-0.8351,-0.7706,-0.7311,-0.7162,-0.6469,-0.6303,-0.6925,-0.6245,-0.5847,-0.5871,-0.5871,-0.5932,-0.6061,-0.6231,-0.63,-0.63,-0.63,-0.6222,-0.6064,-0.6064,-0.5983,-0.7686,-0.811,-0.8409,-0.8456,-0.8624,-0.8804,-0.8804,-0.8804,-0.8804,-0.8804,-0.8804,-0.8858,-0.9098,-0.9184,-0.9377,-0.987,0.0,-0.9461,0.0,0.0,-0.8807,-0.9886,0.0,-0.7302,-0.8137,-0.7219,-0.6948,-0.7786,-0.8128,-0.9075,-1.0773,-1.0024,-0.9927,-1.0783,-0.982,-0.8975,-0.832,-0.9378,-0.9875,-0.9793,-0.9793,-0.9817,-0.9933,-0.9701,-0.9673,-0.9825,0.0,-1.1013,-1.1013,-1.1013,-1.1013,-1.0938,-1.0083,-0.975,-0.975,-0.975,-0.9674,-0.9561,-0.9712,-0.9674,-0.9523,-0.9334,-0.9965,-1.0783,-1.0783,-1.1502,-1.2291,-1.2245,-1.2094,-1.1893,-1.1852,-1.1617,-1.1389,-1.1389,-1.1389,-1.1389,-1.1389,-1.1389,-1.1389,-1.1389,-1.1389,-1.122,-1.0634,-1.0563,-1.0058,-0.8566,-0.9083,-0.9156,-0.786,-0.8699,-0.8891,-0.7604,-0.7618,-0.7397,-0.6528,-0.6339,-0.629,-0.6419,-0.6143,-0.6054,-0.6224,-0.6228,-0.6238,-0.6265,-0.6286,-0.63,-0.63,-0.63,-0.5825,-0.496,-0.496,-0.4453,-0.7339,-0.7759,-0.8176,-0.8362,-0.8858,-0.9239,-0.9051,-0.9165,-0.9279,-0.9279,-0.9279,-0.9172,-0.8836,-0.8887,-0.9016,-0.9076,0.0,-0.9064,-0.8839,-0.8622,-0.857,0.0,0.0,-0.7211,-0.7176,-0.6645,-0.649,-0.6949,-0.748,-0.8199,-0.9135,-0.8727,-0.8689,-0.9173,-0.8199,-0.7442,-0.6984,-0.7557,-0.787,-0.787,-0.787,-0.8138,-0.8676,-0.8545,-0.877,-0.9334,0.0,-1.0002,-1.0002,-1.0002,-1.0002,-0.9933,-0.9485,-0.9296,-0.9221,-0.8689,-0.8841,-0.9145,-0.8046,-0.805,-0.8389,-0.7859,-0.8347,-0.9173,-0.9173,-0.989,-1.0689,-1.0689,-1.1384,-1.2104,-1.2104,-1.1997,-1.1897,-1.1897,-1.1897,-1.1897,-1.1897,-1.1897,-1.1897,-1.1897,-1.1897,-1.1794,-1.1484,-1.0979,-1.0353,-0.9535,-0.9367,-0.8878,-0.7731,-0.8098,-0.8049,-0.687,-0.6896,-0.6795,-0.6338,-0.63,-0.63,-0.63,-0.6231,-0.6186,-0.6296,-0.63,-0.63,-0.63,-0.63,-0.6025,-0.5431,-0.5431,-0.4882,-0.3826,-0.3826,-0.3552,-0.7086,-0.7569,-0.809,-0.8342,-0.8958,-0.9459,-0.9337,-0.9519,-0.9641,-0.9467,-0.9479,-0.9267,-0.8569,-0.8736,0.0,-0.804,-0.8277,-0.8471,-0.825,-0.8435,-0.8313,-0.7557,-0.7442,-0.7138,-0.6377,-0.63,-0.63,-0.63,-0.7022,-0.7557,-0.7783,-0.7595,-0.7553,-0.7783,-0.6834,-0.63,-0.63,-0.63,-0.63,-0.63,-0.63,-0.6718,-0.7442,-0.7442,-0.7859,-0.8613,-0.8841,-0.8955,-0.8955,-0.8955,-0.8955,-0.8917,-0.8689,-0.858,-0.8504,-0.7744,-0.7931,-0.8389,-0.6834,-0.6795,-0.7326,-0.6567,-0.6984,-0.7783,-0.7783,-0.8504,-0.9296,-0.9296,-1.0426,-1.1663,-1.1885,-1.2114,-1.2305,-1.2305,-1.2305,-1.2305,-1.2305,-1.2305,-1.2224,-1.1996,-1.1959,-1.1811,-1.1323,-1.0602,-1.0034,-0.9771,-0.9102,-0.8313,-0.7557,-0.7442,-0.7138,-0.6377,-0.63,-0.63,-0.63,-0.63,-0.63,-0.63,-0.63,-0.63,-0.63,-0.63,-0.63,-0.63,-0.6064,-0.5512,-0.4688,-0.4453,-0.3789,-0.2735,-0.2735,-0.2618,-0.7383,-0.7906,-0.8375,-0.8395,-0.8624,-0.9005,-0.9532,-0.9666,-0.9519,-0.8823,-0.8772,-0.8803,-0.8619,-0.9052,-0.8962,-0.7412,-0.7553,-0.7532,-0.6623,0.0,-0.649,-0.6416,-0.6412,-0.6377,-0.63,-0.63,-0.63,-0.63,-0.6377,-0.6834,-0.7744,-0.6911,-0.6834,-0.7783,-0.6834,-0.63,-0.63,-0.63,-0.63,-0.63,-0.63,-0.6338,-0.6412,-0.6412,-0.6451,-0.6567,-0.7518,-0.7897,-0.7897,-0.7897,-0.7897,-0.7821,-0.6872,-0.6528,-0.649,-0.6451,-0.6451,-0.649,-0.6338,-0.6338,-0.6412,-0.6338,-0.6984,-0.7783,-0.7783,-0.8504,-0.9296,-0.9296,-0.941,-0.9744,-1.0677,-1.1583,-1.2305,-1.2305,-1.2305,-1.2305,-1.2305,-1.2305,-1.2033,-1.1087,-1.0901,-1.0335,-0.8461,-0.8046,-0.7706,-0.6756,-0.6567,-0.649,-0.6416,-0.6412,-0.6377,-0.63,-0.63,-0.63,-0.63,-0.63,-0.63,-0.63,-0.63,-0.63,-0.63,-0.63,-0.63,-0.63,-0.5315,-0.4766,-0.4688,-0.3709,-0.2696,-0.1724,-0.1724,-0.1176,-0.7161,-0.7792,-0.8402,-0.8402,-0.8731,-0.9158,-0.9593,-0.9468,-0.9257,-0.9163,-0.8838,-0.8361,0.0,0.0,-0.6901,-0.6378,-0.6526,-0.6598,-0.6325,-0.63,-0.63,-0.63,-0.63,-0.63,-0.63,-0.63,-0.63,-0.63,-0.63,-0.6451,-0.6834,-0.649,-0.649,-0.6872,-0.649,-0.63,-0.63,-0.63,-0.63,-0.63,-0.63,-0.63,-0.63,-0.63,-0.63,-0.6338,-0.6718,-0.6872,-0.6872,-0.6872,-0.6872,-0.6834,-0.6451,-0.63,-0.63,-0.63,-0.63,-0.63,-0.63,-0.63,-0.63,-0.63,-0.6567,-0.6872,-0.6872,-0.7138,-0.7442,-0.7442,-0.7897,-0.8613,-0.9593,-1.0158,-1.0571,-1.1205,-1.1354,-1.1354,-1.1354,-1.1354,-1.1056,-1.0045,-0.9857,-0.9631,-0.8879,-0.8199,-0.7668,-0.7288,-0.6718,-0.63,-0.63,-0.63,-0.63,-0.63,-0.63,-0.63,-0.63,-0.63,-0.63,-0.63,-0.63,-0.63,-0.63,-0.567,-0.5315,-0.5315,-0.4256,-0.3398,-0.2778,-0.2347,-0.1644,-0.0588,-0.0588,-0.0392,-0.7161,-0.7779,-0.8422,-0.8516,-0.8878,-0.9227,-0.9398,-0.9192,-0.8955,-0.8776,-0.8339,-0.7698,-0.6739,0.0,0.0,0.0,-0.6003,-0.6139,-0.6286,-0.63,-0.63,-0.63,-0.63,-0.63,-0.63,-0.63,-0.6279,-0.6193,-0.6272,-0.6279,-0.6228,-0.6272,-0.63,-0.63,-0.63,-0.63,-0.63,-0.63,-0.63,-0.63,-0.63,-0.63,-0.63,-0.63,-0.63,-0.63,-0.63,-0.63,-0.63,-0.63,-0.63,-0.63,-0.63,-0.63,-0.63,-0.63,-0.63,-0.63,-0.63,-0.63,-0.63,-0.63,-0.63,-0.63,-0.63,-0.63,-0.63,-0.63,-0.6795,-0.748,-0.8161,-0.8808,-0.9485,-1.0153,-1.034,-1.034,-1.034,-1.034,-1.004,-0.9031,-0.8846,-0.8727,-0.8389,-0.7783,-0.7326,-0.7326,-0.6756,-0.63,-0.63,-0.63,-0.63,-0.63,-0.5983,-0.5944,-0.6261,-0.567,-0.5431,-0.5786,-0.5473,-0.5431,-0.5786,-0.4766,-0.4178,-0.4178,-0.3164,-0.2268,-0.1607,-0.1254,-0.0706,0.0,0.0,0.0,-0.7513,-0.7933,-0.8469,-0.8731,-0.8998,-0.9104,-0.8836,-0.89,-0.8641,-0.7355,-0.7082,-0.6833,-0.5943,-0.6512,0.0,-0.6111,-0.6156,-0.6296,-0.6296,-0.6296,-0.6296,-0.6296,-0.6296,-0.6296,-0.6296,-0.6296,-0.6231,-0.6,-0.6169,-0.6228,-0.6,-0.6176,-0.6296,-0.63,-0.63,-0.63,-0.63,-0.63,-0.63,-0.63,-0.63,-0.63,-0.63,-0.63,-0.63,-0.63,-0.63,-0.63,-0.63,-0.63,-0.63,-0.63,-0.6261,-0.6261,-0.6261,-0.6261,-0.6261,-0.6261,-0.63,-0.6261,-0.6261,-0.63,-0.63,-0.63,-0.63,-0.63,-0.63,-0.63,-0.63,-0.63,-0.63,-0.7783,-0.9258,-0.9296,-0.9296,-0.9296,-0.9296,-0.9296,-0.8993,-0.797,-0.7783,-0.748,-0.649,-0.63,-0.63,-0.63,-0.63,-0.63,-0.63,-0.63,-0.63,-0.63,-0.5354,-0.5118,-0.6183,-0.4334,-0.3552,-0.4608,-0.3669,-0.3552,-0.4647,-0.3671,-0.3085,-0.3085,-0.2113,-0.1568,-0.1568,-0.051,0.0,0.0,0.0,0.0039,-0.7513,-0.7933,-0.831,-0.797,-0.8269,-0.8334,-0.7214,-0.7541,-0.7769,-0.656,-0.6237,-0.6122,-0.5979,-0.6089,0.0,-0.5897,-0.5908,-0.5939,-0.5939,-0.5939,-0.5939,-0.5939,-0.5939,-0.5939,-0.5939,-0.5939,-0.5918,-0.5874,-0.5911,-0.5966,-0.599,-0.6074,-0.6149,-0.6296,-0.63,-0.63,-0.63,-0.63,-0.63,-0.63,-0.63,-0.63,-0.63,-0.63,-0.63,-0.63,-0.63,-0.63,-0.6257,-0.5473,-0.5157,-0.5118,-0.4334,-0.4062,-0.4062,-0.4062,-0.4062,-0.4139,-0.4921,-0.4686,-0.4295,-0.5825,-0.5786,-0.5315,-0.606,-0.63,-0.63,-0.63,-0.63,-0.6141,-0.5354,-0.6167,-0.7365,-0.8089,-0.8237,-0.8237,-0.8237,-0.8237,-0.7936,-0.6945,-0.6756,-0.6644,-0.6338,-0.63,-0.63,-0.63,-0.63,-0.63,-0.63,-0.63,-0.63,-0.63,-0.5354,-0.4844,-0.5157,-0.3904,-0.324,-0.3552,-0.262,-0.2503,-0.3515,-0.2581,-0.2035,-0.2035,-0.1019,-0.0471,-0.0471,-0.0157,0.0392,0.1137,0.1137,0.1488,-0.7353,-0.7598,-0.7753,-0.7478,-0.7739,-0.7755,-0.6664,-0.6637,-0.6691,-0.6049,-0.582,-0.5762,-0.5911,-0.5817,0.0,-0.5793,-0.58,-0.58,-0.58,-0.58,-0.58,-0.58,-0.58,-0.58,-0.58,-0.58,-0.5779,-0.5722,-0.5769,-0.5817,-0.5854,-0.5929,-0.6071,-0.6166,-0.6269,-0.63,-0.63,-0.63,-0.63,-0.63,-0.63,-0.6064,-0.567,-0.6103,-0.63,-0.6261,-0.5867,-0.567,-0.5589,-0.4491,-0.4062,-0.3982,-0.3357,-0.3085,-0.3085,-0.3085,-0.3085,-0.3202,-0.3826,-0.3632,-0.3318,-0.4608,-0.4608,-0.4178,-0.4844,-0.504,-0.504,-0.504,-0.504,-0.4882,-0.4217,-0.453,-0.527,-0.6311,-0.658,-0.658,-0.658,-0.6227,-0.5764,-0.5154,-0.5354,-0.567,-0.567,-0.6025,-0.63,-0.63,-0.5944,-0.567,-0.567,-0.5276,-0.504,-0.504,-0.4103,-0.3634,-0.4021,-0.2696,-0.1876,-0.1872,-0.0899,-0.043,-0.0623,-0.043,-0.0313,-0.0313,0.0705,0.1214,0.1214,0.1214,0.1566,0.219,0.219,0.2501,-0.7091,-0.7058,-0.6906,-0.714,-0.7233,-0.7174,-0.6681,-0.6064,-0.561,-0.5752,0.0,-0.5633,-0.5776,-0.5694,-0.5647,-0.5762,-0.5783,-0.5776,-0.5762,-0.5762,-0.5762,-0.5762,-0.5762,-0.5762,-0.5762,-0.5762,-0.5708,-0.5579,-0.5688,-0.5711,-0.5596,-0.5844,-0.5963,-0.5993,-0.6166,-0.6286,-0.63,-0.6222,-0.6141,-0.6141,-0.6064,-0.5512,-0.4608,-0.567,-0.6103,-0.5944,-0.496,-0.4569,-0.4491,-0.3398,-0.2968,-0.2968,-0.2851,-0.2812,-0.2812,-0.2812,-0.2812,-0.2851,-0.2929,-0.289,-0.2851,-0.3046,-0.3046,-0.2968,-0.3085,-0.3085,-0.3085,-0.3085,-0.3085,-0.3085,-0.2968,-0.3046,-0.3318,-0.4217,-0.4491,-0.4569,-0.4569,-0.3787,-0.3085,-0.3085,-0.3904,-0.4569,-0.4686,-0.5431,-0.6022,-0.6022,-0.5196,-0.4569,-0.4569,-0.3709,-0.3085,-0.3085,-0.219,-0.1957,-0.289,-0.1057,0.0157,0.0156,0.1134,0.2152,0.3046,0.2231,0.1723,0.1723,0.2618,0.3085,0.3085,0.3085,0.3163,0.324,0.324,0.3279,-0.681,-0.6721,-0.6466,-0.632,-0.608,-0.5807,-0.5712,-0.5549,-0.5487,-0.5603,-0.561,-0.5633,-0.5776,-0.5776,-0.5728,-0.5647,-0.5637,-0.5593,-0.5508,-0.5491,-0.5491,-0.5491,-0.5491,-0.5491,-0.5491,-0.5491,-0.5477,-0.5446,-0.5474,-0.5528,-0.5586,-0.565,-0.5789,-0.5986,-0.6023,-0.6139,-0.6296,-0.5473,-0.504,-0.504,-0.4178,-0.3669,-0.3474,-0.4569,-0.4569,-0.3787,-0.3552,-0.3435,-0.3357,-0.2347,-0.1919,-0.184,-0.0979,-0.0666,-0.0666,-0.0666,-0.0666,-0.0784,-0.1645,-0.1371,-0.094,-0.2578,-0.2579,-0.2074,-0.2851,-0.3085,-0.3085,-0.3085,-0.3085,-0.2929,-0.2113,-0.2501,-0.2968,-0.2387,-0.2854,-0.3435,-0.3435,-0.3279,-0.3085,-0.3085,-0.3279,-0.3709,-0.4569,-0.4178,-0.3787,-0.3787,-0.3593,-0.3435,-0.3435,-0.324,-0.3085,-0.3085,-0.219,-0.1685,-0.1919,0.0039,0.1254,0.1252,0.2228,0.289,0.3085,0.289,0.2773,0.2773,0.3007,0.3085,0.3085,0.3085,0.3552,0.4373,0.4373,0.4805,-0.5975,-0.5802,-0.5493,-0.5555,-0.5478,-0.5395,-0.5395,-0.5395,-0.5419,-0.5498,-0.5515,-0.5539,-0.5614,-0.5624,-0.56,-0.5528,-0.5515,-0.5487,-0.5405,-0.5395,-0.5395,-0.5395,-0.5395,-0.5395,-0.5395,-0.5395,-0.5395,-0.5395,-0.5395,-0.5429,-0.5511,-0.5549,-0.5444,-0.5139,-0.5693,-0.5604,-0.4766,-0.4727,-0.4453,-0.3943,-0.3357,-0.2851,-0.2425,-0.3476,-0.3632,-0.3085,-0.2579,-0.2386,-0.2308,-0.1254,-0.0824,-0.0784,-0.0236,0.0,0.0,0.0,0.0,-0.0079,-0.0628,-0.0471,-0.0196,-0.1253,-0.1254,-0.0941,-0.1448,-0.1604,-0.1604,-0.1604,-0.1604,-0.1488,-0.098,-0.1214,-0.1488,-0.0941,-0.1644,-0.2386,-0.2386,-0.1995,-0.1604,-0.1604,-0.2034,-0.2542,-0.3127,-0.3164,-0.3085,-0.3085,-0.2696,-0.2386,-0.2386,-0.1917,-0.1408,-0.0899,-0.0391,0.0117,0.0625,0.168,0.2542,0.3051,0.3593,0.41,0.4608,0.4647,0.4375,0.3865,0.4373,0.4647,0.4647,0.4647,0.4924,0.5473,0.5473,0.5747,-0.4993,-0.4797,-0.4538,-0.4982,-0.5226,-0.5361,-0.5388,-0.5395,-0.5395,-0.5395,-0.5395,-0.5395,-0.5395,-0.5395,-0.5395,-0.5395,-0.5395,-0.5395,-0.5395,-0.5395,-0.5395,-0.5395,-0.5395,-0.5395,-0.5395,-0.5395,-0.5395,-0.5395,-0.5395,-0.5329,-0.516,-0.5274,-0.4914,-0.3999,-0.493,-0.4702,-0.3123,-0.3795,-0.3728,-0.2834,-0.265,-0.2112,-0.1333,-0.2189,-0.2578,-0.25,-0.1684,-0.1333,-0.1254,-0.0353,0.0,0.0,0.0,0.0,0.0,0.0,0.0,0.0,0.0,0.0,0.0,0.0,0.0,0.0,0.0,0.0,0.0,0.0,0.0,0.0,0.0,0.0,0.0,0.0,-0.0667,-0.1333,-0.1333,-0.0628,0.0,0.0,-0.0863,-0.1528,-0.1372,-0.2151,-0.2773,-0.2578,-0.184,-0.1254,-0.1058,-0.0275,0.0667,0.1762,0.1841,0.219,0.3046,0.3279,0.3748,0.4647,0.4882,0.5392,0.6261,0.63,0.5867,0.5002,0.5867,0.63,0.63,0.63,0.63,0.63,0.63,0.63,-0.4287,-0.4289,-0.4385,-0.4958,-0.5113,-0.5196,-0.5365,-0.5395,-0.5395,0.0,-0.5395,-0.5395,-0.5395,-0.5395,-0.5395,-0.5395,-0.5395,-0.5395,-0.5395,-0.5395,-0.5395,-0.5395,-0.5395,-0.5395,-0.5395,-0.5395,-0.5395,-0.5395,-0.5395,-0.5057,-0.4217,-0.4197,-0.3852,-0.3085,-0.3238,-0.325,-0.3118,-0.2363,-0.1934,-0.1784,-0.0854,-0.0353,-0.0236,-0.0353,-0.0431,-0.0392,-0.0275,-0.0196,-0.0196,-0.0079,0.0,0.0,0.0,0.0,0.0,0.0,0.0,0.0,0.0,0.0,0.0,0.0,0.0,0.0,0.0,0.0,0.0,0.0,0.0,0.0,0.0,0.0,0.0,0.0,-0.0118,-0.0196,-0.0196,-0.0118,0.0,0.0,-0.0863,-0.1293,-0.0392,-0.1097,-0.1488,-0.0549,-0.0314,0.0118,0.1058,0.1293,0.1762,0.2773,0.289,0.2968,0.3085,0.3943,0.453,0.4686,0.5589,0.6141,0.63,0.63,0.6219,0.6103,0.6219,0.63,0.63,0.63,0.63,0.63,0.63,0.63,-0.3936,-0.4171,-0.445,-0.4799,-0.4918,-0.5019,-0.5199,-0.5233,-0.5257,-0.5378,-0.5395,-0.5395,-0.5395,-0.5395,-0.5395,-0.5395,-0.5395,-0.5226,-0.4686,-0.4619,-0.4417,-0.3949,-0.3882,-0.4084,-0.4553,-0.4184,-0.4084,-0.4586,-0.4151,-0.3713,-0.3278,-0.328,-0.2883,-0.2023,-0.2583,-0.2404,-0.1381,-0.1507,-0.1304,-0.0681,-0.0233,0.0,0.0,0.0,0.0,0.0,0.0,0.0,0.0,0.0,0.0,0.0,0.0,0.0,0.0,0.0,0.0,0.0,0.0,0.0,0.0,0.0,0.0,0.0,0.0,0.0,0.0,0.0,0.0,0.0,0.0,0.0,0.0,0.0,0.0,0.0,0.0,0.0,0.0,0.0,-0.0392,-0.0353,0.0706,0.0509,0.0548,0.1565,0.1721,0.1917,0.2384,0.2425,0.2852,0.3904,0.3982,0.4256,0.4844,0.5315,0.5589,0.5589,0.6025,0.63,0.63,0.63,0.63,0.63,0.63,0.63,0.63,0.63,0.63,0.63,0.63,0.63,-0.3685,-0.4006,-0.4327,-0.4593,-0.4748,-0.4897,-0.5012,-0.4911,-0.4807,0.0,-0.483,-0.4722,-0.4722,-0.4891,-0.4957,-0.4755,-0.4725,-0.4471,-0.3774,-0.3685,-0.344,-0.2787,-0.2687,-0.2958,-0.3605,-0.3078,-0.2955,-0.3611,-0.3078,-0.2611,-0.2342,-0.2344,-0.1927,-0.1003,-0.1729,-0.1468,0.0,-0.0791,-0.0803,0.0,0.0,0.0,0.0,0.0,0.0,0.0,0.0,0.0,0.0,0.0,0.0,0.0,0.0,0.0,0.0,0.0,0.0,0.0,0.0,0.0,0.0,0.0,0.0,0.0,0.0,0.0,0.0,0.0,0.0,0.0,0.0,0.0,0.0,0.0,0.0,0.0,0.0,0.0,0.0,0.0,0.0236,0.0667,0.145,0.1802,0.2231,0.2968,0.3141,0.3231,0.3508,0.3545,0.3988,0.5089,0.5154,0.5446,0.6269,0.632,0.63,0.63,0.63,0.63,0.63,0.63,0.63,0.63,0.63,0.63,0.63,0.63,0.63,0.63,0.63,0.63,-0.3447,-0.3631,-0.3785,-0.4358,-0.4617,-0.4741,-0.4894,0.0,-0.3879,-0.3884,-0.3316,-0.2845,-0.2845,-0.3513,-0.3816,-0.2978,-0.2846,-0.2827,-0.2763,-0.2765,-0.2749,-0.2718,-0.2687,-0.2715,-0.2755,-0.2731,-0.2731,-0.2772,-0.2711,-0.231,-0.1407,-0.1374,-0.0974,-0.0101,-0.0135,-0.0101,0.0,-0.0069,-0.0071,0.0,0.0,0.0,0.0,0.0,0.0,0.0,0.0,0.0,0.0,0.0,0.0,0.0,0.0,0.0,0.0,0.0,0.0,0.0,0.0,0.0,0.0,0.0,0.0,0.0,0.0,0.0,0.0,0.0,0.0,0.0,0.0,0.0,0.0,0.0,0.0,0.0,0.0,0.0,0.0,0.0,0.0824,0.1528,0.1607,0.2386,0.3046,0.3085,0.3225,0.3676,0.4688,0.4809,0.5257,0.6452,0.6387,0.6276,0.6487,0.6378,0.63,0.63,0.63,0.63,0.63,0.63,0.63,0.63,0.63,0.63,0.63,0.63,0.63,0.63,0.63,0.63,-0.2909,-0.3015,-0.3121,-0.3054,-0.3049,-0.3151,-0.3328,-0.3156,-0.3001,-0.3084,-0.2876,-0.2522,-0.1902,-0.2544,-0.306,-0.2743,-0.2711,-0.2485,-0.1879,-0.1796,-0.16,-0.1047,-0.0955,-0.1174,-0.1748,-0.1304,-0.1196,-0.1762,-0.1296,-0.0807,-0.0471,-0.0471,-0.0337,0.0,0.0,0.0,0.0,0.0,0.0,0.0,0.0,0.0,0.0036,0.0588,0.0848,0.0886,0.1488,0.1446,0.098,0.0275,0.0392,0.0941,0.0275,0.0,0.0,0.0,0.0,0.0,0.0,0.0,0.0,0.0,0.0,0.0,0.0,0.0,0.0,0.0,0.0,0.0,0.0,0.0,0.0,0.0,0.0,0.0196,0.0863,0.0471,0.0196,0.0902,0.1333,0.2036,0.3361,0.3906,0.4373,0.504,0.5196,0.5345,0.5744,0.5783,0.5959,0.6413,0.6364,0.632,0.6371,0.633,0.63,0.63,0.63,0.63,0.63,0.63,0.6606,0.7253,0.7249,0.6949,0.63,0.63,0.63,0.63,0.63,0.63,-0.2304,-0.2358,-0.2463,-0.2197,-0.2161,-0.2229,-0.2358,-0.222,-0.205,-0.2157,-0.1978,-0.1592,-0.0975,-0.1369,-0.1786,-0.1802,-0.18,-0.1579,-0.0943,-0.0872,-0.0657,-0.006,0.0,-0.024,-0.0818,-0.0344,-0.0255,-0.0805,-0.0332,0.0,0.0,0.0,0.0,0.0,0.0,0.0,0.0,0.0,0.0,0.0,0.0282,0.0425,0.0461,0.1357,0.1756,0.1793,0.2423,0.2456,0.1973,0.1278,0.1439,0.2035,0.1331,0.1058,0.1058,0.1058,0.1058,0.1058,0.1058,0.1058,0.1058,0.1058,0.1058,0.1058,0.1058,0.1058,0.1058,0.1058,0.1058,0.1058,0.1058,0.1058,0.1058,0.1058,0.1058,0.1254,0.1957,0.1293,0.0863,0.1918,0.2387,0.309,0.4453,0.5002,0.5473,0.6183,0.634,0.6371,0.6371,0.6371,0.6388,0.6443,0.6361,0.632,0.6368,0.6327,0.63,0.63,0.63,0.6451,0.6795,0.6795,0.7288,0.8275,0.8313,0.797,0.7288,0.6984,0.6641,0.63,0.63,0.63,0.0,0.0,0.0,-0.1922,-0.2035,-0.2126,-0.2139,0.0,-0.107,-0.1079,-0.0512,0.0,0.0,0.0,0.0,0.0,0.0,0.0,0.0,0.0,0.0,0.0,0.0,0.0,0.0,0.0,0.0,0.0,0.0,0.0,0.0,0.0,0.0,0.0,0.0,0.0,0.0034,0.0034,0.0067,0.0101,0.094,0.134,0.1374,0.2306,0.2752,0.2757,0.2758,0.2866,0.2974,0.2941,0.2983,0.312,0.3122,0.3085,0.3085,0.3085,0.3085,0.3085,0.3085,0.3085,0.3085,0.3085,0.3085,0.3085,0.3085,0.3085,0.3085,0.3085,0.3085,0.3085,0.3085,0.3085,0.3085,0.3085,0.3085,0.3124,0.3124,0.2386,0.1996,0.2968,0.3982,0.4727,0.4727,0.5628,0.63,0.63,0.6416,0.6504,0.6504,0.6504,0.6562,0.6671,0.647,0.6393,0.6534,0.6417,0.6377,0.6377,0.6377,0.6834,0.7821,0.7859,0.8313,0.9334,0.9334,0.9334,0.9334,0.8351,0.7326,0.6377,0.6377,0.6377,-0.1091,0.0,0.0,0.0,0.0,0.0,0.0,0.0,-0.0293,-0.0318,-0.0146,0.0,0.0,0.0,0.0,0.0,0.0,0.0,0.0,0.0,0.0,0.0,0.0,0.0,0.0,0.0,0.0,0.0,0.0,0.0,0.0,0.0,0.0,0.0,0.0,0.0303,0.094,0.094,0.1275,0.1944,0.221,0.231,0.2344,0.3238,0.3657,0.3691,0.4368,0.4732,0.4761,0.3456,0.3366,0.4036,0.3372,0.3085,0.3085,0.3085,0.3085,0.3085,0.3085,0.3085,0.3085,0.3085,0.3085,0.3085,0.3085,0.3085,0.3085,0.3085,0.3085,0.3085,0.3085,0.3085,0.3085,0.3085,0.3085,0.3318,0.41,0.4023,0.3906,0.4217,0.4491,0.496,0.5709,0.6103,0.63,0.63,0.6334,0.6358,0.6358,0.6974,0.7184,0.6494,0.7002,0.7385,0.7429,0.7393,0.7706,0.8428,0.8466,0.858,0.8879,0.8879,0.9367,1.0378,1.0378,1.0378,1.0378,0.9367,0.8732,0.8466,0.8466,0.8466,-0.056,-0.0459,-0.0443,-0.0099,0.0,0.0,0.0,0.0,0.0,0.0,0.0,0.0,0.0,0.0263,0.0461,0.0461,0.072,0.0715,0.0084,0.0,0.0,0.0,0.0,0.0,0.0,0.0,0.0,0.0,0.0,0.0,0.0,0.0331,0.0538,0.0538,0.0907,0.1375,0.1876,0.1876,0.2143,0.2711,0.3078,0.3245,0.328,0.4184,0.4586,0.4619,0.516,0.5446,0.545,0.4504,0.4514,0.5095,0.4604,0.4453,0.4453,0.4453,0.4453,0.4453,0.4453,0.4453,0.4453,0.4453,0.4453,0.4453,0.4453,0.4453,0.4453,0.4453,0.4453,0.4453,0.4453,0.4453,0.4453,0.4453,0.4453,0.4608,0.5237,0.5354,0.5354,0.5354,0.5354,0.555,0.6183,0.6644,0.6907,0.6907,0.7288,0.7557,0.7557,0.8046,0.8199,0.7629,0.8089,0.8428,0.8428,0.8428,0.8694,0.9258,0.9296,0.9485,0.9895,0.9933,1.0421,1.1391,1.1428,1.1428,1.1428,1.0415,0.9707,0.9296,0.9296,0.9296,-0.0113,0.0,0.0,0.0,0.0,0.0,0.0,0.0,0.0,0.0,0.0,0.0,0.0,0.0527,0.0973,0.0973,0.1587,0.1647,0.042,0.0252,0.0224,0.014,0.0112,0.0084,0.0,0.0,0.0,0.0,0.0091,0.0156,0.0129,0.0992,0.1441,0.1441,0.2277,0.2744,0.2845,0.2845,0.2911,0.3011,0.3782,0.4151,0.4184,0.5024,0.5395,0.5395,0.5395,0.5395,0.5419,0.5681,0.5881,0.5983,0.6231,0.63,0.63,0.63,0.63,0.63,0.63,0.63,0.63,0.63,0.63,0.63,0.63,0.63,0.63,0.63,0.63,0.63,0.63,0.63,0.63,0.63,0.63,0.63,0.63,0.63,0.63,0.63,0.63,0.63,0.63,0.7138,0.7783,0.7783,0.8656,0.9296,0.9296,0.941,0.941,0.9301,0.941,0.9485,0.9485,0.9485,0.9523,0.9636,0.9636,1.0045,1.0938,1.0975,1.1391,1.2261,1.2305,1.2305,1.2305,1.1391,1.049,0.9636,0.9636,0.9636,-0.0024,0.0,0.0,0.0,0.0,0.0,0.0,0.0,0.0,0.0,0.0,0.0,0.0,0.0106,0.0215,0.0215,0.0824,0.1424,0.173,0.1758,0.1563,0.095,0.0895,0.0643,0.0056,0.0,0.0,0.0,0.0657,0.1061,0.1061,0.1914,0.2444,0.2444,0.2611,0.3045,0.3747,0.3747,0.4115,0.4888,0.5057,0.5123,0.5126,0.5329,0.5395,0.5395,0.5395,0.5395,0.5419,0.5681,0.582,0.5874,0.619,0.63,0.63,0.63,0.63,0.63,0.63,0.63,0.63,0.63,0.63,0.63,0.63,0.63,0.63,0.63,0.63,0.63,0.63,0.63,0.63,0.63,0.63,0.63,0.63,0.63,0.63,0.63,0.63,0.63,0.63,0.7138,0.7783,0.7783,0.8656,0.9296,0.9296,1.0002,1.019,0.9372,1.0002,1.0527,1.0527,1.0527,1.087,1.1663,1.17,1.1811,1.1996,1.1996,1.2114,1.2305,1.2305,1.2305,1.2305,1.2114,1.1922,1.17,1.17,1.17,0.0,0.0,0.0,0.0,0.0,0.0,0.0,0.0,0.0,0.0,0.0,0.0099,0.0386,0.0499,0.077,0.1434,0.1912,0.2454,0.3234,0.2676,0.2063,0.1703,0.1647,0.1507,0.1146,0.109,0.109,0.109,0.1491,0.1796,0.1885,0.2743,0.3263,0.3345,0.3816,0.4251,0.4686,0.4686,0.4921,0.5395,0.5395,0.5395,0.5395,0.5395,0.5395,0.5395,0.5395,0.5395,0.5419,0.5681,0.58,0.583,0.618,0.63,0.63,0.63,0.63,0.63,0.63,0.63,0.63,0.63,0.63,0.63,0.63,0.63,0.63,0.63,0.63,0.6416,0.6911,0.7061,0.7176,0.7668,0.7783,0.7783,0.7783,0.7783,0.7783,0.7783,0.7783,0.748,0.649,0.7138,0.797,0.8466,0.9405,1.0233,1.0726,1.1242,1.1354,1.0838,1.1242,1.1545,1.1545,1.1545,1.1768,1.2268,1.2305,1.2305,1.2305,1.2305,1.2519,1.2989,1.2989,1.3237,1.373,1.373,1.3484,1.2989,1.2989,1.3273,0.0,0.0,0.0,0.0,0.011,0.0216,0.0,0.0,0.0,0.0435,0.042,0.0,0.0,0.0,0.0,0.0,0.0,0.0,0.0,0.3272,0.0,0.2452,0.2426,0.2371,0.2204,0.219,0.2161,0.2202,0.2345,0.2503,0.2705,0.3535,0.406,0.421,0.4949,0.5365,0.5395,0.5395,0.5395,0.5395,0.5395,0.5395,0.5395,0.5395,0.5395,0.5395,0.5395,0.5395,0.5416,0.565,0.5776,0.583,0.618,0.63,0.63,0.63,0.63,0.63,0.63,0.63,0.63,0.63,0.63,0.63,0.63,0.63,0.63,0.63,0.63,0.6528,0.7557,0.7783,0.8046,0.9069,0.9296,0.9296,0.9296,0.9296,0.9296,0.9296,0.9296,0.877,0.7176,0.7702,0.8647,0.9485,1.0453,1.1391,1.2187,1.2305,1.2305,1.2305,1.2305,1.2305,1.2305,1.2305,1.2305,1.2305,1.2305,1.2305,1.2305,1.2305,1.2842,1.3954,1.381,1.4207,1.5199,1.5199,1.4772,1.3991,1.3991,1.4414,0.0,0.0,0.0,0.0,0.0502,0.0966,0.0967,0.0,0.1963,0.1946,0.0,0.0,0.0,0.0,0.0,0.0,0.0,0.0,0.309,0.3583,0.3806,0.3332,0.3262,0.2982,0.2258,0.2092,0.2083,0.2199,0.2854,0.3329,0.347,0.4312,0.4851,0.4957,0.5091,0.5223,0.5392,0.5395,0.5395,0.5395,0.5395,0.5395,0.5395,0.5395,0.5395,0.5395,0.5395,0.5395,0.5405,0.5545,0.5688,0.583,0.618,0.63,0.63,0.63,0.63,0.63,0.63,0.63,0.63,0.63,0.63,0.63,0.63,0.63,0.63,0.63,0.63,0.6528,0.7557,0.7783,0.8046,0.9069,0.9296,0.9296,0.9296,0.9296,0.9296,0.9296,0.9296,0.9221,0.8993,0.9777,1.0484,1.0596,1.1502,1.2187,1.2298,1.2305,1.2305,1.2305,1.2305,1.2305,1.2305,1.2305,1.2305,1.2305,1.2305,1.2305,1.2305,1.2305,1.3164,1.4985,1.4135,1.4207,1.5199,1.5199,1.5128,1.5021,1.5021,1.5092,0.0,0.0308,0.0643,0.0643,0.1202,0.1752,0.1726,0.1989,0.2202,0.0,0.0,0.0,0.0,0.0,0.0,0.0,0.3054,0.0,0.0,0.0,0.3878,0.0,0.0,0.0,0.3561,0.3382,0.3337,0.3531,0.3727,0.3969,0.4236,0.4572,0.4894,0.5093,0.51,0.5206,0.5392,0.5395,0.5395,0.5395,0.5395,0.5395,0.5395,0.5395,0.5395,0.5395,0.5395,0.5395,0.5405,0.5562,0.5627,0.5698,0.5911,0.6143,0.63,0.63,0.63,0.63,0.63,0.63,0.63,0.63,0.63,0.63,0.63,0.63,0.63,0.63,0.63,0.6679,0.8275,0.8656,0.9069,1.0651,1.1025,1.1025,1.1025,1.1025,1.1025,1.1025,1.1025,1.1025,1.1025,1.0421,1.0115,1.0708,1.1162,1.1657,1.2224,1.2305,1.2305,1.2305,1.2305,1.2305,1.2305,1.2305,1.2305,1.2305,1.2305,1.2305,1.2305,1.2806,1.3774,1.5163,1.5332,1.5869,1.6837,1.6837,1.6837,1.6793,1.6263,1.6289,0.0616,0.1006,0.1396,0.1396,0.1952,0.2508,0.2508,0.268,0.2839,0.2828,0.0,0.0,0.0,0.0,0.29,0.3848,0.0,0.3379,0.0,0.3958,0.0,0.0,0.0,0.0,0.0,0.3862,0.394,0.4168,0.4154,0.4287,0.4641,0.4667,0.4809,0.5032,0.5079,0.5206,0.5392,0.5395,0.5395,0.5395,0.5395,0.5395,0.5395,0.5653,0.5752,0.5785,0.6013,0.6112,0.6123,0.6213,0.6294,0.6314,0.6433,0.6622,0.6814,0.637,0.6262,0.63,0.63,0.63,0.63,0.63,0.63,0.63,0.63,0.649,0.6718,0.6718,0.6911,0.7514,0.9253,0.9707,1.0158,1.1885,1.2305,1.2305,1.2305,1.2305,1.2305,1.2305,1.2305,1.2305,1.2305,1.1099,1.0383,1.1093,1.1199,1.1465,1.2224,1.2305,1.2409,1.2666,1.2666,1.2806,1.3055,1.3091,1.3091,1.3091,1.3091,1.3193,1.3477,1.3875,1.4708,1.5948,1.6393,1.707,1.8008,1.8236,1.8361,1.8327,1.7413,1.7354,0.212,0.2147,0.2174,0.2174,0.273,0.3259,0.3259,0.3871,0.4429,0.4432,0.4426,0.4422,0.4453,0.4284,0.4088,0.4018,0.3969,0.0,0.0,0.0,0.0,0.0,0.0,0.0,0.0,0.2674,0.3084,0.0,0.3796,0.4155,0.4481,0.4638,0.4762,0.4891,0.5026,0.5206,0.5392,0.5395,0.5395,0.5395,0.5395,0.5395,0.5428,0.6268,0.6654,0.6719,0.7535,0.7929,0.7929,0.7934,0.8004,0.8131,0.8136,0.8201,0.8129,0.66,0.6132,0.63,0.63,0.63,0.63,0.63,0.63,0.63,0.63,0.6984,0.7744,0.7744,0.8466,0.9448,1.0484,1.0746,1.1013,1.204,1.2305,1.2305,1.2305,1.2305,1.2305,1.2305,1.2305,1.2305,1.2305,1.2268,1.2224,1.2261,1.2261,1.2261,1.2305,1.2305,1.2666,1.3564,1.3673,1.4063,1.5021,1.5128,1.5128,1.5128,1.5128,1.5508,1.6419,1.5623,1.6018,1.7872,1.7035,1.707,1.8008,1.8854,1.9276,1.9233,1.8361,1.7974,0.2202,0.2565,0.2926,0.2982,0.3539,0.4098,0.4098,0.4294,0.4491,0.4491,0.4491,0.4491,0.4491,0.4345,0.4177,0.4127,0.3974,0.3849,0.0,0.0,0.0,0.0,0.0,0.0,0.0,0.0,0.3179,0.3874,0.3977,0.4148,0.4474,0.4638,0.4762,0.4884,0.5026,0.5206,0.5392,0.5395,0.5395,0.5395,0.5976,0.6268,0.6301,0.7177,0.7567,0.7567,0.7864,0.7994,0.7994,0.7994,0.804,0.8073,0.8073,0.8143,0.824,0.7947,0.7894,0.7974,0.8226,0.8275,0.8275,0.8275,0.8275,0.8275,0.8275,0.8542,0.8808,0.8808,0.9031,0.9523,1.0527,1.0783,1.105,1.207,1.2305,1.2305,1.2305,1.2305,1.2305,1.2305,1.2305,1.2305,1.2305,1.2305,1.2305,1.2305,1.2305,1.2305,1.2305,1.2305,1.2409,1.2732,1.331,1.3854,1.4171,1.4807,1.5199,1.5199,1.5199,1.534,1.5649,1.5974,1.6428,1.707,1.7354,1.7681,1.8008,1.8303,1.8754,1.9299,1.9011,1.8844,0.301,0.3536,0.4085,0.4143,0.4697,0.5254,0.5254,0.5254,0.5254,0.5254,0.5034,0.4924,0.5199,0.4663,0.4282,0.4477,0.4126,0.3775,0.0,0.3359,0.0,0.0,0.0,0.0,0.0,0.3001,0.3109,0.3821,0.3955,0.4148,0.0,0.4638,0.4762,0.4884,0.5026,0.5206,0.5392,0.5395,0.5395,0.5395,0.6268,0.6687,0.6752,0.7929,0.8452,0.8484,0.8807,0.8935,0.8935,0.8935,0.8935,0.8935,0.8935,0.9023,0.9153,0.8841,0.8818,0.9015,0.9208,0.9296,0.9296,0.9296,0.9296,0.9296,0.9296,0.9561,0.982,0.982,1.0083,1.0533,1.1168,1.1316,1.1502,1.215,1.2305,1.2305,1.2305,1.2305,1.2305,1.2305,1.2305,1.2305,1.2305,1.2305,1.2305,1.2305,1.2305,1.2305,1.2305,1.2305,1.2409,1.2769,1.3673,1.4494,1.5163,1.5834,1.6193,1.6193,1.6193,1.6193,1.6193,1.6793,1.7104,1.7104,1.7681,1.8008,1.8008,1.8303,1.8911,1.9748,1.9748,1.9944]},{"header":{"parameterUnit":"m.s-1","parameterCategory":1,"la1":30.6,"la2":29.2853,"lo1":-89.7004,"lo2":-87.6739,"dy":0.0162,"dx":0.0183,"nx":112,"ny":82,"refTime":"2024-09-13T18:00:00:Z","depth":0,"parameterNumber":3,"parameterNumberName":"V-component_of_WINDS"},"data":[0.0,0.0,0.0,0.0,0.0,0.0,0.0,0.0,0.0,0.0,0.0,0.0,0.0,0.0,0.0,0.0,0.0,0.0,0.0,0.0,0.0,0.0,0.0,0.0,0.0,0.0,0.0,0.0,0.0,0.0,0.0,0.0,0.0,0.0,0.0,0.0,0.0,0.0,0.0,0.0,0.0,0.0,0.0,0.0,0.0,0.0,0.0,0.0,0.0,0.0,0.0,0.0,0.0,0.0,0.0,0.0,0.0,0.0,0.0,0.0,0.0,0.0,0.0,0.0,0.0,0.0,0.0,0.0,0.0,0.0,0.0,0.0,0.0,0.0,0.0,0.0,0.0,0.0,0.0,0.0,0.0,0.0,0.0,0.0,0.0,0.0,0.0,0.0,0.0,0.0,-0.4893,-0.5803,-0.656,-0.7,-0.7,-0.696,-0.6356,-0.4962,0.0,0.0,0.0,0.0,0.0,0.0,0.0,0.0,0.0,0.0,0.0,0.0,0.0,0.0,0.0,0.0,0.0,0.0,0.0,0.0,0.0,0.0,0.0,0.0,0.0,0.0,0.0,0.0,0.0,0.0,0.0,0.0,0.0,0.0,0.0,0.0,0.0,0.0,0.0,0.0,0.0,0.0,0.0,0.0,0.0,0.0,0.0,0.0,0.0,0.0,0.0,0.0,0.0,0.0,0.0,0.0,0.0,0.0,0.0,0.0,0.0,0.0,0.0,0.0,0.0,0.0,0.0,0.0,0.0,0.0,0.0,0.0,0.0,0.0,0.0,0.0,0.0,0.0,0.0,0.0,0.0,0.0,0.0,0.0,0.0,0.0,0.0,0.0,0.0,0.0,0.0,0.0,0.0,0.0,0.0,0.0,0.0,0.0,0.0,0.0,0.0,0.0,0.0,0.0,-0.5591,-0.6687,-0.692,-0.7,-0.7,-0.6794,-0.6259,-0.5283,0.0,0.0,0.0,0.0,0.0,0.0,0.0,0.0,0.0,0.0,0.0,0.0,0.0,0.0,0.0,0.0,0.0,0.0,0.0,0.0,0.0,0.0,0.0,0.0,0.0,0.0,0.0,0.0,0.0,0.0,0.0,0.0,0.0,0.0,0.0,0.0,0.0,0.0,0.0,0.0,0.0,0.0,0.0,0.0,0.0,0.0,0.0,0.0,0.0,0.0,0.0,0.0,0.0,0.0,0.0,0.0,0.0,0.0,0.0,0.0,0.0,0.0,0.0,0.0,0.0,0.0,0.0,0.0,0.0,0.0,0.0,0.0,0.0,0.0,0.0,0.0,0.0,0.0,0.0,0.0,0.0,0.0,0.0,0.0,0.0,0.0,0.0,0.0,0.0,0.0,0.0,0.0,0.0,0.0,0.0,0.0,0.0,0.0,0.0,0.0,0.0,0.0,0.0,-0.5081,-0.5905,-0.6893,-0.7,-0.7,-0.7,-0.6754,-0.6231,-0.5353,-0.4985,0.0,0.0,0.0,0.0,0.0,0.0,0.0,0.0,0.0,0.0,0.0,0.0,0.0,0.0,0.0,0.0,0.0,0.0,0.0,0.0,0.0,0.0,0.0,0.0,0.0,0.0,0.0,0.0,0.0,0.0,0.0,0.0,0.0,0.0,0.0,0.0,0.0,0.0,0.0,0.0,0.0,0.0,0.0,0.0,0.0,0.0,0.0,0.0,0.0,0.0,0.0,0.0,0.0,0.0,0.0,0.0,0.0,0.0,0.0,0.0,0.0,0.0,0.0,0.0,0.0,0.0,0.0,0.0,0.0,0.0,0.0,0.0,0.0,0.0,0.0,0.0,0.0,0.0,0.0,0.0,0.0,0.0,0.0,0.0,0.0,0.0,0.0,0.0,0.0,0.0,0.0,0.0,0.0,0.0,0.0,0.0,0.0,0.0,0.0,0.0,0.0,0.0,-0.5456,-0.6007,-0.6813,-0.684,-0.6847,-0.6893,-0.6526,-0.5983,-0.5224,-0.4815,0.0,0.0,0.0,0.0,0.0,0.0,0.0,0.0,0.0,0.0,0.0,0.0,0.0,0.0,0.0,0.0,0.0,0.0,0.0,0.0,0.0,0.0,0.0,0.0,0.0,0.0,0.0,0.0,0.0,0.0,0.0,0.0,0.0,0.0,0.0,0.0,0.0,0.0,0.0,0.0,0.0,0.0,0.0,0.0,0.0,0.0,0.0,0.0,0.0,0.0,0.0,0.0,0.0,0.0,0.0,0.0,0.0,0.0,0.0,0.0,0.0,0.0,0.0,0.0,0.0,0.0,0.0,0.0,0.0,0.0,0.0,0.0,0.0,0.0,0.0,0.0,0.0,0.0,0.0,0.0,0.0,0.0,0.0,0.0,0.0,0.0,0.0,0.0,0.0,0.0,0.0,0.0,0.0,0.0,0.0,0.0,0.0,0.0,0.0,0.0,0.0,0.0,-0.5193,-0.5945,-0.6553,-0.6399,-0.6364,-0.6613,-0.5869,-0.523,-0.486,-0.4342,0.0,0.0,0.0,0.0,0.0,0.0,0.0,0.0,0.0,0.0,0.0,0.0,0.0,0.0,0.0,0.0,0.0,0.0,0.0,0.0,0.0,0.0,0.0,0.0,0.0,0.0,0.0,0.0,0.0,0.0,0.0,0.0,0.0,0.0,0.0,0.0,0.0,0.0,0.0,0.0,0.0,0.0,0.0,0.0,0.0,0.0,0.0,0.0,0.0,0.0,0.0,0.0,0.0,0.0,0.0,0.0,0.0,0.0,0.0,0.0,0.0,0.0,0.0,0.0,0.0,0.0,0.0,0.0,0.0,0.0,0.0,0.0,0.0,0.0,0.0,0.0,0.0,0.0,0.0,0.0,0.0,0.0,0.0,0.0,0.0,0.0,0.0,0.0,0.0,0.0,0.0,0.0,0.0,0.0,0.0,0.0,0.0,0.0,0.0,0.0,0.0,0.0,-0.4919,-0.5688,0.0,-0.6256,-0.6236,-0.635,-0.5863,-0.5328,-0.4834,0.0,0.0,0.0,0.0,0.0,0.0,0.0,0.0,0.0,0.0,0.0,0.0,0.0,0.0,0.0,0.0,0.0,0.0,0.0,0.0,0.0,0.0,0.0,0.0,0.0,0.0,0.0,0.0,0.0,0.0,0.0,0.0,0.0,0.0,0.0,0.0,0.0,0.0,0.0,0.0,0.0,0.0,0.0,0.0,0.0,0.0,0.0,0.0,0.0,0.0,0.0,0.0,0.0,0.0,0.0,0.0,0.0,0.0,0.0,0.0,0.0,0.0,0.0,0.0,0.0,0.0,0.0,0.0,0.0,0.0,0.0,0.0,0.0,0.0,0.0,0.0,0.0,0.0,0.0,0.0,0.0,0.0,0.0,0.0,0.0,0.0,0.0,0.0,0.0,0.0,0.0,0.0,0.0,0.0,0.0,0.0,0.0,0.0,0.0,0.0,0.0,0.0,-0.3782,-0.4697,-0.5487,0.0,-0.5967,-0.5954,-0.603,-0.5571,-0.5108,-0.4694,0.0,0.0,0.0,0.0,0.0,0.0,0.0,0.0,0.0,0.0,0.0,0.0,0.0,0.0,0.0,0.0,0.0,0.0,0.0,0.0,0.0,0.0,0.0,0.0,0.0,0.0,0.0,0.0,0.0,0.0,0.0,0.0,0.0,0.0,0.0,0.0,0.0,0.0,0.0,0.0,0.0,0.0,0.0,0.0,0.0,0.0,0.0,0.0,0.0,0.0,0.0,0.0,0.0,0.0,0.0,0.0,0.0,0.0,0.0,0.0,0.0,0.0,0.0,0.0,0.0,0.0,0.0,0.0,0.0,0.0,0.0,0.0,0.0,0.0,0.0,0.0,0.0,0.0,0.0,0.0,0.0,0.0,0.0,0.0,0.0,0.0,0.0,0.0,0.0,0.0,0.0,0.0,0.0,0.0,0.0,0.0,0.0,0.0,0.0,0.0,0.0,0.0,-0.3499,-0.4549,-0.5407,-0.5661,-0.5467,-0.5414,-0.5668,-0.491,-0.4409,0.0,0.0,0.0,0.0,0.0,0.0,0.0,0.0,0.0,0.0,0.0,0.0,0.0,0.0,0.0,0.0,0.0,0.0,0.0,0.0,0.0,0.0,0.0,0.0,0.0,0.0,0.0,0.0,0.0,0.0,0.0,0.0,0.0,0.0,0.0,0.0,0.0,0.0,0.0,0.0,0.0,0.0,0.0,0.0,0.0,0.0,0.0,0.0,0.0,0.0,0.0,0.0,0.0,0.0,0.0,0.0,0.0,0.0,0.0,0.0,0.0,0.0,0.0,0.0,0.0,0.0,0.0,0.0,0.0,0.0,0.0,0.0,0.0,0.0,0.0,0.0,0.0,0.0,0.0,0.0,0.0,0.0,0.0,0.0,0.0,0.0,0.0,0.0,0.0,0.0,0.0,0.0,0.0,0.0,0.0,0.0,0.0,0.0,0.0,0.0,0.0,0.0,0.0,-0.3499,-0.4549,-0.5327,-0.5414,-0.5347,-0.5333,-0.5414,-0.4962,-0.4609,-0.4416,0.0,0.0,0.0,0.0,0.0,0.0,0.0,0.0,0.0,0.0,0.0,0.0,0.0,0.0,0.0,0.0,0.0,0.0,0.0,0.0,0.0,0.0,0.0,0.0,0.0,0.0,0.0,0.0,0.0,0.0,0.0,0.0,0.0,0.0,0.0,0.0,0.0,0.0,0.0,0.0,0.0,0.0,0.0,0.0,0.0,0.0,0.0,0.0,0.0,0.0,0.0,0.0,0.0,0.0,0.0,0.0,0.0,0.0,0.0,0.0,0.0,0.0,0.0,0.0,0.0,0.0,0.0,0.0,0.0,0.0,0.0,0.0,0.0,0.0,0.0,0.0,0.0,0.0,0.0,0.0,0.0,0.0,0.0,0.0,0.0,0.0,0.0,0.0,0.0,0.0,0.0,0.0,0.0,0.0,0.0,0.0,0.0,0.0,0.0,0.0,0.0,0.0,-0.3683,-0.4725,-0.5451,-0.5451,-0.5451,-0.542,-0.5306,-0.4988,-0.4688,-0.4422,0.0,0.0,0.0,0.0,0.0,0.0,0.0,0.0,0.0,0.0,0.0,0.0,0.0,0.0,0.0,0.0,0.0,0.0,0.0,0.0,0.0,0.0,0.0,0.0,0.0,0.0,0.0,0.0,0.0,0.0,0.0,0.0,0.0,0.0,0.0,0.0,0.0,0.0,0.0,0.0,0.0,0.0,0.0,0.0,0.0,0.0,0.0,0.0,0.0,0.0,0.0,0.0,0.0,0.0,0.0,0.0,0.0,0.0,0.0,0.0,0.0,0.0,0.0,0.0,0.0,0.0,0.0,0.0,0.0,0.0,0.0,0.0,0.0,0.0,0.0,0.0,0.0,0.0,0.0,0.0,0.0,0.0,0.0,0.0,0.0,0.0,0.0,0.0,0.0,0.0,0.0,0.0,0.0,0.0,0.0,0.0,0.0,0.0,0.0,0.0,0.0,0.0,-0.3952,-0.5,-0.5708,-0.5752,-0.5752,-0.5638,-0.536,-0.5035,-0.4728,-0.4449,0.0,0.0,0.0,0.0,0.0,0.0,0.0,0.0,0.0,0.0,0.0,0.0,0.0,0.0,0.0,0.0,0.0,0.0,0.0,0.0,0.0,0.0,0.0,0.0,0.0,0.0,0.0,0.0,0.0,0.0,0.0,0.0,0.0,0.0,0.0,0.0,0.0,0.0,0.0,0.0,0.0,0.0,0.0,0.0,0.0,0.0,0.0,0.0,0.0,0.0,0.0,0.0,0.0,0.0,0.0,0.0,0.0,0.0,0.0,0.0,-0.2506,0.0,0.0,0.0,0.0,0.0,0.0,0.0,0.0,0.0,0.0,0.0,0.0,0.0,0.0,0.0,0.0,0.0,0.0,0.0,0.0,0.0,0.0,0.0,0.0,0.0,0.0,0.0,0.0,0.0,0.0,0.0,0.0,0.0,0.0,0.0,0.0,0.0,0.0,0.0,0.0,0.0,-0.3952,-0.5,-0.5798,-0.6057,-0.6095,-0.5963,-0.5645,-0.5357,-0.5057,-0.4734,-0.3795,0.0,0.0,0.0,0.0,0.0,0.0,0.0,0.0,0.0,0.0,0.0,0.0,0.0,0.0,0.0,0.0,0.0,0.0,0.0,0.0,0.0,0.0,0.0,0.0,0.0,0.0,0.0,0.0,0.0,0.0,0.0,0.0,0.0,0.0,0.0,0.0,0.0,0.0,0.0,0.0,0.0,0.0,0.0,0.0,0.0,0.0,0.0,0.0,0.0,0.0,0.0,0.0,0.0,0.0,0.0,0.0,0.0,0.0,0.0,0.0,-0.2669,0.0,0.0,0.0,0.0,0.0,0.0,0.0,0.0,0.0,0.0,0.0,0.0,0.0,0.0,0.0,0.0,0.0,0.0,0.0,0.0,0.0,0.0,0.0,0.0,0.0,0.0,0.0,0.0,0.0,0.0,0.0,0.0,0.0,0.0,0.0,0.0,0.0,0.0,0.0,0.0,-0.4236,-0.536,-0.6192,-0.6365,-0.6385,-0.6265,-0.597,-0.582,-0.5471,-0.4884,-0.4142,0.0,0.0,0.0,0.0,0.0,0.0,0.0,0.0,0.0,0.0,0.0,0.0,0.0,0.0,0.0,0.0,0.0,0.0,0.0,0.0,0.0,0.0,0.0,0.0,0.0,0.0,0.0,0.0,0.0,0.0,0.0,0.0,0.0,0.0,0.0,0.0,0.0,0.0,0.0,0.0,0.0,0.0,0.0,0.0,0.0,0.0,0.0,0.0,0.0,0.0,0.0,0.0,0.0,-0.0154,-0.0449,-0.105,-0.1685,-0.2144,-0.2434,-0.2642,-0.2906,-0.3142,-0.2654,0.0,0.0,0.0,0.0,0.0,0.0,0.0,0.0,0.0,0.0,0.0,0.0,0.0,0.0,0.0,0.0,0.0,0.0,0.0,0.0,0.0,0.0,0.0,0.0,-0.2768,-0.283,-0.2692,0.0,0.0,0.0,0.0,0.0,0.0,0.0,0.0,0.0,0.0,0.0,-0.4654,-0.5732,-0.6507,-0.666,-0.6667,-0.6527,-0.6147,-0.612,-0.575,-0.4875,-0.4383,-0.3803,0.0,0.0,0.0,0.0,0.0,0.0,0.0,0.0,0.0,0.0,0.0,0.0,0.0,0.0,0.0,0.0,0.0,0.0,0.0,0.0,0.0,0.0,0.0,0.0,0.0,0.0,0.0,0.0,0.0,0.0,0.0,0.0,0.6101,0.6412,0.0,0.0,0.0,0.0,0.0,0.0,0.0,0.0,0.0,0.0,0.0,0.0,0.0,0.3039,0.2651,0.2644,0.2367,0.1802,0.1183,0.0574,-0.0025,-0.0736,-0.1445,-0.208,-0.2101,0.0,-0.3417,-0.2042,0.0,0.0,0.0,0.0,0.0,0.0,0.0,0.0,0.0,0.0,0.0,0.0,0.0,0.0,0.0,0.0,0.0,0.0,0.0,0.0,0.0,0.0,-0.2044,-0.2424,-0.2632,-0.2829,0.0,-0.2977,-0.2679,-0.2621,-0.253,0.0,0.0,0.0,0.0,0.0,0.0,0.0,-0.5055,-0.5562,-0.6116,-0.6878,-0.6946,-0.6621,-0.5821,-0.5758,-0.5392,-0.4521,-0.4075,-0.3755,-0.3512,-0.262,0.0,0.0,0.0,0.0,0.0,0.0,0.0,0.0,0.0,0.0,0.0,0.0,0.0,0.0,0.0,0.0,0.0,0.0,0.0,0.0,0.0,0.0,0.0,0.0,0.0,0.0,0.0,0.0,0.0,0.7202,0.7842,0.7614,0.7838,0.7646,0.0,0.0,0.0,0.0,0.0,0.0,0.0,0.0,0.0,0.4868,0.4533,0.4112,0.3632,0.3322,0.2858,0.2191,0.1881,0.1589,0.1306,0.0567,0.0054,-0.0245,-0.0245,-0.0767,-0.1584,-0.1575,-0.1547,-0.1416,0.0,0.0,0.0,0.0,-0.0225,-0.0081,-0.0699,-0.0465,0.0103,-0.0021,0.0,0.0,0.0,0.0,0.0,0.0,0.0,0.0,0.0,0.0,-0.1846,-0.2049,-0.247,-0.2863,-0.3074,-0.3281,-0.331,0.0,-0.2818,-0.2764,-0.2543,0.0,0.0,0.0,0.0,-0.3926,-0.4599,-0.5146,-0.5624,-0.6,-0.6054,-0.5881,-0.5507,-0.5481,-0.5162,-0.4445,-0.4161,-0.3854,-0.3446,-0.2431,-0.1655,0.0,0.0,0.0,0.0,0.0,0.0,0.0,0.0,0.0,0.0,0.0,0.0,0.0,0.0,0.0,0.0,0.0,0.0,0.0,0.0,0.0,0.0,0.0,0.0,0.0,0.0,0.0,0.0,0.8825,0.953,0.9095,0.9499,0.9365,0.0,0.0,0.0,0.0,0.0,0.0,0.7501,0.694,0.6681,0.6847,0.6221,0.569,0.5364,0.4744,0.4113,0.3459,0.3293,0.3053,0.2728,0.2045,0.1595,0.1388,0.1388,0.1082,0.0496,-0.0417,-0.0626,-0.0365,-0.007,0.0254,0.0557,0.0575,0.057,0.049,0.0049,0.0247,0.0719,0.0704,0.102,0.1532,0.2364,0.0,0.0,0.0,0.0,-0.0147,-0.0343,-0.073,-0.1134,-0.1483,-0.1988,-0.244,-0.2593,-0.3188,-0.3614,0.0,-0.3229,-0.3185,-0.2888,0.0,0.0,0.0,0.0,-0.4023,-0.4389,-0.485,-0.5193,-0.5291,-0.5303,-0.5238,-0.5087,-0.5065,-0.4826,-0.4242,-0.3947,-0.3608,-0.317,-0.215,-0.1364,-0.0836,0.0,0.0,0.0,0.0,0.0,0.0,0.0,0.0,0.0,0.0,0.0,0.0,0.0,0.0,0.0,0.0,0.0,0.0,0.0,0.0,0.0,0.0,0.0,0.0,0.0,0.0,0.0,0.0,0.0,1.157,1.203,0.0,0.0,0.0,0.0,0.9092,0.9772,0.9816,0.8852,0.8999,0.9123,0.9126,0.8376,0.8105,0.8467,0.768,0.7134,0.6842,0.628,0.5413,0.4265,0.3735,0.2987,0.2147,0.2147,0.2119,0.2085,0.2036,0.1605,0.107,0.1772,0.2077,0.2077,0.2082,0.208,0.2078,0.206,0.206,0.2093,0.2106,0.213,0.2228,0.273,0.2534,0.0,0.0,0.2415,0.1896,0.1186,0.0975,0.0635,-0.0642,-0.0983,-0.1156,-0.1724,-0.2436,-0.3155,0.0,-0.3853,-0.3751,-0.3727,0.0,-0.3465,-0.404,-0.3847,-0.3971,-0.493,-0.4862,-0.4888,-0.5263,-0.5303,-0.5065,-0.45,-0.4452,-0.422,-0.3667,-0.3095,-0.2752,-0.273,-0.2005,-0.112,-0.0077,0.0245,0.0,0.0,0.0,0.0,0.0,0.0,0.0,0.0,0.0,0.0,0.0,0.0,0.0,0.0,0.0,0.0,0.0,0.0,0.0,0.0,0.0,0.0,0.0,0.0,0.0,0.0,0.0,0.0,1.3259,1.3778,0.0,1.246,1.2638,1.2698,1.2331,1.2781,1.2665,1.1853,1.1797,1.1587,1.1115,1.0372,1.0045,1.0187,0.9438,0.902,0.8953,0.8172,0.7496,0.6905,0.636,0.5452,0.4333,0.4566,0.4275,0.3677,0.3687,0.2952,0.1828,0.2108,0.2207,0.2207,0.2207,0.2207,0.2207,0.2207,0.2529,0.3035,0.3377,0.3499,0.343,0.3128,0.2912,0.272,0.2517,0.2338,0.2136,0.1863,0.1797,0.1696,0.121,0.0739,0.0191,-0.0484,-0.1233,-0.1956,-0.2688,-0.3436,-0.3759,-0.3186,-0.3454,-0.3788,-0.3924,-0.3893,-0.3979,-0.4356,-0.4314,-0.4301,-0.4455,-0.4471,-0.433,-0.4035,-0.3654,-0.3319,-0.3037,-0.2453,-0.2117,-0.2117,-0.112,-0.0384,0.0,0.086,0.1604,0.0,0.0,0.0,0.0,0.0,0.0,0.0,0.0,0.0,0.0,0.0,0.0,0.0,0.0,0.0,0.0,0.0,0.0,0.0,0.0,0.0,0.0,0.0,0.0,0.0,0.0,1.463,1.4636,1.5137,1.5126,1.4226,1.4783,1.5096,1.4892,1.5222,1.5129,1.4438,1.4346,1.4118,1.3762,1.3021,1.2558,1.2459,1.1714,1.1172,1.0868,1.0107,0.9398,0.8802,0.8258,0.7345,0.6183,0.6308,0.5984,0.5365,0.525,0.4611,0.3638,0.3174,0.2982,0.2982,0.2982,0.2982,0.2982,0.2982,0.3317,0.3834,0.4186,0.4294,0.4211,0.3726,0.3562,0.3498,0.3101,0.2982,0.2926,0.2649,0.2565,0.2508,0.2258,0.1836,0.1334,0.0835,0.0167,-0.0416,-0.0668,-0.2173,-0.3203,-0.2622,-0.2968,-0.3388,-0.3596,-0.3453,-0.3507,-0.3992,-0.384,-0.3669,-0.3624,-0.3642,-0.3479,-0.3147,-0.277,-0.2413,-0.2114,-0.1526,-0.109,-0.0889,0.0022,0.0645,0.0834,0.1919,0.2654,0.3008,0.0,0.0,0.0,0.0,0.0,0.0,0.0,0.0,0.0,0.0,0.0,0.0,0.0,0.0,0.0,0.0,0.0,0.0,0.0,0.0,0.0,0.0,0.0,1.4886,1.537,1.5748,1.5811,1.6181,1.6263,1.575,1.6715,1.7107,1.65,1.7021,1.7107,1.6473,1.6459,1.6636,1.7006,1.6256,1.5715,1.538,1.4585,1.3688,1.2701,1.2078,1.1114,0.9907,0.937,0.8578,0.758,0.7341,0.7219,0.7164,0.6803,0.6663,0.6522,0.512,0.457,0.457,0.457,0.4546,0.4543,0.4543,0.4515,0.4491,0.4491,0.4491,0.4491,0.4491,0.4491,0.4491,0.4491,0.4491,0.4322,0.3539,0.3345,0.3148,0.2454,0.2258,0.2258,0.2232,0.1668,0.136,0.2062,-0.0111,-0.2091,-0.2119,-0.2038,-0.2259,-0.3134,-0.2551,0.0,-0.396,-0.3509,-0.3016,-0.2883,-0.2873,-0.257,-0.1838,-0.175,-0.1494,-0.0872,-0.0273,0.0311,0.0911,0.1396,0.1937,0.2566,0.3437,0.413,0.4641,0.0,0.0,0.0,0.0,0.0,0.0,0.0,0.0,0.0,0.0,0.0,0.0,0.0,0.0,0.0,0.0,0.0,0.0,0.0,0.0,0.0,1.6977,1.7486,1.621,1.6515,1.7183,1.8063,1.7889,1.7818,1.8119,1.8422,1.835,1.775,1.8662,1.8743,1.7551,1.7852,1.7858,1.7458,1.7219,1.7071,1.6952,1.6231,1.5706,1.5396,1.4114,1.3232,1.2672,1.2148,1.1219,1.0059,1.0206,0.9841,0.9079,0.8411,0.8137,0.7989,0.6584,0.6018,0.6018,0.6018,0.5687,0.5218,0.5218,0.4893,0.4491,0.4491,0.4491,0.4491,0.4491,0.4491,0.4491,0.4491,0.4491,0.446,0.4236,0.4181,0.4125,0.3929,0.3873,0.3735,0.3178,0.2866,0.2587,0.2258,0.1532,0.064,-0.0417,-0.1021,-0.1623,-0.2393,-0.2297,0.0,-0.2697,-0.2585,-0.244,-0.2389,-0.2387,-0.2066,-0.1227,-0.0833,-0.0292,0.0496,0.1024,0.1423,0.1675,0.2238,0.3024,0.407,0.505,0.5495,0.0,0.0,0.0,0.0,0.0,0.0,0.0,0.0,0.0,0.0,0.0,0.0,0.0,0.0,0.0,0.0,0.0,0.0,0.0,0.0,0.0,0.0,1.9018,1.9609,1.8931,1.8734,1.8843,1.9365,1.9376,1.9483,1.9809,1.983,1.9675,1.9331,1.9954,1.9983,1.9132,1.9414,1.9464,1.9258,1.9003,1.8854,1.8757,1.8346,1.7975,1.7669,1.6225,1.5263,1.4732,1.39,1.3063,1.2294,1.239,1.2081,1.145,1.0838,1.0413,0.0,0.0,0.0,0.0,0.0,0.634,0.5955,0.5955,0.571,0.5391,0.5391,0.5391,0.5391,0.5391,0.5391,0.5308,0.5003,0.514,0.5308,0.5003,0.514,0.5304,0.5003,0.514,0.5167,0.4446,0.4498,0.4549,0.4131,0.4048,0.0,0.251,0.119,0.0028,-0.0694,-0.0556,-0.0584,-0.1193,-0.1,-0.0806,-0.0806,-0.0806,-0.0496,0.0324,0.0654,0.0,0.0,0.0,0.3071,0.3655,0.4008,0.0,0.0,0.0,0.0,0.0,0.0,0.0,0.0,0.7398,0.7328,0.0,0.0,0.0,0.0,0.0,0.0,0.0,0.0,0.0,0.0,0.0,0.0,0.0,0.0,0.0,0.0,2.0683,2.1601,2.2213,2.1537,2.0809,2.0352,2.0769,2.1096,2.111,2.1125,2.1086,2.1012,2.1139,2.1167,2.1063,0.0,0.0,0.0,0.0,2.0829,2.064,2.0481,2.0076,1.942,1.8196,1.7204,1.6417,1.523,1.4647,1.4593,1.4279,1.4129,1.4101,1.3735,1.3086,1.2086,0.8858,0.7588,0.7555,0.7204,0.6983,0.6826,0.6826,0.0,0.0,0.6691,0.6713,0.6713,0.6713,0.6713,0.6551,0.5842,0.6091,0.6448,0.5787,0.6118,0.6421,0.5787,0.6118,0.6421,0.576,0.6145,0.6588,0.6588,0.6588,0.6384,0.5725,0.3926,0.2334,0.1578,0.1972,0.1889,0.0662,0.0913,0.1248,0.133,0.0,0.0,0.2395,0.2508,0.3088,0.4369,0.4444,0.4962,0.61,0.6261,0.633,0.6366,0.7526,0.8338,0.8711,0.9866,1.0581,1.0755,0.9093,0.8801,0.0,0.0,0.0,0.0,0.0,0.0,0.0,0.0,0.0,0.0,0.0,0.0,0.0,0.0,0.0,2.1932,2.3047,2.376,2.3572,2.3796,2.366,2.2809,2.2414,2.2235,2.2335,2.2813,2.2921,2.2372,2.3322,2.3709,2.3137,2.3144,2.3185,2.3263,2.2591,2.2218,2.216,2.0997,2.0337,2.0192,0.0,0.0,1.8677,1.7988,1.7644,1.7611,1.7084,1.6851,1.6784,1.6064,1.5205,1.404,1.161,1.0647,1.0608,1.0156,0.9278,0.8285,0.8285,0.7561,0.6691,0.7223,0.7405,0.7405,0.7405,0.7405,0.0,0.6578,0.648,0.6561,0.6421,0.6507,0.6561,0.6421,0.6507,0.6561,0.6421,0.6507,0.6588,0.6588,0.6588,0.6556,0.6416,0.5544,0.4624,0.3875,0.3366,0.3204,0.3515,0.2629,0.2223,0.2821,0.2877,0.3179,0.3905,0.4419,0.5061,0.5934,0.5977,0.6329,0.7105,0.7797,0.8338,0.8666,0.9686,1.0148,1.0027,1.0499,1.0747,1.078,1.0434,1.036,0.0,0.0,0.0,0.0,0.0,0.0,0.0,0.0,0.0,0.0,0.0,2.0489,2.159,0.0,2.3678,2.3871,2.4405,2.4793,2.476,2.5013,2.4857,2.3922,2.3838,2.3874,2.3951,2.4292,2.441,2.4079,2.5023,2.5296,2.4586,2.4603,2.4612,2.4565,2.3904,2.3703,2.4001,2.3285,2.2721,2.2346,2.1299,2.0623,2.0233,1.9312,1.9114,1.9425,1.8846,1.8598,1.852,1.744,1.6669,1.6069,1.476,1.3474,1.2254,1.1453,1.0713,1.0072,0.9829,0.9278,0.8757,0.9101,0.9205,0.9205,0.9205,0.9205,0.9049,0.8344,0.841,0.8626,0.8246,0.8436,0.8593,0.8246,0.8436,0.8521,0.7794,0.8212,0.8606,0.8277,0.8475,0.8705,0.8705,0.841,0.7538,0.5774,0.5186,0.5078,0.5454,0.4863,0.4542,0.4918,0.4945,0.5113,0.5475,0.6112,0.6812,0.752,0.7888,0.8389,0.9073,0.9519,0.984,1.0046,1.0881,1.1221,1.1113,1.1619,1.2005,1.2288,1.2288,1.1953,0.0,0.0,0.0,0.0,0.0,0.0,0.0,1.9191,1.9502,2.1116,2.2436,2.3495,2.4139,2.5112,2.5734,2.5453,2.5409,2.5517,2.5775,2.5812,2.5531,2.4772,2.5075,2.5316,2.5221,2.555,2.5764,2.5764,2.6575,2.6802,2.6199,2.6268,2.6236,2.601,2.5396,2.5236,2.5618,2.5481,2.5091,2.4509,2.3282,2.2372,2.175,2.0482,2.0229,2.0728,2.0197,1.9908,1.972,1.8639,1.8134,1.797,1.7527,1.6079,1.4126,1.29,1.2369,1.2184,1.1815,1.1531,1.1327,1.1336,1.136,1.134,1.1224,1.1274,1.1182,1.0318,1.0519,1.0822,1.0105,1.035,1.0653,1.0054,1.0383,1.0501,0.9356,1.0008,1.0644,1.009,1.044,1.0838,1.0956,1.0889,1.0033,0.7768,0.7294,0.7267,0.74,0.7186,0.7052,0.7186,0.7213,0.7267,0.74,0.7966,0.8541,0.907,0.9662,1.0287,1.0965,1.1107,1.1258,1.1383,1.2027,1.237,1.237,1.2953,1.3491,1.398,1.4206,1.3659,1.8671,1.9135,1.9834,2.0599,2.0139,2.0214,0.0,2.3083,2.2914,2.453,2.5546,2.6174,2.6248,2.6446,2.6568,2.6527,2.6519,2.6538,2.6573,2.6573,2.6539,2.6438,2.6107,2.5726,2.524,2.6342,2.7088,2.7088,2.8333,2.9048,2.8976,2.8958,2.8731,2.8167,2.7465,2.6858,2.639,2.5728,2.537,2.5259,2.4458,2.4029,2.39,2.2564,2.2006,2.2068,2.1519,2.1034,2.0571,2.0428,2.0039,1.9463,1.8787,1.8333,1.7893,1.6397,1.5426,1.4856,1.4804,1.4099,1.3217,1.3285,1.3337,1.327,1.274,1.2946,1.3117,1.184,1.1529,1.1463,1.0847,1.0737,1.0788,1.0704,1.0737,1.0762,1.061,1.0686,1.0788,1.0686,1.0745,1.0981,1.1513,1.114,1.0686,1.0373,0.978,0.9585,1.0238,0.9243,0.8703,0.9287,0.9346,0.9611,1.0263,1.0399,1.0483,1.0551,1.0636,1.099,1.1665,1.2263,1.2846,1.345,1.4063,1.4388,1.4388,1.4468,1.4525,1.4617,1.5649,1.5728,2.1504,2.1737,2.1722,2.2344,2.2562,2.2925,2.4069,2.4358,2.4722,2.586,2.6741,2.7291,2.7291,2.7687,2.7905,0.0,2.7411,2.7224,2.6775,2.6691,2.6691,2.6691,2.6539,2.6499,2.6684,2.7659,2.847,2.89,2.9877,3.0293,2.9935,2.9913,2.9651,2.9042,2.8717,2.8266,2.7665,2.7359,2.682,2.6041,2.5728,2.537,2.4922,2.4356,2.3697,2.2889,2.2258,2.1656,2.1144,2.083,2.0541,2.0275,1.9611,1.9333,1.9143,1.7381,1.6554,1.6254,1.603,1.561,1.5121,1.48,1.4731,1.4633,1.408,1.4088,1.4181,1.3611,1.3446,1.3399,1.3148,1.3076,1.3076,1.3076,1.3076,1.297,1.2575,1.2802,1.2946,1.2575,1.2792,1.3148,1.3399,1.3233,1.3076,1.3076,1.1513,1.0434,1.0762,1.0299,1.0028,1.0299,1.0332,1.0603,1.1282,1.1332,1.1646,1.2454,1.2503,1.2802,1.3467,1.376,1.4029,1.4329,1.456,1.4698,1.4698,1.5012,1.5358,1.5707,1.6901,1.7705,2.2951,2.3278,2.3228,2.3512,2.4218,2.4771,2.4435,2.5125,2.5971,2.6569,2.729,2.786,2.8081,2.8343,2.8403,2.808,2.7865,2.753,2.6955,2.6775,2.6691,2.6691,2.6691,2.708,2.8027,2.8653,2.9314,3.004,3.0784,3.1015,3.0559,3.0539,3.0272,2.9673,2.9651,2.9361,2.8756,2.8756,2.8167,2.7056,2.6834,2.6479,2.5943,2.5727,2.5039,2.3927,2.3391,2.2711,2.198,2.1458,2.1032,2.0668,2.0232,1.9952,1.9671,1.8468,1.7937,1.772,1.7436,1.725,1.7025,1.6408,1.6121,1.5927,1.5337,1.5177,1.5152,1.4994,1.4949,1.4937,1.4926,1.4926,1.496,1.5106,1.5028,1.4801,1.4299,1.4447,1.4549,1.4066,1.4377,1.4789,1.5118,1.5039,1.5028,1.533,1.3632,1.2213,1.1901,1.1886,1.1886,1.1886,1.1886,1.2049,1.2483,1.2532,1.295,1.3903,1.3973,1.4193,1.4675,1.4858,1.4949,1.4949,1.5107,1.5345,1.5688,1.6066,1.6675,1.7455,1.8482,1.9406,2.1793,2.2797,2.402,2.3845,2.4401,2.4955,2.4806,2.5853,2.6851,2.6888,2.7368,2.8044,2.8822,2.8027,2.75,2.8268,2.7791,2.7319,2.7288,2.6955,2.6691,2.6691,2.6691,2.73,2.8824,2.8993,2.9314,3.004,3.0784,3.119,3.1171,3.1171,3.0898,3.0293,3.0272,2.9978,2.9384,2.9361,2.9042,2.8439,2.7714,2.736,2.7335,2.6611,2.5926,2.5342,2.5315,2.4571,2.3316,2.2762,2.1809,2.0682,2.0756,2.0371,1.9875,2.0484,2.027,1.9722,1.9709,1.9371,1.8809,1.8209,1.7714,1.7227,1.6546,1.6388,1.6315,1.5754,1.5565,1.5554,1.5494,1.5482,1.5624,1.6126,1.5862,1.546,1.546,1.5061,1.4698,1.4675,1.4686,1.505,1.6176,1.5857,1.5842,1.6959,1.6574,1.575,1.4721,1.4583,1.4583,1.4583,1.4583,1.4583,1.4606,1.4606,1.4629,1.4675,1.4675,1.4675,1.4698,1.5253,1.5565,1.5565,1.6151,1.7007,1.8195,1.8221,1.883,1.9994,2.0559,2.0826,2.3635,2.4062,2.4173,2.4505,2.4795,2.5063,2.5349,2.5759,2.6228,2.662,2.6849,2.709,2.7354,2.7515,2.7596,2.7597,2.7834,2.796,2.7722,2.7783,2.7823,2.7823,2.8049,2.862,2.9634,2.9297,0.0,3.0734,3.1312,3.1603,3.1603,3.1603,3.1511,3.1306,3.1044,3.0833,3.0746,3.0724,3.0661,3.0521,2.9406,2.8819,2.8678,2.7555,2.6938,2.6695,2.6208,2.5491,2.4681,2.4109,2.3364,2.2587,2.2222,2.1645,2.1086,2.1304,2.1256,2.0939,2.0093,1.9685,1.9434,1.8871,1.8598,1.8357,1.7768,1.7888,1.8094,1.7478,1.7596,1.7818,1.7359,1.7233,1.7274,1.7444,1.7356,1.7322,1.7631,1.7558,1.7504,1.7773,1.7804,1.7935,1.8323,1.8218,1.8137,1.8235,1.7127,1.6031,1.5317,1.5217,1.5084,1.4744,1.4698,1.4858,1.5253,1.5298,1.562,1.6382,1.6425,1.6583,1.6936,1.7143,1.7259,1.7259,1.7898,1.8424,1.8837,1.9636,2.0218,2.0654,2.1995,2.2637,2.4428,2.449,2.4337,2.5324,2.557,2.5722,2.6355,2.6365,2.6354,2.672,2.647,2.6264,2.6557,2.6796,2.7054,2.7361,2.7959,2.8432,2.8504,2.884,2.9087,2.9087,2.9312,2.9695,3.027,3.0038,0.0,3.1344,3.1641,3.1862,3.2039,3.2157,3.2222,3.2222,3.2076,3.2025,3.2107,3.2124,3.2056,3.1913,3.0766,3.009,2.9758,2.885,2.8324,2.8075,2.7599,2.7047,2.6387,2.5814,2.493,2.3884,2.3516,2.2677,2.172,2.1969,2.1899,2.1578,2.0756,2.0496,2.0406,2.0092,1.9687,1.9323,1.9212,1.9134,1.9074,1.8913,1.9172,1.9343,1.8885,1.8736,1.872,1.8688,1.8535,1.8521,1.8975,1.8941,1.8912,1.9313,1.9388,1.9456,1.9647,1.9836,1.9884,1.9632,1.8677,1.7596,1.6557,1.6435,1.6286,1.5956,1.5913,1.6065,1.6464,1.6485,1.6815,1.7544,1.7585,1.7747,1.8086,1.8319,1.8464,1.8464,1.9114,1.9754,2.0366,2.1119,2.1831,2.2459,2.3576,2.4102,2.4149,2.4187,2.4606,2.6197,2.664,2.6871,2.7635,2.7471,2.7137,2.7075,2.6144,2.5568,2.6337,2.5915,2.5962,2.7559,2.8191,2.8771,2.9592,3.008,3.0376,0.0,0.0,3.0564,3.0837,3.1296,0.0,3.1967,0.0,3.2162,3.2623,3.2949,3.313,3.313,3.3328,3.3465,3.3499,3.3508,3.3218,3.259,3.1858,3.1193,3.0599,3.0424,3.0011,2.9451,2.9451,2.9032,2.8318,2.7812,2.645,2.4699,2.4762,2.3626,2.2016,2.2623,2.2411,2.1833,2.1805,2.1744,2.1697,2.1697,2.0962,2.0177,2.0781,2.0166,1.94,2.002,2.0215,2.0203,2.0028,1.9989,1.9963,1.9838,1.942,1.9209,1.969,1.9409,1.9185,1.9579,1.9652,1.9826,2.0333,2.0828,2.1151,2.1151,2.1119,2.0396,1.8468,1.819,1.8171,1.8131,1.8112,1.8106,1.8106,1.8106,1.8139,1.8187,1.8187,1.824,1.8327,1.8944,1.9279,1.9299,1.9971,2.1103,2.2677,2.2707,2.3577,2.5202,2.524,2.524,2.4832,2.5466,2.6063,2.6486,2.7082,2.7421,2.6833,2.6619,2.6268,2.537,2.4942,2.4745,2.4798,2.5621,2.6612,2.7651,2.8892,0.0,3.0832,3.1297,0.0,3.1574,3.2317,3.287,3.2947,3.3596,0.0,0.0,3.4089,3.4049,3.4771,3.4888,3.4946,3.4946,3.4329,3.4246,3.4815,3.4959,3.4693,3.3989,3.3333,3.2625,3.183,3.1355,3.0744,3.0081,3.0081,2.9723,2.9116,2.8964,2.8322,2.7406,2.7425,2.6561,2.5228,2.4911,2.4387,2.3781,2.3304,2.2478,2.1697,2.1697,2.1505,2.1301,2.1466,2.1648,2.171,2.1367,2.1657,2.1919,2.1371,2.1248,2.1223,2.1211,2.1356,2.1649,2.2104,2.2406,2.2716,2.3112,2.3192,2.324,2.3385,2.3275,2.3162,2.3162,2.2864,2.1922,1.9914,1.9396,1.9063,1.8655,1.8313,1.8106,1.8106,1.8106,1.8478,1.9387,1.9435,1.9997,2.1265,2.1466,2.1751,2.2144,2.2814,2.3361,2.3796,2.4299,2.4763,2.5221,2.5615,2.5797,2.5635,2.6231,2.6774,2.7505,2.7794,2.7835,2.7583,2.6892,2.5983,2.4866,2.4567,2.4342,2.3778,2.4704,2.5933,2.709,2.8631,3.0081,3.125,3.2205,3.2924,3.3269,3.3876,3.4339,3.4518,3.513,3.5674,0.0,3.5379,3.5206,3.5863,3.6019,3.6087,3.6087,3.5704,3.5601,3.5795,3.5671,3.538,3.4979,3.3979,3.3264,3.2747,3.1746,3.1083,3.0699,0.0,3.0497,3.0187,3.0187,2.9639,2.8781,2.8781,2.803,2.6851,2.6477,2.6119,2.5741,2.5024,2.4329,2.3637,2.3061,2.2706,2.2593,2.3076,2.3164,2.3025,2.291,2.2999,2.2984,2.2551,2.2463,2.243,2.2374,2.2561,2.2891,2.3346,2.3686,2.4081,2.4656,2.4873,2.4985,2.4985,2.4795,2.4663,2.4663,2.4297,2.3616,2.2502,2.1673,2.1062,2.0764,2.0504,2.0337,2.0337,2.0337,2.0629,2.1314,2.1364,2.1775,2.2715,2.303,2.3335,2.364,2.4294,2.4758,2.4995,2.5382,2.567,2.5873,2.6175,2.6314,2.639,2.6755,2.7274,2.8742,2.8588,2.8203,2.8819,2.7501,2.5888,2.4995,2.4568,2.4101,2.3318,2.3823,2.4887,2.6502,2.8014,2.9592,3.1323,3.2761,3.399,3.4894,3.5096,3.5349,3.5797,3.6328,3.6738,3.7029,3.6399,3.6194,3.66,3.6851,3.6934,3.685,3.7131,3.7039,3.6519,3.5968,3.5644,3.5525,3.4189,3.344,3.322,3.1918,3.1275,3.119,3.119,3.119,3.119,3.119,3.0549,2.9553,2.9553,2.8837,2.7764,2.7667,2.7593,2.7435,2.6703,2.6379,2.6106,2.4892,2.4153,2.3914,2.4898,2.4505,2.383,2.4353,2.4163,2.3785,2.3661,2.3643,2.3603,2.3485,2.3518,2.3674,2.4099,2.4232,2.4493,2.5241,2.5575,2.5787,2.5891,2.5865,2.5839,2.5891,2.5661,2.5471,2.5471,2.4194,2.3279,2.3279,2.3244,2.3209,2.3209,2.3209,2.3224,2.332,2.3337,2.3404,2.3553,2.4132,2.4473,2.4527,2.5163,2.5711,2.6175,2.6245,2.6436,2.6791,2.6824,2.6791,2.6563,2.7601,2.8742,2.903,2.8992,2.8742,2.8222,2.665,2.5202,2.4872,2.4103,2.3618,2.3925,2.4658,2.5723,2.7328,2.8381,2.9794,3.2069,3.2619,3.3353,3.4839,3.5628,3.6362,3.7091,3.7851,0.0,0.0,3.8248,3.819,3.8285,3.8318,3.8148,3.7695,3.7735,3.7542,3.7076,3.6522,3.5959,3.5341,3.464,3.366,3.2479,3.2226,3.1785,3.119,3.119,0.0,3.119,3.119,3.1067,3.087,3.087,3.0432,2.9728,2.9177,2.8644,2.8137,2.7451,2.68,2.6166,2.5329,2.4992,2.4937,2.5128,2.507,2.4934,2.5031,2.4992,2.4918,2.4888,2.4895,2.4882,2.4865,2.5185,2.5528,2.5616,2.5947,2.6335,2.6828,2.6703,2.6719,2.7388,2.723,2.7128,2.7444,2.7462,2.742,2.742,2.5295,2.3786,2.3786,2.3433,2.3209,2.3209,2.3209,2.3449,2.3991,2.4023,2.4479,2.5476,2.5642,2.5869,2.6252,2.6705,2.6985,2.7082,2.7407,2.7437,2.721,2.7547,2.735,2.7159,2.8165,2.9204,2.966,2.9121,2.8376,2.7992,2.6414,2.4866,2.4248,2.402,2.3859,2.363,2.4226,2.5172,2.6366,2.7236,2.8583,3.1005,3.1715,3.2908,3.5371,3.6046,3.678,3.801,3.8469,3.8707,3.8707,3.8707,3.8707,3.8707,3.8707,3.8578,3.8316,3.8048,3.779,3.756,3.6616,3.5961,3.5612,3.454,3.3659,3.2951,3.2343,3.1852,3.1507,3.1291,3.1312,3.1488,3.1291,3.1312,3.1488,3.1291,3.1015,3.0727,3.0416,3.0105,2.977,2.9042,2.8579,2.8081,2.6939,2.6129,2.567,2.5908,2.5817,2.5615,2.5615,2.5411,2.5259,2.554,2.5615,2.5689,2.5926,2.6192,2.6367,2.6367,2.6872,2.7378,2.7574,2.7762,2.8016,2.8417,2.8321,2.8255,2.8443,2.8295,2.8156,2.8156,2.6895,2.5906,2.5704,2.528,2.5095,2.5312,2.5329,2.5562,2.6095,2.6128,2.6396,2.6966,2.6984,2.7079,2.7334,2.7515,2.7604,2.7604,2.7811,2.7811,2.7622,2.7811,2.7692,2.7659,2.8492,2.9319,3.0173,2.914,2.7895,2.7895,2.6232,2.4506,2.3894,2.3989,2.3985,2.3373,2.3768,2.4447,2.5264,2.608,2.7438,2.9861,3.1035,3.2797,3.5936,3.645,3.711,3.856,3.8707,0.0,3.8707,3.8707,3.8707,3.8707,3.8707,3.8707,3.8707,3.8283,3.8065,3.8065,3.6916,3.6238,3.6096,3.4748,3.3934,3.3598,3.2634,3.2107,3.1915,3.162,3.1658,3.1933,3.1601,3.1658,3.1933,3.1601,3.1428,3.1332,3.1332,3.1271,3.1106,3.0548,3.0243,2.9886,2.8686,2.7425,2.6409,2.664,2.6436,2.6174,2.6263,2.5965,2.5766,2.6176,2.628,2.635,2.6641,2.6691,2.6725,2.6808,2.7272,2.7725,2.795,2.8347,2.8713,2.897,2.8929,2.8905,2.8994,2.8737,2.854,2.854,2.8224,2.788,2.7557,2.7194,2.7083,2.7394,2.7424,2.756,2.7883,2.7897,2.7897,2.7897,2.7897,2.7897,2.7897,2.7982,2.8006,2.8006,2.8093,2.8093,2.8006,2.8093,2.8051,2.7659,2.8492,2.9319,3.0173,2.914,2.7895,2.7895,2.5696,2.3831,2.454,2.387,2.3327,2.3969,2.4153,2.4447,2.5264,2.608,2.7438,2.9861,3.1531,3.344,3.5991,3.6942,3.7731,3.8615,3.8707,3.8707,3.8707,3.8707,3.8707,3.8707,3.8707,3.8707,3.8707,3.8643,3.8627,3.8627,3.8009,3.7373,3.6705,3.6096,3.5049,3.3684,3.3579,3.3121,3.2434,3.2401,3.2401,0.0,3.2401,3.2401,3.2434,3.2401,3.2127,3.1734,3.1734,3.1507,3.119,3.1123,3.0666,3.0072,2.992,2.887,2.7518,2.6877,2.6674,2.6708,2.7083,2.7128,2.7129,2.7161,2.7177,2.7115,2.6791,2.6691,2.6791,2.7162,2.702,2.7114,2.8152,2.7876,2.7776,2.8815,2.8713,2.8577,2.894,2.8964,2.894,2.894,2.8608,2.8342,2.8298,2.7992,2.7794,2.784,2.7855,2.7869,2.7897,2.7897,2.7897,2.7897,2.7897,2.7897,2.7897,2.8197,2.8337,2.8337,2.8725,2.8713,2.835,2.8725,2.8533,2.7659,2.8492,2.9319,3.0173,2.914,2.7895,2.7895,2.6022,2.437,2.4728,2.4236,2.3823,2.4135,2.419,2.43,2.464,2.4942,2.5823,2.7769,2.8998,3.098,3.4394,3.5514,3.6725,0.0,0.0,3.8707,3.8707,3.8707,3.8707,3.8707,3.8707,3.8707,3.8707,3.8707,3.8707,3.8707,3.8021,3.7505,3.721,3.6513,3.5582,3.448,3.4229,3.3671,3.2921,3.2616,3.2665,0.0,3.2616,3.2665,3.2887,3.2616,3.2213,3.1807,3.1807,3.1696,3.1547,3.1547,3.1543,3.1464,3.1028,3.047,2.9639,2.7879,2.735,2.7352,2.7299,2.7303,2.7365,2.7589,2.7648,2.7619,2.7454,2.7409,2.7472,2.7636,2.7689,2.7858,2.8311,2.8355,2.8482,2.8917,2.8863,2.8827,2.8982,2.9005,2.9005,2.9005,2.8863,2.8761,2.8761,2.8242,2.7978,2.8183,2.8197,2.829,2.8551,2.8563,2.8563,2.8563,2.8563,2.8645,2.8795,2.8929,2.9056,2.9171,2.923,2.9163,2.9004,2.9003,2.8839,2.7217,2.7928,2.8563,2.9448,2.853,2.7426,2.7426,2.6021,2.4716,2.4716,2.4435,2.419,2.419,2.419,2.419,2.419,2.4392,2.5107,2.6722,2.7842,2.9732,3.3054,0.0,3.5518,3.7771,3.8432,3.8707,3.8707,3.8707,3.8707,3.8707,3.8707,3.8707,3.8707,3.8707,3.8707,3.8707,3.8138,3.786,3.786,3.7276,3.656,3.572,3.5202,3.4519,3.3691,3.3135,3.3057,0.0,3.3011,3.309,3.3346,3.3011,3.2614,3.2213,3.2213,3.2127,3.2021,3.2021,3.2213,3.2412,3.1878,3.1735,3.1357,2.9453,2.8561,2.8163,2.8017,2.7806,2.7689,2.7978,2.7964,2.7897,2.7897,2.7897,2.794,2.8037,2.8156,2.8316,2.854,2.8707,2.8863,2.8982,2.9005,2.9005,2.9005,2.9005,2.9005,2.9005,2.9005,2.9005,2.9005,2.8551,2.8321,2.8552,2.8577,2.8694,2.8982,2.9005,2.9051,2.9112,2.9033,2.9149,2.9474,2.9424,2.9494,2.9705,2.9494,2.9402,2.9402,2.9222,2.9289,2.6159,2.6621,2.6832,2.7717,2.7111,2.6321,2.6321,2.5382,2.4503,2.4503,2.433,2.419,2.419,2.419,2.419,2.419,2.4879,2.5944,2.7559,2.9163,3.0779,0.0,3.333,3.4468,3.6156,3.7771,3.8707,3.8707,3.8707,0.0,3.8707,3.8707,3.8707,3.8707,3.8707,3.8707,3.8707,3.8689,3.8689,3.8689,3.8689,3.8248,3.7456,3.6652,3.5811,3.4935,3.4124,3.3775,0.0,3.3793,3.3775,3.3775,3.3793,3.3536,3.3184,3.3184,3.2887,3.2501,3.2501,3.2501,3.2501,3.2483,3.2483,3.2341,3.1593,3.0297,2.9162,2.9476,2.8997,2.8394,2.8389,2.8156,2.7897,2.7897,2.7897,2.7978,2.8311,2.8143,2.812,2.8839,2.867,2.854,2.8929,2.9005,2.9005,2.9005,2.9005,2.9005,2.9005,2.9005,2.9005,2.9005,2.8994,2.8994,2.8994,2.8994,2.8994,2.9005,2.9005,2.9123,2.9392,2.9145,2.9228,2.9687,2.9494,2.9494,2.9705,2.9494,2.9402,2.9402,2.9402,2.9972,2.5735,2.6191,2.64,2.7276,2.679,2.6081,2.6081,2.5275,2.4503,2.4503,2.433,2.419,2.419,2.419,2.4373,2.4934,2.5227,2.5778,2.6833,2.8833,3.0797,3.2399,3.5293,3.7367,0.0,0.0,3.8707,3.8707,3.8193,3.7878,3.7878,3.7349,3.7551,3.867,3.8707,3.8707,3.8707,3.8707,3.8707,3.8707,3.8707,3.8267,3.7474,3.6684,3.5826,3.4968,3.4156,3.3807,3.3807,3.3807,3.3807,3.3807,3.3807,3.355,3.3199,3.3199,3.3124,3.2983,3.2983,3.3166,3.339,3.339,3.339,3.335,3.311,3.193,3.0531,2.98,2.9219,2.8815,2.8815,2.8725,2.8651,2.8651,2.8651,2.8676,2.8803,2.8725,2.8731,2.894,2.8905,2.8851,2.8982,2.9005,2.9005,2.9005,2.9005,2.9005,2.9005,2.9005,2.9005,2.9005,2.9167,2.9211,2.9017,2.9178,2.9267,2.9267,2.9405,2.9523,2.9607,2.9514,2.9606,2.9901,3.0422,3.0825,3.1075,3.1423,3.1492,3.1318,3.1318,3.1497,2.4568,2.5295,2.5672,2.6216,2.5891,2.5426,2.5426,2.4899,2.4393,2.4393,2.4284,2.419,2.419,2.419,2.4355,2.4879,2.4952,2.5448,2.6851,0.0,0.0,3.2784,3.568,0.0,0.0,3.805,3.8405,3.8405,3.7842,3.7492,3.7492,3.6725,3.6762,3.7771,3.779,3.7936,3.823,3.8248,3.8395,3.8707,3.8707,3.8267,3.7474,3.6684,3.5826,3.4968,3.4156,3.3807,0.0,3.3807,3.3807,3.3807,3.3807,3.3652,3.3437,3.3437,3.3437,3.3437,3.3437,3.3578,3.3807,3.3807,3.3807,3.3807,3.3807,3.2883,3.156,3.0209,2.9649,2.9372,2.9078,2.9005,2.9005,2.9005,2.9005,2.9005,2.9005,2.9005,2.9005,2.9005,2.9005,2.9005,2.9005,2.9005,2.9005,2.9005,2.9005,2.9005,2.9005,2.9005,2.9005,2.9005,2.9505,2.9779,2.9625,2.9551,2.9474,2.9394,2.9589,2.972,2.9804,2.9748,3.0008,3.0628,3.1087,3.1585,3.216,3.2453,3.251,3.2365,3.2659,3.2854,0.0,2.4014,2.4685,2.4741,2.4615,2.4478,2.4478,2.4321,0.0,2.419,2.419,2.4208,2.4263,2.4245,2.4245,2.4355,2.4373,2.5162,2.7486,2.8709,0.0,0.0,3.5032,0.0,3.5671,3.6981,3.7838,3.783,3.7525,3.7357,3.7327,3.6574,3.6119,3.6119,3.6119,3.6541,3.7419,3.7474,3.7878,3.8615,3.8615,3.8212,3.7474,3.6597,3.5771,0.0,3.4156,3.3807,3.3807,3.3807,3.3807,3.3807,3.3807,3.3807,3.3807,3.3807,3.3807,3.3807,3.3807,3.3807,3.3807,3.3807,3.3807,3.3807,3.3807,3.3238,3.2289,3.0797,3.0283,3.0026,2.928,2.9042,2.9005,2.9005,2.9005,2.9005,2.9005,2.9005,2.9005,2.9005,2.9005,2.9023,2.9078,2.9097,2.9108,2.9187,2.9182,2.9163,2.9113,2.9145,2.9163,2.9113,3.006,3.0715,3.0715,3.0152,2.9728,2.9557,2.9738,2.9924,3.0116,2.9997,3.0502,3.1769,3.1599,3.202,3.3083,3.2907,3.2806,3.2825,3.3578,3.4052,2.1892,0.0,2.3572,2.4182,2.4312,2.4266,0.0,2.4237,2.419,2.419,2.419,2.4392,2.5007,2.4622,2.4593,2.5841,2.6043,2.6447,2.7622,3.0835,0.0,3.6346,3.723,3.7558,3.7366,3.7317,3.7204,3.6987,3.6346,3.5856,3.5587,3.4816,3.4394,3.4394,3.4394,3.5092,3.656,3.7199,3.7584,3.7786,3.7786,3.7676,3.7456,3.5991,3.5188,3.4968,3.4156,3.3807,3.3807,3.3807,3.3807,3.3807,3.3807,3.3807,3.3807,3.3807,3.3807,3.3807,3.3807,3.3807,3.3807,3.3807,3.3807,3.3807,3.3807,3.3238,3.2509,3.2142,3.1152,3.0173,2.9971,2.9464,2.9005,2.9005,2.9005,2.9005,2.9005,2.9005,2.9005,2.9005,2.9005,2.9207,2.9812,2.9922,3.0212,3.1017,3.0976,3.0691,3.0286,3.0577,3.0684,3.0267,3.1172,3.1817,3.1827,3.1267,3.0901,3.0853,3.1095,3.1251,3.129,3.1852,3.2294,3.2602,3.3205,3.3967,3.4885,3.485,3.481,3.481,3.5002,3.5119,2.0978,2.207,2.3189,2.4006,2.419,2.419,2.419,2.419,2.419,2.419,2.419,2.4318,2.4768,2.4805,2.5044,2.5915,2.6355,2.7273,0.0,0.0,3.5258,3.6943,3.7174,3.7197,0.0,3.6898,3.6673,3.6534,3.5902,3.5417,3.5243,3.4448,3.3986,3.3986,3.4136,3.4779,3.5908,3.6352,3.684,3.7326,3.7326,3.706,3.6555,3.565,3.4947,3.4417,3.399,3.3807,3.3807,3.3807,3.3807,3.3807,3.3807,3.3807,3.3807,3.3807,3.3876,3.3961,3.3842,3.3876,3.4012,3.4172,3.4111,3.3986,3.3986,3.3589,3.306,3.2693,3.1959,3.1219,3.0852,3.043,3.0099,3.0099,3.0099,3.0099,3.0099,3.0099,3.0099,3.0099,3.0099,3.0246,3.0687,3.0742,3.0962,3.1527,3.1501,3.1335,3.1163,3.1407,3.1511,3.1362,3.2288,3.2933,3.2931,3.2749,3.2414,3.1924,3.2127,3.2256,3.2256,3.2679,3.3083,3.3487,3.4353,3.5026,3.55,3.55,3.55,3.55,3.55,3.55,2.0437,2.1813,2.3153,2.3859,2.4116,2.419,2.419,2.419,2.419,2.419,2.419,2.4245,2.4355,2.4934,2.5485,2.5723,2.6591,0.0,3.1285,3.3629,3.5395,3.6447,3.6257,0.0,3.6281,3.623,3.6162,3.6127,3.569,3.5394,3.5299,3.4645,3.4246,3.42,3.4529,3.494,3.5423,3.5525,3.6031,3.6922,3.6922,3.6453,3.5557,3.5427,3.4853,3.3928,3.3876,0.0,3.385,3.385,3.385,3.3868,3.3915,3.3928,3.3928,3.3928,3.4068,3.4253,3.4012,3.408,3.4334,3.4622,3.4467,3.42,3.42,3.4006,3.366,3.2968,3.2693,3.2436,3.1751,3.1488,3.1397,3.1397,3.1397,3.1397,3.1397,3.1397,3.1397,3.1397,3.1397,3.1446,3.1624,3.1636,3.1728,3.1928,3.193,3.195,3.2094,3.2187,3.2289,3.2438,3.338,3.4028,3.406,3.4278,3.4011,3.3112,3.3088,3.316,3.3295,3.3295,3.3641,3.4372,3.5115,3.55,3.55,3.55,3.5514,3.5521,3.5521,3.5515,2.1188,2.2281,2.3024,2.3153,2.3694,2.419,2.419,2.419,2.419,2.419,2.419,2.442,2.5081,2.5319,2.5852,2.721,0.0,3.0704,0.0,0.0,3.5325,3.5951,0.0,3.6503,3.6326,3.5883,3.5538,3.5304,3.5207,3.4934,3.4428,3.4531,3.4478,3.42,3.4529,3.4859,3.5162,3.5622,3.5913,3.6077,3.6077,3.601,3.5816,3.513,3.4733,3.4548,0.0,3.4147,3.4147,3.4147,3.4147,3.4171,3.4453,3.4569,3.4569,3.4569,3.4591,3.4622,3.458,3.4591,3.4632,3.4684,3.4467,3.42,3.42,3.4006,3.377,3.3642,3.3115,3.2564,3.2454,3.1916,3.1397,3.1397,3.1397,3.1397,3.1397,3.1397,3.1397,3.1397,3.1397,3.1685,3.2607,3.2753,3.3156,3.4358,3.4347,3.4024,3.3544,3.3942,3.4074,3.3604,3.4361,3.4988,3.522,3.5275,3.5224,3.5062,3.4397,3.4334,3.5077,3.5096,3.5154,3.5308,3.5423,3.55,3.55,3.55,3.5522,3.5574,3.5574,3.5621,2.0233,2.139,2.2464,2.2896,2.4253,2.5383,2.4952,2.5181,2.5493,2.5493,2.5493,2.5635,2.6124,2.656,2.7443,2.9229,0.0,3.2409,3.328,3.4264,3.5021,0.0,0.0,3.5844,3.5871,3.5636,3.5446,3.5339,3.519,3.499,3.4696,3.4841,3.4851,3.4686,3.499,3.5198,3.5312,3.5553,3.5685,3.5685,3.5685,3.5605,3.5458,3.5088,3.4851,3.4684,0.0,3.4456,3.4456,3.4456,3.4456,3.4497,3.4643,3.4694,3.4714,3.4851,3.4813,3.4734,3.5025,3.5044,3.4944,3.5088,3.4935,3.4686,3.4686,3.4489,3.4291,3.4291,3.3778,3.3256,3.3256,3.2963,3.2687,3.2687,3.2687,3.2687,3.2687,3.2687,3.2687,3.2687,3.2687,3.2849,3.3352,3.3542,3.3863,3.4528,3.4655,3.4642,3.4516,3.4732,3.4864,3.4737,3.507,3.5369,3.5493,3.55,3.55,3.55,3.5115,3.5084,3.5481,3.55,3.55,3.55,3.55,3.5528,3.5544,3.5544,3.5585,3.5655,3.5655,3.5663,1.9536,2.0794,2.2226,2.2841,2.4529,2.5988,2.5742,2.6153,2.667,2.6919,2.6956,2.7009,2.7177,2.8025,0.0,3.1087,3.2739,3.3818,3.3873,3.4471,3.4963,3.5174,3.5198,3.5281,3.5486,3.55,3.55,3.55,3.5304,3.5174,3.5105,3.5166,3.5155,3.5105,3.5361,3.55,3.55,3.55,3.55,3.55,3.55,3.5383,3.5198,3.5198,3.5088,3.487,3.4813,3.4784,3.4784,3.4784,3.4784,3.4793,3.4851,3.4898,3.4917,3.5113,3.5051,3.4944,3.5361,3.5369,3.5223,3.5432,3.5312,3.5105,3.5105,3.4917,3.4694,3.4694,3.4371,3.3992,3.3915,3.3855,3.3807,3.3807,3.3807,3.3807,3.3807,3.3807,3.3815,3.3876,3.3889,3.3941,3.4087,3.4277,3.4427,3.4502,3.4725,3.4963,3.5174,3.5198,3.5281,3.5486,3.55,3.55,3.55,3.55,3.55,3.55,3.55,3.55,3.55,3.55,3.55,3.55,3.5521,3.5552,3.5611,3.5621,3.5678,3.5755,3.5755,3.5764,2.0217,2.1648,2.2933,2.2988,2.3694,2.474,2.619,2.6557,2.688,2.7875,2.8035,2.8025,2.8082,2.9379,3.0874,3.2265,3.3895,3.5059,3.5302,0.0,3.5446,3.5479,3.546,3.5486,3.55,3.55,3.55,3.55,3.5486,3.5361,3.5113,3.5346,3.5361,3.5105,3.5361,3.55,3.55,3.55,3.55,3.55,3.55,3.5493,3.546,3.546,3.5453,3.5432,3.5182,3.5079,3.5079,3.5079,3.5079,3.5096,3.5354,3.5439,3.5446,3.5453,3.5453,3.5446,3.5493,3.5493,3.546,3.5493,3.5312,3.5105,3.5105,3.4917,3.4694,3.4694,3.4663,3.4551,3.4253,3.3999,3.3807,3.3807,3.3807,3.3807,3.3807,3.3807,3.3863,3.4123,3.4183,3.4338,3.4907,3.5025,3.5122,3.5376,3.5432,3.5446,3.5479,3.546,3.5486,3.55,3.55,3.55,3.55,3.55,3.55,3.55,3.55,3.55,3.55,3.55,3.55,3.55,3.5562,3.56,3.5611,3.5667,3.5758,3.5896,3.5896,3.5918,1.9675,2.1336,2.3006,2.3006,2.3988,2.5246,2.6355,2.7498,2.8597,2.9509,3.0198,3.0536,0.0,0.0,3.1619,3.2624,3.377,3.475,3.5416,3.55,3.55,3.55,3.55,3.55,3.55,3.55,3.55,3.55,3.55,3.5453,3.5361,3.5446,3.5446,3.5354,3.5446,3.55,3.55,3.55,3.55,3.55,3.55,3.55,3.55,3.55,3.55,3.5493,3.5383,3.5354,3.5354,3.5354,3.5354,3.5361,3.5453,3.55,3.55,3.55,3.55,3.55,3.55,3.55,3.55,3.55,3.5432,3.5354,3.5354,3.5281,3.5198,3.5198,3.5079,3.487,3.4593,3.4431,3.4307,3.4105,3.4056,3.4056,3.4056,3.4056,3.4153,3.4464,3.4518,3.4582,3.4803,3.499,3.513,3.5231,3.5383,3.55,3.55,3.55,3.55,3.55,3.55,3.55,3.55,3.55,3.55,3.55,3.55,3.55,3.55,3.5547,3.5562,3.5562,3.5626,3.5698,3.5791,3.5802,3.5861,3.5952,3.5952,3.5974,1.9675,2.13,2.3061,2.3318,2.4392,2.5698,2.6819,2.829,2.9756,3.0988,3.1816,3.2218,3.1874,0.0,0.0,0.0,3.4045,3.4814,3.5423,3.55,3.55,3.55,3.55,3.55,3.55,3.55,3.5385,3.5122,3.5346,3.5385,3.5096,3.5346,3.55,3.55,3.55,3.55,3.55,3.55,3.55,3.55,3.55,3.55,3.55,3.55,3.55,3.55,3.55,3.55,3.55,3.55,3.55,3.55,3.55,3.55,3.55,3.55,3.55,3.55,3.55,3.55,3.55,3.55,3.55,3.55,3.55,3.55,3.55,3.55,3.5369,3.519,3.4999,3.4841,3.4643,3.4412,3.4357,3.4357,3.4357,3.4357,3.4445,3.4764,3.4832,3.4841,3.4944,3.5105,3.5223,3.5223,3.5376,3.55,3.55,3.55,3.55,3.55,3.5515,3.5522,3.5507,3.5547,3.5544,3.5528,3.5558,3.5544,3.5528,3.56,3.5635,3.5635,3.5719,3.5807,3.5901,3.5916,3.597,3.5996,3.5996,3.5996,2.0503,2.1722,2.3189,2.3988,2.4805,2.5887,2.7707,2.8772,3.0011,3.2178,3.2619,3.2672,3.2865,3.2737,0.0,3.4006,3.4911,3.5481,3.5481,3.5481,3.5481,3.5481,3.5481,3.5481,3.5481,3.5481,3.5115,3.4244,3.4988,3.5096,3.4244,3.5026,3.5481,3.55,3.55,3.55,3.55,3.55,3.55,3.55,3.55,3.55,3.55,3.55,3.55,3.55,3.55,3.55,3.55,3.55,3.55,3.55,3.5507,3.5507,3.5507,3.5507,3.5507,3.5507,3.55,3.5507,3.5507,3.55,3.55,3.55,3.55,3.55,3.55,3.55,3.55,3.55,3.55,3.5105,3.4704,3.4694,3.4694,3.4694,3.4694,3.4694,3.4774,3.5043,3.5105,3.519,3.5446,3.55,3.55,3.55,3.55,3.55,3.55,3.55,3.55,3.55,3.5556,3.5571,3.552,3.5616,3.5663,3.5601,3.5652,3.5663,3.5596,3.5671,3.5707,3.5707,3.5836,3.5903,3.5903,3.5973,3.5996,3.5996,3.5996,3.5996,2.0503,2.1722,2.3226,2.4169,2.5448,2.6841,2.8274,2.9158,3.045,3.3166,3.3248,3.3031,3.3692,3.3256,0.0,3.3231,3.3506,3.368,3.368,3.368,3.368,3.368,3.368,3.368,3.368,3.368,3.3564,3.3314,3.3526,3.3833,3.4186,3.4449,3.4872,3.5481,3.55,3.55,3.55,3.55,3.55,3.55,3.55,3.55,3.55,3.55,3.55,3.55,3.55,3.55,3.5488,3.5558,3.5566,3.5571,3.5616,3.5648,3.5648,3.5648,3.5648,3.5639,3.5579,3.5591,3.5621,3.5522,3.5528,3.5562,3.5502,3.55,3.55,3.55,3.55,3.5508,3.5556,3.5424,3.5215,3.5035,3.4981,3.4981,3.4981,3.4981,3.507,3.532,3.5376,3.5417,3.5493,3.55,3.55,3.55,3.55,3.55,3.55,3.55,3.55,3.55,3.5556,3.559,3.5566,3.5646,3.5693,3.5663,3.5783,3.5791,3.5687,3.5786,3.5841,3.5841,3.5923,3.5973,3.5973,3.5996,3.5974,3.5939,3.5939,3.5887,2.143,2.2873,2.4403,2.5346,2.6551,2.7846,2.901,2.9937,3.1145,3.3243,3.3006,3.2679,3.3526,3.2987,0.0,3.2852,3.2891,3.2891,3.2891,3.2891,3.2891,3.2891,3.2891,3.2891,3.2891,3.2891,3.2776,3.2449,3.2718,3.2987,3.3199,3.384,3.443,3.4968,3.5327,3.55,3.55,3.55,3.55,3.55,3.55,3.5521,3.5547,3.5515,3.55,3.5507,3.5534,3.5547,3.554,3.5616,3.5648,3.5638,3.5682,3.5707,3.5707,3.5707,3.5707,3.5696,3.5655,3.5675,3.5686,3.5601,3.5601,3.5635,3.559,3.5582,3.5582,3.5582,3.5582,3.5585,3.563,3.5611,3.5529,3.5339,3.529,3.529,3.529,3.5315,3.5393,3.5546,3.5556,3.5547,3.5547,3.5528,3.55,3.55,3.5522,3.5547,3.5547,3.5568,3.5582,3.5582,3.5663,3.5694,3.5633,3.5758,3.5791,3.5713,3.5828,3.5837,3.5717,3.5837,3.5897,3.5897,3.5891,3.5878,3.5878,3.5878,3.5864,3.5812,3.5812,3.5772,2.2749,2.4512,2.6114,2.7001,2.7967,2.8908,2.9827,3.0835,3.1814,3.2622,0.0,3.1948,3.2756,3.2295,3.2025,3.2679,3.2795,3.2756,3.2679,3.2679,3.2679,3.2679,3.2679,3.2679,3.2679,3.2679,3.2372,3.1641,3.2256,3.2391,3.1737,3.3141,3.4032,3.4205,3.4968,3.5423,3.55,3.5514,3.5508,3.5508,3.5521,3.5552,3.5601,3.5547,3.5515,3.5522,3.5574,3.5606,3.5616,3.5698,3.5717,3.5717,3.5726,3.5729,3.5729,3.5729,3.5729,3.5726,3.572,3.5723,3.5726,3.571,3.571,3.5717,3.5707,3.5707,3.5707,3.5707,3.5707,3.5707,3.5717,3.571,3.5686,3.563,3.5616,3.5606,3.5606,3.5659,3.5707,3.5707,3.5646,3.5606,3.5591,3.5544,3.5509,3.5509,3.556,3.5606,3.5606,3.5667,3.5707,3.5707,3.5812,3.5845,3.5723,3.5883,3.5918,3.5722,3.5822,3.5834,3.571,3.5829,3.5877,3.5877,3.5764,3.5707,3.5707,3.5707,3.57,3.5693,3.5693,3.5689,2.2018,2.3633,2.5461,2.7105,2.8759,3.0049,3.0266,3.0495,3.0923,3.1775,3.1814,3.1948,3.2756,3.2756,3.2487,3.2025,3.1968,3.1718,3.1038,3.0942,3.0942,3.0942,3.0942,3.0942,3.0942,3.0942,3.0865,3.0692,3.0846,3.1154,3.1679,3.2045,3.2833,3.4167,3.4379,3.4814,3.5481,3.5558,3.5582,3.5582,3.5635,3.5652,3.5671,3.5606,3.5606,3.5659,3.5663,3.5675,3.5682,3.5802,3.5867,3.5851,3.5905,3.5931,3.5931,3.5931,3.5931,3.5929,3.588,3.5892,3.5906,3.5747,3.5766,3.5838,3.5726,3.5707,3.5707,3.5707,3.5707,3.572,3.5836,3.5772,3.5717,3.5819,3.5765,3.5675,3.5675,3.5689,3.5707,3.5707,3.5689,3.5667,3.5606,3.5635,3.5659,3.5659,3.5679,3.5675,3.5675,3.5693,3.5707,3.5707,3.5812,3.5898,3.5867,3.5898,3.5896,3.5857,3.579,3.5723,3.5707,3.5723,3.5732,3.5732,3.5713,3.5707,3.5707,3.5707,3.5663,3.5611,3.5611,3.5595,2.2299,2.3936,2.5569,2.777,2.9376,3.0404,3.0404,3.0404,3.0538,3.0981,3.1077,3.1212,3.1635,3.1692,3.1558,3.1154,3.1077,3.0923,3.0462,3.0404,3.0404,3.0404,3.0404,3.0404,3.0404,3.0404,3.0404,3.0404,3.0404,3.0596,3.1058,3.1468,3.2318,3.3633,3.4019,3.4647,3.56,3.5605,3.5621,3.5642,3.5682,3.5726,3.5797,3.569,3.5675,3.5707,3.5766,3.5799,3.5805,3.5916,3.5948,3.5948,3.5995,3.5996,3.5996,3.5996,3.5996,3.5996,3.5951,3.5973,3.5976,3.5876,3.5896,3.5925,3.5869,3.5843,3.5843,3.5843,3.5843,3.5868,3.5924,3.5897,3.5868,3.5925,3.5861,3.5799,3.5799,3.5823,3.5843,3.5843,3.5821,3.5789,3.5742,3.5719,3.5707,3.5707,3.5758,3.5799,3.5799,3.5828,3.5832,3.5809,3.5857,3.5879,3.5815,3.58,3.5789,3.5768,3.5679,3.5644,3.5601,3.5596,3.5631,3.565,3.5611,3.5596,3.5596,3.5596,3.5599,3.5558,3.5558,3.5534,2.2179,2.3978,2.5736,2.8434,2.964,3.0212,3.0365,3.0404,3.0404,3.0404,3.0404,3.0404,3.0404,3.0404,3.0404,3.0404,3.0404,3.0404,3.0404,3.0404,3.0404,3.0404,3.0404,3.0404,3.0404,3.0404,3.0404,3.0404,3.0404,3.0416,3.0425,3.1099,3.1929,3.2863,3.3487,3.4269,3.5252,3.5363,3.5469,3.5512,3.5663,3.5817,3.5913,3.5792,3.5747,3.5752,3.5878,3.5913,3.5916,3.5975,3.5996,3.5996,3.5996,3.5996,3.5996,3.5996,3.5996,3.5996,3.5996,3.5996,3.5996,3.5996,3.5996,3.5996,3.5996,3.5996,3.5996,3.5996,3.5996,3.5996,3.5996,3.5996,3.5996,3.5996,3.5951,3.5913,3.5913,3.5951,3.5996,3.5996,3.5947,3.5905,3.5911,3.5814,3.5732,3.5747,3.5851,3.5916,3.5902,3.5956,3.5951,3.5875,3.5871,3.5812,3.571,3.5689,3.5663,3.5596,3.5585,3.555,3.5507,3.55,3.5534,3.5588,3.5534,3.55,3.55,3.55,3.55,3.55,3.55,3.55,1.9335,2.1809,2.5029,2.8299,2.9184,2.9467,3.0231,3.0404,3.0404,0.0,3.0404,3.0404,3.0404,3.0404,3.0404,3.0404,3.0404,3.0404,3.0404,3.0404,3.0404,3.0404,3.0404,3.0404,3.0404,3.0404,3.0404,3.0404,3.0404,3.0422,3.0491,3.0592,3.109,3.2039,3.2162,3.2631,3.3527,3.4333,3.4731,3.4759,3.5576,3.5975,3.5995,3.5975,3.5954,3.5955,3.5975,3.5995,3.5995,3.5996,3.5996,3.5996,3.5996,3.5996,3.5996,3.5996,3.5996,3.5996,3.5996,3.5996,3.5996,3.5996,3.5996,3.5996,3.5996,3.5996,3.5996,3.5996,3.5996,3.5996,3.5996,3.5996,3.5996,3.5996,3.5996,3.5995,3.5995,3.5996,3.5996,3.5996,3.5947,3.5914,3.5974,3.5921,3.5887,3.5953,3.5975,3.5976,3.5902,3.5914,3.5875,3.5732,3.5723,3.5717,3.5707,3.5642,3.5611,3.5591,3.554,3.5508,3.55,3.55,3.5494,3.5515,3.5494,3.55,3.55,3.55,3.55,3.55,3.55,3.55,1.9788,2.2507,2.5236,2.7217,2.8068,2.8646,2.9486,2.9679,2.9813,3.0308,3.0404,3.0404,3.0404,3.0404,3.0404,3.0404,3.0404,3.0414,3.0442,3.0452,3.0463,3.0507,3.0516,3.0509,3.0462,3.0495,3.0509,3.0457,3.05,3.0517,3.0547,3.0567,3.0999,3.1928,3.1927,3.2352,3.3292,3.3677,3.4135,3.4661,3.5566,3.5996,3.5996,3.5996,3.5996,3.5996,3.5996,3.5996,3.5996,3.5996,3.5996,3.5996,3.5996,3.5996,3.5996,3.5996,3.5996,3.5996,3.5996,3.5996,3.5996,3.5996,3.5996,3.5996,3.5996,3.5996,3.5996,3.5996,3.5996,3.5996,3.5996,3.5996,3.5996,3.5996,3.5996,3.5996,3.5996,3.5996,3.5996,3.5996,3.5974,3.5955,3.595,3.5914,3.5875,3.5845,3.5838,3.5828,3.578,3.5797,3.5746,3.5646,3.5638,3.5626,3.559,3.5562,3.554,3.554,3.5528,3.55,3.55,3.55,3.55,3.55,3.55,3.55,3.55,3.55,3.55,3.55,3.55,3.55,2.0253,2.2577,2.4385,2.5885,2.6928,2.7775,2.8607,2.8961,2.9315,0.0,3.0281,3.0456,3.0456,3.0449,3.0439,3.0451,3.0258,3.0139,3.0195,3.0009,2.99,2.9968,2.9958,3.003,3.0176,3.0234,3.0345,3.051,3.0568,3.0611,3.0614,3.0633,3.0956,3.1703,3.1672,3.2017,3.2754,3.294,3.3467,3.4375,3.5039,3.5332,3.5351,3.5566,3.5664,3.5684,3.5898,3.5996,3.5996,3.5996,3.5996,3.5996,3.5996,3.5996,3.5996,3.5996,3.5996,3.5996,3.5996,3.5996,3.5996,3.5996,3.5996,3.5996,3.5996,3.5996,3.5996,3.5996,3.5996,3.5996,3.5996,3.5996,3.5996,3.5996,3.5996,3.5996,3.5996,3.5996,3.5996,3.5996,3.5995,3.5951,3.5908,3.5873,3.5829,3.5717,3.5898,3.6027,3.6021,3.5998,3.605,3.6207,3.5822,3.5641,3.5783,3.5615,3.55,3.55,3.55,3.55,3.55,3.55,3.55,3.55,3.55,3.55,3.55,3.55,3.55,3.55,3.55,3.55,1.9423,2.0462,2.1327,2.4558,2.6019,2.689,2.7755,0.0,2.9216,2.9255,2.9973,3.0591,3.0591,3.0541,3.0524,3.0578,2.9904,2.9356,2.9362,2.8715,2.8226,2.8229,2.8232,2.8523,2.9285,2.9365,2.9718,3.0538,3.0603,3.0636,3.069,3.0692,3.0785,3.0957,3.0957,3.0976,3.1035,3.1855,3.2656,3.3476,3.3516,3.3535,3.3555,3.4394,3.4766,3.4805,3.5644,3.5996,3.5996,3.5996,3.5996,3.5996,3.5996,3.5996,3.5996,3.5996,3.5996,3.5996,3.5996,3.5996,3.5996,3.5996,3.5996,3.5996,3.5996,3.5996,3.5996,3.5996,3.5996,3.5996,3.5996,3.5996,3.5996,3.5996,3.5996,3.5996,3.5996,3.5996,3.5996,3.5996,3.5948,3.5905,3.5901,3.5799,3.571,3.5707,3.64,3.6907,3.6851,3.6836,3.711,3.7793,3.6456,3.5821,3.6558,3.5942,3.55,3.55,3.55,3.55,3.55,3.55,3.55,3.55,3.55,3.55,3.55,3.55,3.55,3.55,3.55,3.55,1.9037,2.0324,2.1691,2.4006,2.4833,2.5431,2.6865,2.7436,2.7964,2.9036,2.9528,2.9953,3.0546,3.0617,3.0393,2.9855,2.9505,2.9132,2.8669,2.8342,2.8177,2.8223,2.8226,2.8315,2.8579,2.9131,2.9605,2.987,3.0441,3.081,3.0836,3.0836,3.0857,3.0898,3.0898,3.0898,3.0898,3.1758,3.2344,3.2637,3.3144,3.3398,3.3418,3.3686,3.3798,3.3816,3.4089,3.4853,3.5944,3.5975,3.5974,3.5945,3.5975,3.5996,3.5996,3.5996,3.5996,3.5996,3.5996,3.5996,3.5996,3.5996,3.5996,3.5996,3.5996,3.5996,3.5996,3.5996,3.5996,3.5996,3.5996,3.5996,3.5996,3.5996,3.5996,3.5995,3.5947,3.5973,3.5995,3.5946,3.5913,3.586,3.5721,3.5666,3.5611,3.5582,3.5836,3.6031,3.601,3.6003,3.6093,3.6372,3.5865,3.5615,3.5904,3.5673,3.55,3.55,3.55,3.55,3.55,3.55,3.5424,3.5258,3.5239,3.5339,3.55,3.55,3.55,3.55,3.55,3.55,1.8431,1.992,2.1618,2.3354,2.3808,2.4253,2.5967,2.6371,2.6797,2.8199,2.8741,2.9156,2.9789,2.9851,2.9731,2.9457,2.8909,2.8354,2.7875,2.7545,2.7375,2.7422,2.7422,2.7518,2.7761,2.8631,2.9276,2.9501,3.0389,3.0898,3.0898,3.0898,3.0898,3.0898,3.0898,3.0898,3.0898,3.1465,3.1758,3.1777,3.2264,3.2497,3.2497,3.2726,3.2824,3.2842,3.3095,3.4052,3.5433,3.5485,3.5635,3.5841,3.5874,3.5902,3.5902,3.5902,3.5902,3.5902,3.5902,3.5902,3.5902,3.5902,3.5902,3.5902,3.5902,3.5902,3.5902,3.5902,3.5902,3.5902,3.5902,3.5902,3.5902,3.5902,3.5902,3.5896,3.5845,3.5895,3.5947,3.5847,3.5819,3.5765,3.5621,3.5588,3.5558,3.552,3.5731,3.5904,3.5904,3.5904,3.6,3.6308,3.5846,3.5615,3.5885,3.5654,3.55,3.55,3.55,3.5453,3.5369,3.5369,3.5231,3.4972,3.4963,3.5043,3.5231,3.5312,3.5398,3.55,3.55,3.55,0.0,0.0,0.0,2.2535,2.2976,2.3419,2.5085,0.0,2.5798,2.6716,2.7612,2.8242,2.8281,2.8281,2.8535,2.9394,2.8105,2.6992,2.6973,2.623,2.5703,2.5703,2.5703,2.6035,2.6875,2.7754,2.8613,2.9453,3.0351,3.0859,3.0859,3.0898,3.0898,3.0898,3.0898,3.0898,3.0898,3.0898,3.0898,3.0898,3.0767,3.0693,3.0711,3.1498,3.1854,3.1912,3.2755,3.3608,3.4422,3.4484,3.4971,3.5664,3.5684,3.5707,3.5707,3.5707,3.5707,3.5707,3.5707,3.5707,3.5707,3.5707,3.5707,3.5707,3.5707,3.5707,3.5707,3.5707,3.5707,3.5707,3.5707,3.5707,3.5707,3.5707,3.5707,3.5703,3.5703,3.5799,3.5843,3.5717,3.5638,3.5605,3.5605,3.5534,3.55,3.55,3.6154,3.6654,3.6654,3.6654,3.6981,3.7834,3.6462,3.5801,3.6589,3.5935,3.5486,3.5486,3.5486,3.5361,3.5096,3.5088,3.4963,3.4684,3.4684,3.4684,3.4684,3.4954,3.5223,3.5486,3.5486,3.5486,1.7838,0.0,0.0,0.0,0.0,0.0,0.0,0.0,2.4451,2.6541,2.6679,2.6797,2.8066,2.7773,2.7441,2.7676,2.7305,2.6777,2.6152,2.5859,2.5703,2.5703,2.5703,2.5781,2.6035,2.6855,2.7461,0.0,2.9101,2.9961,2.9961,3.0566,3.0898,3.0898,3.0898,3.0858,3.0767,3.0767,3.0735,3.0681,3.0643,3.0636,3.0633,3.0807,3.0898,3.0894,3.1081,3.166,3.2584,3.3946,3.4563,3.4747,3.5426,3.5707,3.5707,3.5707,3.5707,3.5707,3.5707,3.5707,3.5707,3.5707,3.5707,3.5707,3.5707,3.5707,3.5707,3.5707,3.5707,3.5707,3.5707,3.5707,3.5707,3.5707,3.5707,3.5686,3.5644,3.5653,3.5666,3.563,3.5616,3.5574,3.554,3.5515,3.55,3.55,3.5692,3.5827,3.5827,3.5672,3.571,3.614,3.5607,3.531,3.552,3.5348,3.5122,3.4935,3.4926,3.4898,3.4803,3.4803,3.4655,3.4345,3.4345,3.4345,3.4345,3.4655,3.486,3.4926,3.4926,3.4926,1.9015,2.0034,2.1382,2.2636,0.0,0.0,2.4473,2.4023,2.3789,0.0,2.6055,2.6016,2.7031,2.6776,2.6422,2.6422,2.6396,2.6221,2.5762,2.5703,2.5703,2.5703,2.5703,2.5703,2.5703,2.6484,2.6992,2.6992,2.8281,2.9219,2.957,3.0369,3.0816,3.0816,3.0787,3.0731,3.0665,3.0665,3.0648,3.0603,3.0568,3.0551,3.0567,3.0495,3.0457,3.0452,3.0425,3.0692,3.1306,3.3093,3.3998,3.4351,3.5267,3.5621,3.5621,3.5621,3.5621,3.5621,3.5621,3.5621,3.5621,3.5621,3.5621,3.5621,3.5621,3.5621,3.5621,3.5621,3.5621,3.5621,3.5621,3.5621,3.5621,3.5621,3.5621,3.5601,3.5574,3.5556,3.5556,3.5556,3.5556,3.5546,3.552,3.5417,3.5327,3.5327,3.5231,3.5174,3.5174,3.5025,3.499,3.5138,3.5035,3.4935,3.4935,3.4935,3.487,3.4704,3.4694,3.4643,3.4508,3.4497,3.4353,3.4043,3.4031,3.4031,3.4031,3.4334,3.4561,3.4694,3.4694,3.4694,2.0722,2.1387,2.2402,2.3887,2.3144,0.0,2.4902,2.4141,2.3437,0.0,2.5352,2.5312,2.5391,2.5444,2.547,2.547,2.5497,2.5552,2.5661,2.5682,2.5683,2.5683,2.5683,2.5683,2.5703,2.6406,2.6855,2.6855,2.7754,2.8671,2.9531,3.0296,3.0689,3.0689,3.0638,3.06,3.0591,3.0591,3.0584,3.0575,3.0528,3.05,3.0495,3.0428,3.0404,3.0404,3.0404,3.0404,3.0538,3.2218,3.3353,3.4148,3.5115,3.55,3.55,3.55,3.55,3.55,3.55,3.55,3.55,3.55,3.55,3.55,3.55,3.55,3.55,3.55,3.55,3.55,3.55,3.55,3.55,3.55,3.55,3.55,3.55,3.55,3.55,3.55,3.55,3.55,3.55,3.5281,3.5105,3.5105,3.4879,3.4694,3.4694,3.4663,3.4663,3.4713,3.4663,3.4643,3.4643,3.4643,3.4632,3.4601,3.4601,3.4464,3.4171,3.4159,3.4043,3.3802,3.3807,3.3807,3.3807,3.4043,3.4311,3.4601,3.4601,3.4601,2.1641,2.2285,2.3008,2.3281,2.3144,0.0,2.3516,2.2832,2.2422,0.0,2.3125,2.2832,2.3496,2.4179,2.4628,2.4628,2.5162,2.5566,2.5547,2.5545,2.5558,2.5607,2.5629,2.5636,2.5683,2.5859,2.5957,2.5957,2.7355,2.8594,2.9473,3.0213,3.0625,3.0625,3.0611,3.0571,3.0513,3.0513,3.0485,3.043,3.0422,3.0411,3.0431,3.0416,3.0404,3.0404,3.0404,3.0404,3.0538,3.2218,3.3006,3.3314,3.4885,3.55,3.55,3.55,3.55,3.55,3.55,3.55,3.55,3.55,3.55,3.55,3.55,3.55,3.55,3.55,3.55,3.55,3.55,3.55,3.55,3.55,3.55,3.55,3.55,3.55,3.55,3.55,3.55,3.55,3.55,3.5281,3.5105,3.5105,3.4879,3.4694,3.4694,3.4456,3.4401,3.4674,3.4456,3.43,3.43,3.43,3.4213,3.3992,3.3979,3.3941,3.3876,3.3876,3.3855,3.3807,3.3807,3.3807,3.3807,3.3855,3.3902,3.3979,3.3979,3.3979,2.3144,2.3477,2.3887,2.4297,2.4102,0.0,0.0,2.3437,2.291,2.418,2.3418,2.2754,2.3591,2.4077,2.4343,2.4313,2.4986,2.5488,2.542,2.5465,2.5503,2.5549,2.5552,2.5561,2.5599,2.5602,2.5602,2.5602,2.6775,2.7872,2.8766,2.9502,3.0097,3.054,3.0524,3.0486,3.0442,3.0442,3.0425,3.0404,3.0404,3.0404,3.0404,3.0404,3.0404,3.0404,3.0404,3.0404,3.0538,3.2218,3.2891,3.3064,3.4827,3.55,3.55,3.55,3.55,3.55,3.55,3.55,3.55,3.55,3.55,3.55,3.55,3.55,3.55,3.55,3.55,3.5479,3.5346,3.5297,3.5273,3.513,3.5105,3.5105,3.5105,3.5105,3.5105,3.5105,3.5105,3.519,3.5446,3.5281,3.5043,3.4926,3.4645,3.4409,3.4279,3.4093,3.4056,3.4244,3.4093,3.4012,3.4012,3.4012,3.3935,3.382,3.3807,3.3807,3.3807,3.3807,3.3707,3.3508,3.3508,3.339,3.3148,3.3148,3.327,3.3508,3.3508,3.3375,2.4648,2.4648,2.4824,2.5527,2.5156,2.4765,0.0,0.0,0.0,2.4938,2.4059,0.0,0.0,0.0,0.0,0.0,0.0,0.0,0.0,2.5061,0.0,2.5468,2.549,2.5495,2.551,2.5355,2.5338,2.5491,2.6145,2.6915,2.7779,2.8532,2.9349,3.0196,3.0183,3.0231,3.0404,3.0404,3.0404,3.0404,3.0404,3.0404,3.0404,3.0404,3.0404,3.0404,3.0404,3.0404,3.0519,3.2045,3.2756,3.3064,3.4827,3.55,3.55,3.55,3.55,3.55,3.55,3.55,3.55,3.55,3.55,3.55,3.55,3.55,3.55,3.55,3.55,3.5439,3.5174,3.5105,3.5025,3.4754,3.4694,3.4694,3.4694,3.4694,3.4694,3.4694,3.4694,3.4851,3.5273,3.5102,3.4841,3.4643,3.4323,3.4043,3.3829,3.3807,3.3807,3.3807,3.3807,3.3807,3.3807,3.3807,3.3807,3.3807,3.3807,3.3807,3.3807,3.3807,3.3564,3.3075,3.3136,3.2968,3.2501,3.2501,3.2697,3.306,3.306,3.2856,2.5547,2.5547,2.5586,2.5684,2.5581,2.5294,2.461,0.0,2.3943,2.3415,0.0,0.0,0.0,0.0,0.0,0.0,0.0,0.0,2.3272,2.3794,2.455,2.5309,2.5417,2.5431,2.5486,2.4853,2.4737,2.5452,2.5544,2.594,2.6808,2.7615,2.8417,2.9231,2.9248,2.9621,3.0385,3.0404,3.0404,3.0404,3.0404,3.0404,3.0404,3.0404,3.0404,3.0404,3.0404,3.0404,3.0462,3.1448,3.2256,3.3064,3.4827,3.55,3.55,3.55,3.55,3.55,3.55,3.55,3.55,3.55,3.55,3.55,3.55,3.55,3.55,3.55,3.55,3.5439,3.5174,3.5105,3.5025,3.4754,3.4694,3.4694,3.4694,3.4694,3.4694,3.4694,3.4694,3.4714,3.4774,3.4521,3.4292,3.4258,3.4006,3.3829,3.3788,3.3807,3.3807,3.3807,3.3807,3.3807,3.3807,3.3807,3.3807,3.3807,3.3807,3.3807,3.3807,3.3807,3.3419,3.2599,3.2999,3.2968,3.2501,3.2501,3.2534,3.2583,3.2583,3.255,2.5703,2.5662,2.5636,2.5636,2.5597,2.5448,2.5077,2.4588,2.4256,0.0,0.0,0.0,0.0,0.0,0.0,0.0,2.3198,0.0,0.0,0.0,2.3491,0.0,0.0,0.0,2.5337,2.4652,2.452,2.5321,2.4938,2.5237,2.6559,2.6959,2.7755,2.9069,2.9107,2.9525,3.0385,3.0404,3.0404,3.0404,3.0404,3.0404,3.0404,3.0404,3.0404,3.0404,3.0404,3.0404,3.0462,3.1346,3.191,3.2314,3.3526,3.4615,3.55,3.55,3.55,3.55,3.55,3.55,3.55,3.55,3.55,3.55,3.55,3.55,3.55,3.55,3.55,3.5391,3.4972,3.4879,3.4754,3.4302,3.4184,3.4184,3.4184,3.4184,3.4184,3.4184,3.4184,3.4184,3.4184,3.4353,3.4423,3.4223,3.4099,3.3974,3.3815,3.3807,3.3807,3.3807,3.3807,3.3807,3.3807,3.3807,3.3807,3.3807,3.3807,3.3807,3.3807,3.3578,3.3151,3.2517,3.2416,3.2179,3.1749,3.1749,3.1749,3.175,3.2003,3.1968,2.5657,2.5605,2.5567,2.5567,2.5511,2.5463,2.5463,2.4974,2.4681,2.5311,0.0,0.0,0.0,0.0,2.3198,2.2842,0.0,2.2778,0.0,2.2447,0.0,0.0,0.0,0.0,0.0,2.4384,2.4193,2.5244,2.4335,2.4471,2.6154,2.6467,2.7274,2.8723,2.8992,2.9525,3.0385,3.0404,3.0404,3.0404,3.0404,3.0404,3.0404,3.0317,3.0299,3.0292,3.0228,3.0208,3.0266,3.0885,3.1287,3.1562,3.2156,3.3293,3.4649,3.5011,3.5288,3.55,3.55,3.55,3.55,3.55,3.55,3.55,3.55,3.5446,3.5383,3.5383,3.5346,3.5163,3.4685,3.4561,3.4431,3.3915,3.3807,3.3807,3.3807,3.3807,3.3807,3.3807,3.3807,3.3807,3.3807,3.416,3.4364,3.4141,3.4086,3.4018,3.3815,3.3807,3.3748,3.3652,3.3652,3.3578,3.3462,3.3447,3.3447,3.3447,3.3447,3.3386,3.3252,3.3087,3.2747,3.2162,3.1915,3.1603,3.119,3.1035,3.0938,3.0958,3.1414,3.147,2.5517,2.5496,2.5493,2.5493,2.544,2.5397,2.5397,2.5331,2.5279,2.5298,2.526,2.524,2.5255,2.461,2.3792,2.2932,2.2802,0.0,0.0,0.0,0.0,0.0,0.0,0.0,0.0,2.3933,2.3628,0.0,2.3801,2.3562,2.525,2.6135,2.7005,2.7915,2.8684,2.9525,3.0385,3.0404,3.0404,3.0404,3.0404,3.0404,3.0398,3.0136,3.0013,2.9999,2.9804,2.9722,2.9722,2.9741,3.0268,3.1022,3.1041,3.1569,3.2454,3.3755,3.4776,3.55,3.55,3.55,3.55,3.55,3.55,3.55,3.55,3.5312,3.5113,3.5113,3.4926,3.4653,3.4292,3.4211,3.4147,3.3881,3.3807,3.3807,3.3807,3.3807,3.3807,3.3807,3.3807,3.3807,3.3807,3.382,3.3815,3.3802,3.3802,3.3802,3.3807,3.3807,3.3652,3.3258,3.3214,3.3029,3.2583,3.2534,3.2534,3.2534,3.2534,3.2332,3.188,3.2299,3.2127,3.1269,3.1621,3.1603,3.119,3.0617,3.033,3.0335,3.0938,3.121,2.5491,2.5477,2.5438,2.5431,2.5379,2.5335,2.5335,2.5322,2.5308,2.5308,2.5308,2.5308,2.5308,2.4639,2.3995,2.3706,2.2682,2.1831,0.0,0.0,0.0,0.0,0.0,0.0,0.0,0.0,2.3359,2.4461,2.3454,2.3524,2.5212,2.6135,2.7005,2.7876,2.8684,2.9525,3.0385,3.0404,3.0404,3.0404,3.0215,3.0136,3.0129,2.9893,2.9796,2.9796,2.9739,2.9705,2.9705,2.9705,2.9875,3.0129,3.0129,3.0656,3.1579,3.3102,3.3857,3.42,3.4763,3.4972,3.4972,3.4972,3.4972,3.4972,3.4972,3.4908,3.4841,3.4841,3.4764,3.4632,3.43,3.42,3.4135,3.385,3.3807,3.3807,3.3807,3.3807,3.3807,3.3807,3.3807,3.3807,3.3807,3.3807,3.3807,3.3807,3.3807,3.3807,3.3807,3.3807,3.3748,3.3606,3.3361,3.3139,3.2983,3.2681,3.2501,3.2501,3.2501,3.2434,3.2264,3.2127,3.1897,3.1603,3.147,3.1332,3.119,3.0995,3.0679,3.0293,3.0497,3.0601,2.5428,2.536,2.5258,2.5268,2.5191,2.5121,2.5121,2.5121,2.5121,2.5121,2.5165,2.5187,2.5132,2.4561,2.3976,2.3583,2.2397,2.1408,0.0,2.1359,0.0,0.0,0.0,0.0,0.0,2.2792,2.3033,2.4469,2.3478,2.3524,0.0,2.6135,2.7005,2.7876,2.8684,2.9525,3.0385,3.0404,3.0404,3.0404,3.0136,3.0006,2.9991,2.9722,2.9598,2.9589,2.9494,2.9456,2.9456,2.9456,2.9456,2.9456,2.9456,2.998,3.0899,3.243,3.3346,3.394,3.4515,3.4694,3.4694,3.4694,3.4694,3.4694,3.4694,3.4622,3.4529,3.4529,3.4453,3.4318,3.4117,3.4068,3.4006,3.3842,3.3807,3.3807,3.3807,3.3807,3.3807,3.3807,3.3807,3.3807,3.3807,3.3807,3.3807,3.3807,3.3807,3.3807,3.3807,3.3807,3.3748,3.3592,3.3214,3.2842,3.2517,3.2196,3.2039,3.2039,3.2039,3.2039,3.2039,3.175,3.1584,3.1584,3.1332,3.119,3.119,3.0995,3.0559,2.9978,2.9978,2.9848]}]]